[[{"header":{"parameterUnit":"m.s-1","parameterCategory":2,"la1":30.8641,"la2":29.7642,"lo1":-88.4676,"lo2":-86.9344,"dy":0.0333,"dx":0.0333,"nx":47,"ny":34,"refTime":"2023-09-07T00:00:00:Z","depth":"0","parameterNumber":2,"parameterNumberName":"U-component_of_CURRENTS"},"data":[0,0,0,0,0,0,0,0,0,0,0,0,0,0,0,0,0,0,0,0,0,0,0,0,0,0,0,0,0,0,0,0,0,0,0,0,0,0,0,0,0,0,0,0,0,0,0,0,0,0,0,0,0,0,0,0,0,0,0,0,0,0,0,0,0,0,0,0,0,0,0,0,0,0,0,0,0,0,0,0,0,0,0,0,0,0,0,0,0,0,0,0,0,0,0,0,0,0,0,0,0,0,0,0,0,0,0,0,0,0,0,0,0,0,0,0,0,0,0,0,0,0,0,0,0,0,0,0,0,0,0,0,0,0,0,0,0,0,0,0,0,0,0,0,0,0,0,0,0,0,0,0,0,0,0,0,0,0,0,0,0,0,0,0,0,0,0,0,0,0,0,0,0,0,0,0,0,0,0,0,0,0,0,0,0,0,0,0,0,0,0,0,0,0,0,0,0,0,0,0,0,0,0,0,0,0,0,0,0,0,0,0,0,0,0,0,0,0,0,0,0,0,0,0,0,0,0,0,0,0,0,0,0,0,0,0,0,0,0,0,0,0,0,0,0,0,0,0,0,0,0,0,0,0,0,0,0,0,0,0,0,0,0,0,0,0,0,0,0,0,0,0,0,0,0,0,0,0,0,0,0,0,0,0,0,0,0,0,0,0,0,0,0,0,0,0,0.0475,0.0953,0,0,0,0,0,0,0,0,0,0,0,0,0,0,0,0,0,0,0,0,0,0,0,0,0,0,0,0,0,0,0,0,0,0,0,0,0,0,0,0,0,0,0,0,0.0074,0.0558,0.0596,0.0228,0,0,0,0,0,0,0,0,0,0,0,0,0,0,0,0,0,0,0,0,0,0,0,0,0,0,0,0,0,0,0,0,0,0,0,0,0,0,0,0,0,0,0,-0.0396,-0.067,-0.0459,-0.0365,0,0,0,0,0,0,0,0,0,0,0,0,0,0,0,0,0,0,0,0,0,0,0,0,0,0,0,0,0,0,0,0,0,0,0,0,0,0,0,0,0,0,-0.0475,-0.1082,-0.1129,-0.0769,-0.0494,0,0,0,0,0,0,0,0,0,0,0,0,0,0,0,0,0,0,0,0,0,0,0,0,0,0,0,0,0,0,0,0,0,0,0,0,0,0,0,0,0,0,-0.0497,-0.1217,-0.1387,-0.1129,-0.0931,0,0,0,0,0,0,0,0,0,0,0,0,0,0,0,0,0,0,0,0,0,0,0,0,0,0,0,0,0,0,0,0,0,0,0,0,0,0,0,0,0,0,-0.0113,-0.0475,-0.0882,-0.1,-0.0961,0,0,0,0,0,0,0,0,0,0,0,0,0,0,0,0,0,0,0,0,0,0,0,0,0,0,0,0,0,0,0,0,0,0,0,0,0,0,0,0,0,0,-0.0602,-0.0184,-0.0253,-0.0516,-0.0673,0,0,0,0,0,0,0,0,0,0,0,0,0,0,0,0,0,0,0,0,0,0,0,0,0,0,-0.0453,-0.0909,0,0,0,0,0,0,0,0,0,0,0,0,0,-0.0412,-0.0648,-0.0316,-0.0258,-0.0376,-0.0401,0,0,0,0,0,0,0,0,0,0,0,0,0,0,0,0,0,0,0,0,0,0,-0.0332,-0.0871,-0.134,-0.089,-0.0027,0.0129,0,0,0,0,0,0,0,0,0,0,0,0,0,-0.0338,-0.053,-0.0363,-0.0486,-0.0541,-0.0291,-0.0137,0,0,0,0,0,0,0,0,0,0,0,0,0,0,0,0,0,0,0,0,-0.0618,-0.0934,-0.0442,-0.0253,0,0,0,0,0,0,0,0,0.0074,0.0099,0.0047,0,0,0,0,0,-0.0266,-0.0379,-0.0332,-0.0648,-0.0777,-0.0563,-0.05,-0.05,0,0,0,0,0,0,0,0,0,0,0,0,0,0,0,0,0,0,-0.1393,-0.1785,0,0,0,0,0,0,0,0.0074,0,0.0041,0.008,-0.0005,-0.0176,-0.0258,0,0,0,0,0,-0.0363,-0.0522,-0.0294,-0.0511,-0.0838,-0.0733,-0.0442,-0.0385,-0.0428,0,0,0,0,0,0,0,0,0,0,0,0,0,0,0,0,-0.0876,-0.0695,0,0,0.0069,0.0088,0.0071,0.0069,0.0121,0.0239,0.0195,0.0091,-0.0071,-0.0184,-0.0272,-0.0363,-0.0459,-0.0681,-0.0835,-0.1404,-0.2153,-0.2315,-0.1132,-0.0242,-0.0516,-0.067,-0.0978,-0.1041,-0.0791,-0.0593,-0.0494,-0.045,0,0,0,0,0,0,0,0,0,0,0,0,0.0047,0.0041,-0.0283,-0.0593,-0.0407,-0.0038,0.0159,0.022,0.0228,0.0233,0.0228,0.0192,0.0052,-0.0066,-0.0283,-0.0168,-0.0124,-0.0181,-0.0453,-0.0398,0.0038,0.008,-0.0066,0,0,0,-0.0448,-0.1574,-0.2035,-0.1629,-0.1145,-0.0623,-0.0206,0.0,0.0022,0,0,0,0,0,0,0,0.0066,0.0242,0.0371,0.0396,0.0409,0.0368,0.0261,0.0181,0.0082,-0.0008,0.0022,0.0099,0.0151,0.0173,0.0146,0.0058,-0.0025,-0.0036,-0.0014,-0.0146,0.0168,0.0192,0.0124,0.0121,0,0,-0.0066,-0.011,-0.0407,-0.0819,-0.1582,-0.0876,0.0497,0,0,0,0,0,0,0,0,0.0049,0.0151,0.0239,0.0302,0.0352,0.0417,0.0434,0.042,0.045,0.0475,0.047,0.0437,0.0398,0.039,0.0404,0.0363,0.0222,0.0071,0.0005,-0.0014,-0.003,0.0011,0.0074,0.0099,0.0071,0,0,0.0003,0.0033,0.0124,0.0099,-0.0052,0.0022,0.014,-0.0074,-0.0272,-0.0277,0,0.0544,0.089,0.0596,0.042,0.0269,0.0148,0.0088,0.0107,0.0181,0.022,0.0222,0.0255,0.0308,0.0363,0.0417,0.047,0.0514,0.0536,0.0538,0.0569,0.0615,0.0637,0.0623,0.0544,0.0374,0.0217,0.0143,0.0102,0.0074,0.0055,0.0052,0.0044,0.0014,-0.0025,0.0283,0.0258,0.0275,0.028,0.0286,0.0239,0.0176,0.0211,0.0266,0.0294,0.0316,0.0417,0.0297,0.0338,0.0591,0.058,0.0503,0.0354,0.0222,0.0159,0.0157,0.0181,0.0217,0.025,0.028,0.0319,0.0371,0.0464,0.0596,0.0698,0.0739,0.0736,0.0725,0.0703,0.0613,0.0439,0.0239,0.0118,0.0082,0.0044,-0.0014,-0.0074,-0.011,-0.014,-0.0253,-0.0428,-0.0566,0.0277,0.0305,0.0354,0.0415,0.0453,0.0475,0.0481,0.0483,0.0503,0.0533,0.0558,0.0563,0.053,0.0538,0.058,0.0582,0.0566,0.0494,0.0374,0.0286,0.0255,0.0261,0.028,0.0302,0.0332,0.0385,0.0483,0.0569,0.0569,0.0527,0.0489,0.0448,0.0371,0.0283,0.0201,0.0118,0.0036,-0.0025,-0.0066,-0.0115,-0.0187,-0.0294,-0.0357,-0.0533,-0.0645,-0.0439,-0.0211,0.0401,0.0459,0.0505,0.0544,0.0574,0.0604,0.0626,0.0637,0.0654,0.0678,0.0703,0.0717,0.0703,0.0681,0.0645,0.0596,0.0569,0.0555,0.0508,0.0437,0.0385,0.0357,0.0352,0.0371,0.0426,0.0522,0.0571,0.0519,0.0464,0.0428,0.0371,0.0308,0.0233,0.011,-0.0058,-0.0179,-0.0192,-0.017,-0.0286,-0.0464,-0.0761,-0.0942,-0.0747,-0.0338,-0.0003,-0.0049,-0.0233,0.042,0.053,0.0629,0.0711,0.0761,0.0761,0.0722,0.0656,0.0599,0.0591,0.061,0.0623,0.0602,0.0569,0.0552,0.0536,0.0503,0.0492,0.0497,0.0492,0.0478,0.0472,0.0503,0.058,0.0643,0.067,0.0676,0.0659,0.0621,0.0527,0.0374,0.0179,-0.0036,-0.0239,-0.0368,-0.0393,-0.0442,-0.0761,-0.1162,-0.1167,-0.0744,-0.0448,-0.0222,-0.0343,-0.0733,-0.0681,-0.0569,0.0456,0.0629,0.0689,0.0665,0.0607,0.053,0.0456,0.0407,0.039,0.0404,0.0415,0.039,0.0338,0.0288,0.0283,0.0302,0.0346,0.0398,0.0426,0.0453,0.0492,0.0574,0.0692,0.0764,0.0786,0.0758,0.0673,0.0522,0.0335,0.0148,-0.0025,-0.0211,-0.0404,-0.0566,-0.0678,-0.0871,-0.1203,-0.1241,-0.0997,-0.0764,-0.0541,-0.0676,-0.0986,-0.0961,-0.0915,-0.1052,-0.117,0.0445,0.047,0.0363,0.0184,0.003,-0.0005,0.0052,0.0132,0.0209,0.0286,0.0387,0.0475,0.0489,0.0439,0.0343,0.025,0.0195,0.0206,0.028,0.0349,0.0409,0.0497,0.0582,0.0621,0.0593,0.0445,0.0148,-0.0165,-0.0349,-0.0415,-0.0461,-0.0538,-0.0632,-0.0698,-0.0972,-0.1296,-0.1338,-0.1151,-0.0887,-0.0915,-0.1143,-0.1143,-0.1123,-0.1261,-0.142,-0.1607,-0.1783,0.0269,0.0126,-0.0126,-0.0379,-0.0456,-0.0374,-0.0225,-0.0074,0.0038,0.0118,0.0176,0.0228,0.0266,0.0294,0.0291,0.0228,0.017,0.0157,0.014,0.011,0.0154,0.0253,0.0327,0.028,0.0041,-0.0272,-0.0533,-0.0736,-0.081,-0.0731,-0.0643,-0.064,-0.0706,-0.0975,-0.1395,-0.1475,-0.1343,-0.1313,-0.1269,-0.1192,-0.1258,-0.1434,-0.1651,-0.1961,-0.2252,-0.2505,-0.2714,0.0066,-0.0203,-0.0475,-0.0547,-0.0376,-0.011,0.0118,0.031,0.0461,0.0571,0.0629,0.0634,0.0599,0.0541,0.0481,0.0398,0.0299,0.0228,0.0195,0.019,0.022,0.019,0.0025,-0.0179,-0.0404,-0.0634,-0.0821,-0.0939,-0.0906,-0.0722,-0.0613,-0.0651,-0.1,-0.1593,-0.1755,-0.1626,-0.1486,-0.1329,-0.1387,-0.1615,-0.1914,-0.225,-0.2557,-0.2889,-0.328,-0.3626,-0.3887,-0.011,-0.0357,-0.0415,-0.0222,0.0049,0.0242,0.0371,0.0481,0.0596,0.0736,0.0901,0.1063,0.1184,0.1206,0.1162,0.1079,0.0904,0.0695,0.0577,0.0508,0.0398,0.019,-0.0069,-0.0291,-0.0494,-0.067,-0.0791,-0.084,-0.0717,-0.053,-0.0522,-0.103,-0.1788,-0.2016,-0.1846,-0.1673,-0.1596,-0.1717,-0.2049,-0.2439,-0.2788,-0.3134,-0.3513,-0.3939,-0.4386,-0.4757,-0.496,-0.0242,-0.0417,-0.0214,0.0129,0.0277,0.0239,0.0179,0.0217,0.0363,0.0569,0.0786,0.0983,0.1156,0.1294,0.1376,0.1373,0.1285,0.1143,0.0975,0.0816,0.0659,0.0445,0.0115,-0.0211,-0.0393,-0.0483,-0.05,-0.0489,-0.0467,-0.0467,-0.1055,-0.192,-0.2181,-0.2041,-0.1887,-0.1909,-0.2131,-0.2477,-0.29,-0.3332,-0.3724,-0.4098,-0.4491,-0.4892,-0.5243,-0.5471,-0.557,-0.0374,-0.0203,0.0173,0.0244,0.0011,-0.0236,-0.0321,-0.0236,-0.0044,0.0201,0.0426,0.0613,0.0777,0.0942,0.1082,0.117,0.1176,0.1088,0.0942,0.0813,0.0706,0.0533,0.0211,-0.0148,-0.0346,-0.0374,-0.025,-0.0124,-0.0302,-0.1063,-0.1942,-0.2244,-0.2151,-0.2085,-0.2189,-0.2442,-0.2815,-0.3269,-0.3752,-0.4222,-0.4636,-0.4947,-0.5177,-0.5386,-0.5606,-0.5776,-0.5823,-0.0222,0.0137,0.0137,-0.0176,-0.0453,-0.0613,-0.0574,-0.039,-0.0162,0.0041,0.0176,0.0247,0.0305,0.039,0.0489,0.0569,0.0615,0.0618,0.0596,0.0574,0.053,0.0412,0.0132,-0.0217,-0.0382,-0.0299,-0.003,-0.0005,-0.0783,-0.1791,-0.2217,-0.2173,-0.2115,-0.2321,-0.2692,-0.3098,-0.3535,-0.398,-0.4439,-0.4864,-0.5205,-0.5427,-0.5546,-0.5633,-0.5721,-0.5768,-0.5721,0.0121,0.0162,-0.0071,-0.0288,-0.0371,-0.0316,-0.0162,0.0,0.0135,0.0239,0.0283,0.0261,0.0214,0.019,0.0203,0.0231,0.0269,0.0335,0.0417,0.0461,0.0428,0.0297,0.0025,-0.0286,-0.0407,-0.0179,0.0121,-0.0382,-0.1417,-0.2055,-0.2129,-0.2019,-0.2258,-0.2741,-0.3197,-0.3606,-0.3994,-0.4373,-0.473,-0.5057,-0.5315,-0.5469,-0.554,-0.5526,-0.5447,-0.5378,-0.5356]},{"header":{"parameterUnit":"m.s-1","parameterCategory":2,"la1":30.8641,"la2":29.7642,"lo1":-88.4676,"lo2":-86.9344,"dy":0.0333,"dx":0.0333,"nx":47,"ny":34,"refTime":"2023-09-07T00:00:00:Z","depth":"0","parameterNumber":3,"parameterNumberName":"V-component_of_CURRENTS"},"data":[0,0,0,0,0,0,0,0,0,0,0,0,0,0,0,0,0,0,0,0,0,0,0,0,0,0,0,0,0,0,0,0,0,0,0,0,0,0,0,0,0,0,0,0,0,0,0,0,0,0,0,0,0,0,0,0,0,0,0,0,0,0,0,0,0,0,0,0,0,0,0,0,0,0,0,0,0,0,0,0,0,0,0,0,0,0,0,0,0,0,0,0,0,0,0,0,0,0,0,0,0,0,0,0,0,0,0,0,0,0,0,0,0,0,0,0,0,0,0,0,0,0,0,0,0,0,0,0,0,0,0,0,0,0,0,0,0,0,0,0,0,0,0,0,0,0,0,0,0,0,0,0,0,0,0,0,0,0,0,0,0,0,0,0,0,0,0,0,0,0,0,0,0,0,0,0,0,0,0,0,0,0,0,0,0,0,0,0,0,0,0,0,0,0,0,0,0,0,0,0,0,0,0,0,0,0,0,0,0,0,0,0,0,0,0,0,0,0,0,0,0,0,0,0,0,0,0,0,0,0,0,0,0,0,0,0,0,0,0,0,0,0,0,0,0,0,0,0,0,0,0,0,0,0,0,0,0,0,0,0,0,0,0,0,0,0,0,0,0,0,0,0,0,0,0,0,0,0,0,0,0,0,0,0,0,0,0,0,0,0,0,0,0,0,0,0,0.0887,-0.0854,0,0,0,0,0,0,0,0,0,0,0,0,0,0,0,0,0,0,0,0,0,0,0,0,0,0,0,0,0,0,0,0,0,0,0,0,0,0,0,0,0,0,0,0,-0.0052,-0.0239,-0.1544,-0.0596,0,0,0,0,0,0,0,0,0,0,0,0,0,0,0,0,0,0,0,0,0,0,0,0,0,0,0,0,0,0,0,0,0,0,0,0,0,0,0,0,0,0,0,-0.0577,-0.1252,-0.192,-0.058,0,0,0,0,0,0,0,0,0,0,0,0,0,0,0,0,0,0,0,0,0,0,0,0,0,0,0,0,0,0,0,0,0,0,0,0,0,0,0,0,0,0,-0.0808,-0.1176,-0.1154,-0.1327,-0.0736,0,0,0,0,0,0,0,0,0,0,0,0,0,0,0,0,0,0,0,0,0,0,0,0,0,0,0,0,0,0,0,0,0,0,0,0,0,0,0,0,0,0,-0.1299,-0.1368,-0.0931,-0.0684,-0.0942,0,0,0,0,0,0,0,0,0,0,0,0,0,0,0,0,0,0,0,0,0,0,0,0,0,0,0,0,0,0,0,0,0,0,0,0,0,0,0,0,0,0,-0.2211,-0.1703,-0.036,-0.0126,-0.0906,0,0,0,0,0,0,0,0,0,0,0,0,0,0,0,0,0,0,0,0,0,0,0,0,0,0,0,0,0,0,0,0,0,0,0,0,0,0,0,0,0,0,-0.2543,-0.1903,0.0033,-0.0033,-0.084,0,0,0,0,0,0,0,0,0,0,0,0,0,0,0,0,0,0,0,0,0,0,0,0,0,0,-0.07,0.0681,0,0,0,0,0,0,0,0,0,0,0,0,0,-0.0994,-0.2318,-0.1621,0.0135,-0.0173,-0.0802,0,0,0,0,0,0,0,0,0,0,0,0,0,0,0,0,0,0,0,0,0,0,-0.0753,-0.0319,-0.0069,0.0,-0.0349,0.0341,0,0,0,0,0,0,0,0,0,0,0,0,0,-0.1549,-0.2079,-0.1225,0.0132,-0.0118,-0.0643,-0.0258,0,0,0,0,0,0,0,0,0,0,0,0,0,0,0,0,0,0,0,0,-0.1318,-0.0376,-0.0159,-0.0033,0,0,0,0,0,0,0,0,0.0096,-0.0233,-0.0541,0,0,0,0,0,-0.2082,-0.1947,-0.1156,-0.0099,-0.0036,-0.05,-0.0291,-0.0036,0,0,0,0,0,0,0,0,0,0,0,0,0,0,0,0,0,0,-0.1291,-0.0659,0,0,0,0,0,0,0,0.0049,0,0.0011,-0.0088,0.0003,-0.0346,-0.0574,0,0,0,0,0,-0.2612,-0.1832,-0.139,-0.0569,-0.0148,-0.045,-0.0401,-0.0209,-0.0192,0,0,0,0,0,0,0,0,0,0,0,0,0,0,0,0,-0.0983,-0.1151,0,0,-0.0074,-0.0121,-0.0126,-0.0096,-0.0027,0.0025,-0.0096,-0.0313,-0.0102,-0.0132,-0.0137,-0.0439,-0.0522,-0.0162,-0.0346,-0.1231,0.0,0.0,-0.1464,-0.2381,-0.1821,-0.0956,-0.0371,-0.0442,-0.0412,-0.0253,-0.0154,0.0363,0,0,0,0,0,0,0,0,0,0,0,0,0.0022,-0.0129,-0.0648,-0.0667,-0.0673,-0.0099,-0.0077,-0.0151,-0.019,-0.019,-0.0176,-0.0126,-0.0099,-0.0239,-0.0319,-0.0211,-0.0099,-0.0203,-0.0415,-0.022,-0.0082,-0.0376,-0.0953,0,0,0,-0.3455,-0.22,-0.0525,-0.0247,-0.0233,-0.017,-0.006,-0.0014,0.0181,0,0,0,0,0,0,0,0.0104,-0.0088,-0.0044,-0.0074,-0.0102,-0.006,-0.0187,-0.0519,-0.0533,-0.0352,-0.0121,-0.0124,-0.0217,-0.0255,-0.0272,-0.0269,-0.0231,-0.0195,-0.0211,-0.0162,-0.0104,-0.0088,-0.0225,-0.0415,0,0,-0.0456,-0.0706,-0.0832,-0.1099,-0.1365,-0.1947,-0.2868,0,0,0,0,0,0,0,0,0.0063,0.0025,-0.0005,-0.0014,-0.0005,0.0019,0.0107,0.0019,-0.0027,-0.0066,-0.011,-0.017,-0.0264,-0.0382,-0.0437,-0.0393,-0.0209,-0.0165,-0.0184,-0.0236,-0.0286,-0.0266,-0.0236,-0.0214,-0.0286,0,0,-0.0168,-0.0206,-0.0335,-0.0129,-0.0088,-0.0434,-0.061,-0.0717,-0.0912,-0.1181,0,-0.2381,-0.0379,-0.0203,-0.0244,-0.025,-0.0214,-0.0118,-0.0033,0.0003,0.003,0.0014,0.0005,0.0014,0.0027,0.0052,0.0066,0.003,-0.0022,-0.0066,-0.0118,-0.0231,-0.0341,-0.0428,-0.0481,-0.0456,-0.0302,-0.0195,-0.0173,-0.0231,-0.0305,-0.0305,-0.0327,-0.0365,-0.045,-0.0104,-0.0132,-0.0173,-0.0181,-0.0201,-0.0132,-0.0113,-0.0297,-0.0428,-0.0547,-0.0667,-0.0829,-0.0464,-0.0961,-0.0346,-0.022,-0.0313,-0.0335,-0.0272,-0.0148,-0.0044,-0.0003,-0.0005,-0.0003,0.0016,0.0052,0.0082,0.008,0.0033,-0.0033,-0.0118,-0.0176,-0.0217,-0.033,-0.0464,-0.0574,-0.0596,-0.0486,-0.0332,-0.0266,-0.0291,-0.031,-0.0415,-0.0494,-0.0349,-0.0236,-0.031,-0.0071,-0.0093,-0.0118,-0.0132,-0.0126,-0.0124,-0.0143,-0.0236,-0.0365,-0.0483,-0.0585,-0.0615,-0.047,-0.0492,-0.0308,-0.0258,-0.039,-0.0459,-0.0368,-0.0201,-0.0071,-0.0022,-0.0022,-0.0016,0.0019,0.0082,0.0096,0.0052,-0.0016,-0.0102,-0.0192,-0.0269,-0.0324,-0.0415,-0.0547,-0.0629,-0.0632,-0.0525,-0.0456,-0.0486,-0.0514,-0.0338,-0.0313,-0.0297,-0.025,-0.031,-0.0398,-0.0005,-0.003,-0.0052,-0.0077,-0.0096,-0.0121,-0.0179,-0.0277,-0.0404,-0.0519,-0.0593,-0.0593,-0.0522,-0.0461,-0.0371,-0.033,-0.0412,-0.0481,-0.0407,-0.0242,-0.0107,-0.0049,-0.0041,-0.0019,0.0047,0.0104,0.0093,0.0063,0.0,-0.0118,-0.0214,-0.0294,-0.039,-0.0503,-0.0643,-0.0676,-0.0706,-0.0711,-0.0711,-0.0497,-0.0157,-0.006,-0.0033,-0.0253,-0.0316,-0.0327,-0.0376,0.0069,0.0027,-0.0005,-0.0049,-0.0102,-0.0159,-0.0239,-0.0324,-0.0409,-0.05,-0.0569,-0.0591,-0.0571,-0.0533,-0.05,-0.0505,-0.0489,-0.045,-0.0382,-0.0247,-0.0129,-0.0071,-0.0038,0.0008,0.0099,0.0157,0.014,0.0099,-0.0022,-0.0209,-0.0352,-0.0461,-0.0566,-0.0681,-0.0794,-0.0835,-0.0926,-0.0703,-0.047,0.0003,0.0264,-0.0066,-0.014,-0.0168,-0.0209,-0.0137,-0.0181,0.0184,0.0096,0.0022,-0.0036,-0.0104,-0.0162,-0.0228,-0.0286,-0.0341,-0.0412,-0.0486,-0.0544,-0.0563,-0.0536,-0.0505,-0.056,-0.0555,-0.0483,-0.0371,-0.0231,-0.0126,-0.0047,0.0008,0.011,0.0203,0.0209,0.0126,-0.0044,-0.0244,-0.0461,-0.0596,-0.0695,-0.0769,-0.0824,-0.0945,-0.0989,-0.0769,-0.0231,0.0016,0.0049,-0.0033,-0.0107,-0.014,0.0033,-0.008,-0.0233,-0.033,0.0288,0.011,-0.0033,-0.0107,-0.0143,-0.0148,-0.0187,-0.022,-0.0255,-0.0313,-0.0387,-0.0472,-0.0538,-0.0555,-0.0505,-0.0508,-0.0544,-0.05,-0.0357,-0.0228,-0.0115,0.0049,0.0187,0.0244,0.019,0.0014,-0.0157,-0.0365,-0.0566,-0.0733,-0.0797,-0.0819,-0.0827,-0.0972,-0.1044,-0.075,-0.0302,-0.006,-0.0014,-0.0137,-0.0154,-0.0008,-0.0082,-0.0211,-0.0195,-0.025,-0.0352,0.0269,-0.0044,-0.0302,-0.0332,-0.017,-0.0091,-0.0126,-0.0162,-0.019,-0.0233,-0.0297,-0.039,-0.0486,-0.0577,-0.0593,-0.0577,-0.0538,-0.0442,-0.0327,-0.022,-0.0022,0.0244,0.0327,0.0135,-0.0115,-0.0302,-0.0437,-0.0574,-0.0728,-0.0819,-0.0799,-0.0758,-0.0939,-0.1112,-0.0827,-0.0428,-0.022,-0.0266,-0.0242,-0.0137,-0.0121,-0.017,-0.0201,-0.0272,-0.0288,-0.0338,-0.039,0.0044,-0.0371,-0.0566,-0.0297,0.0168,0.0272,0.0211,0.0113,-0.0005,-0.0113,-0.0233,-0.0354,-0.0472,-0.0558,-0.061,-0.0643,-0.0571,-0.0428,-0.0316,-0.0187,0.0055,0.0269,0.0201,-0.0154,-0.0434,-0.0475,-0.0475,-0.0549,-0.0676,-0.0698,-0.0662,-0.0873,-0.1093,-0.0923,-0.0607,-0.0508,-0.0464,-0.0426,-0.0368,-0.0261,-0.0173,-0.0181,-0.0181,-0.0244,-0.0324,-0.0357,-0.0321,-0.0308,-0.0607,-0.0382,0.0299,0.0648,0.0582,0.0453,0.033,0.0203,0.008,-0.0071,-0.0239,-0.0415,-0.0566,-0.0687,-0.0758,-0.0665,-0.0456,-0.0319,-0.0201,-0.0036,0.0058,-0.0049,-0.0363,-0.0577,-0.0538,-0.0396,-0.0365,-0.0478,-0.0593,-0.0846,-0.1088,-0.0992,-0.0786,-0.0819,-0.0829,-0.0744,-0.0547,-0.0354,-0.0201,-0.0096,-0.0069,-0.0099,-0.0124,-0.0137,-0.0099,0.0011,-0.0569,-0.0404,0.028,0.0687,0.0569,0.0349,0.0214,0.017,0.0154,0.0115,0.0008,-0.017,-0.0396,-0.0637,-0.0832,-0.0912,-0.0821,-0.0615,-0.045,-0.0286,-0.0165,-0.0165,-0.0302,-0.0549,-0.0676,-0.0599,-0.0382,-0.0258,-0.0442,-0.086,-0.1121,-0.1093,-0.1027,-0.114,-0.1239,-0.114,-0.0893,-0.0599,-0.0349,-0.0176,-0.0058,0.0038,0.0104,0.0173,0.0242,0.0321,0.0409,-0.0472,0.0225,0.0722,0.0519,0.0231,0.0104,0.0146,0.031,0.0404,0.0387,0.0239,-0.0011,-0.0319,-0.0626,-0.0865,-0.0997,-0.0981,-0.0835,-0.0645,-0.045,-0.0354,-0.0387,-0.0533,-0.0722,-0.0783,-0.0681,-0.0536,-0.0549,-0.0824,-0.1145,-0.1195,-0.1269,-0.1494,-0.1686,-0.1593,-0.1296,-0.0959,-0.064,-0.0376,-0.0195,-0.0049,0.0107,0.0286,0.0467,0.0591,0.0654,0.0687,0.0055,0.0786,0.0673,0.0341,0.022,0.0407,0.0725,0.1038,0.1173,0.1115,0.0901,0.0593,0.0236,-0.0146,-0.0489,-0.0728,-0.0802,-0.075,-0.0607,-0.0481,-0.0415,-0.0415,-0.0563,-0.0766,-0.0805,-0.0744,-0.0871,-0.111,-0.1203,-0.1285,-0.1445,-0.1766,-0.209,-0.2046,-0.1697,-0.1283,-0.0884,-0.0522,-0.0233,-0.0033,0.0118,0.0275,0.0467,0.0667,0.0786,0.0794,0.0797,0.0731,0.0956,0.0585,0.0409,0.0558,0.0983,0.1382,0.1607,0.1673,0.1566,0.1338,0.1057,0.0764,0.0448,0.0137,-0.0113,-0.025,-0.031,-0.0327,-0.033,-0.0253,-0.0236,-0.042,-0.0637,-0.072,-0.0887,-0.1354,-0.1442,-0.142,-0.1579,-0.1945,-0.2414,-0.2502,-0.2148,-0.17,-0.1274,-0.0868,-0.0511,-0.0211,0.0033,0.0242,0.0423,0.0577,0.0692,0.0753,0.0761,0.0797]}],[{"header":{"parameterUnit":"m.s-1","parameterCategory":2,"la1":30.8641,"la2":29.7642,"lo1":-88.4676,"lo2":-86.9344,"dy":0.0333,"dx":0.0333,"nx":47,"ny":34,"refTime":"2023-09-07T00:00:00:Z","depth":"2","parameterNumber":2,"parameterNumberName":"U-component_of_CURRENTS"},"data":[0,0,0,0,0,0,0,0,0,0,0,0,0,0,0,0,0,0,0,0,0,0,0,0,0,0,0,0,0,0,0,0,0,0,0,0,0,0,0,0,0,0,0,0,0,0,0,0,0,0,0,0,0,0,0,0,0,0,0,0,0,0,0,0,0,0,0,0,0,0,0,0,0,0,0,0,0,0,0,0,0,0,0,0,0,0,0,0,0,0,0,0,0,0,0,0,0,0,0,0,0,0,0,0,0,0,0,0,0,0,0,0,0,0,0,0,0,0,0,0,0,0,0,0,0,0,0,0,0,0,0,0,0,0,0,0,0,0,0,0,0,0,0,0,0,0,0,0,0,0,0,0,0,0,0,0,0,0,0,0,0,0,0,0,0,0,0,0,0,0,0,0,0,0,0,0,0,0,0,0,0,0,0,0,0,0,0,0,0,0,0,0,0,0,0,0,0,0,0,0,0,0,0,0,0,0,0,0,0,0,0,0,0,0,0,0,0,0,0,0,0,0,0,0,0,0,0,0,0,0,0,0,0,0,0,0,0,0,0,0,0,0,0,0,0,0,0,0,0,0,0,0,0,0,0,0,0,0,0,0,0,0,0,0,0,0,0,0,0,0,0,0,0,0,0,0,0,0,0,0,0,0,0,0,0,0,0,0,0,0,0,0,0,0,0,0,0.0286,0.0571,0,0,0,0,0,0,0,0,0,0,0,0,0,0,0,0,0,0,0,0,0,0,0,0,0,0,0,0,0,0,0,0,0,0,0,0,0,0,0,0,0,0,0,0,0.0096,0.0319,0.0258,0.0096,0,0,0,0,0,0,0,0,0,0,0,0,0,0,0,0,0,0,0,0,0,0,0,0,0,0,0,0,0,0,0,0,0,0,0,0,0,0,0,0,0,0,0,-0.025,-0.0511,-0.0409,-0.0299,0,0,0,0,0,0,0,0,0,0,0,0,0,0,0,0,0,0,0,0,0,0,0,0,0,0,0,0,0,0,0,0,0,0,0,0,0,0,0,0,0,0,-0.0464,-0.1008,-0.1016,-0.0659,-0.0374,0,0,0,0,0,0,0,0,0,0,0,0,0,0,0,0,0,0,0,0,0,0,0,0,0,0,0,0,0,0,0,0,0,0,0,0,0,0,0,0,0,0,-0.0489,-0.1192,-0.1338,-0.1035,-0.0805,0,0,0,0,0,0,0,0,0,0,0,0,0,0,0,0,0,0,0,0,0,0,0,0,0,0,0,0,0,0,0,0,0,0,0,0,0,0,0,0,0,0,-0.0107,-0.0459,-0.0843,-0.0923,-0.0862,0,0,0,0,0,0,0,0,0,0,0,0,0,0,0,0,0,0,0,0,0,0,0,0,0,0,0,0,0,0,0,0,0,0,0,0,0,0,0,0,0,0,-0.0569,-0.0162,-0.0214,-0.0467,-0.0621,0,0,0,0,0,0,0,0,0,0,0,0,0,0,0,0,0,0,0,0,0,0,0,0,0,0,-0.045,-0.0898,0,0,0,0,0,0,0,0,0,0,0,0,0,-0.039,-0.061,-0.0283,-0.0214,-0.0327,-0.0352,0,0,0,0,0,0,0,0,0,0,0,0,0,0,0,0,0,0,0,0,0,0,-0.0319,-0.0827,-0.1107,-0.0676,-0.0003,0.0146,0,0,0,0,0,0,0,0,0,0,0,0,0,-0.0319,-0.0494,-0.0321,-0.0437,-0.0489,-0.025,-0.0102,0,0,0,0,0,0,0,0,0,0,0,0,0,0,0,0,0,0,0,0,-0.0596,-0.0898,-0.0415,-0.0228,0,0,0,0,0,0,0,0,0.0077,0.0107,0.006,0,0,0,0,0,-0.025,-0.0346,-0.0291,-0.0596,-0.0722,-0.0519,-0.0461,-0.0461,0,0,0,0,0,0,0,0,0,0,0,0,0,0,0,0,0,0,-0.1332,-0.1711,0,0,0,0,0,0,0,0.008,0,0.0041,0.0088,0.0005,-0.0162,-0.0244,0,0,0,0,0,-0.0343,-0.0478,-0.0244,-0.0453,-0.0777,-0.0678,-0.0398,-0.0335,-0.0374,0,0,0,0,0,0,0,0,0,0,0,0,0,0,0,0,-0.0742,-0.0478,0,0,0.0099,0.0115,0.0102,0.0096,0.0146,0.0261,0.0217,0.0099,-0.0063,-0.0173,-0.0255,-0.0343,-0.0439,-0.0648,-0.0728,-0.1077,-0.1719,-0.2038,-0.1035,-0.0179,-0.0453,-0.0604,-0.0909,-0.0978,-0.0742,-0.0547,-0.045,-0.0409,0,0,0,0,0,0,0,0,0,0,0,0,0.006,0.0071,-0.0228,-0.0527,-0.0363,0.0,0.0195,0.0253,0.0261,0.0266,0.0261,0.0222,0.0082,-0.0036,-0.0272,-0.0157,-0.0113,-0.0168,-0.0428,-0.0374,0.006,0.0113,-0.0027,0,0,0,-0.0423,-0.1511,-0.1958,-0.1557,-0.1085,-0.0571,-0.0165,0.0038,0.006,0,0,0,0,0,0,0,0.0074,0.0261,0.0393,0.0417,0.0434,0.0396,0.0291,0.0217,0.0121,0.003,0.006,0.0135,0.019,0.0214,0.0187,0.0096,0.0011,0.0,0.0019,-0.0137,0.0176,0.0203,0.0137,0.0137,0,0,-0.0049,-0.0071,-0.0291,-0.0626,-0.1445,-0.0816,0.0544,0,0,0,0,0,0,0,0,0.0063,0.0176,0.0264,0.0324,0.0374,0.0439,0.0456,0.0442,0.0475,0.05,0.0497,0.047,0.0431,0.0426,0.0442,0.0401,0.0264,0.0113,0.0047,0.0027,0.0014,0.0052,0.0113,0.0137,0.011,0,0,0.0011,0.0049,0.014,0.0121,-0.0027,0.0049,0.0173,-0.0003,-0.0179,-0.019,0,0.0563,0.0926,0.0632,0.0459,0.031,0.0192,0.0132,0.0148,0.022,0.0255,0.0255,0.0286,0.0335,0.039,0.0445,0.0497,0.0541,0.0563,0.0571,0.0602,0.0651,0.0676,0.0662,0.0585,0.0415,0.0258,0.0184,0.0143,0.0115,0.0099,0.0093,0.0085,0.0058,0.0019,0.0299,0.0275,0.0294,0.0297,0.0302,0.0261,0.0198,0.0231,0.0286,0.0316,0.0341,0.0442,0.0327,0.0371,0.0618,0.0607,0.0533,0.0393,0.0266,0.0203,0.0198,0.022,0.0255,0.0288,0.0316,0.0352,0.0404,0.0497,0.0629,0.0731,0.0772,0.0772,0.0764,0.0742,0.0654,0.0481,0.028,0.0159,0.0124,0.0085,0.0027,-0.003,-0.0066,-0.0096,-0.0209,-0.0387,-0.0525,0.0294,0.0321,0.0371,0.0431,0.047,0.0492,0.0497,0.0503,0.0519,0.0549,0.0574,0.0585,0.0558,0.0566,0.0607,0.0607,0.0591,0.0522,0.0409,0.0327,0.0297,0.0302,0.0321,0.0341,0.0368,0.042,0.0519,0.0604,0.0604,0.0563,0.0525,0.0483,0.0409,0.0324,0.0242,0.0159,0.0077,0.0016,-0.0025,-0.0071,-0.0143,-0.0247,-0.031,-0.0489,-0.0602,-0.0393,-0.0165,0.0415,0.0475,0.0519,0.0558,0.0588,0.0618,0.064,0.0654,0.067,0.0695,0.0722,0.0736,0.0725,0.0706,0.0667,0.0615,0.0591,0.058,0.0536,0.0472,0.042,0.0393,0.039,0.0407,0.0461,0.0558,0.0607,0.0555,0.05,0.0464,0.0407,0.0343,0.0269,0.0146,-0.0019,-0.0137,-0.0151,-0.0129,-0.0244,-0.0423,-0.0717,-0.0898,-0.0703,-0.0288,0.0044,-0.0005,-0.0192,0.0434,0.0544,0.0643,0.0725,0.0775,0.0775,0.0736,0.067,0.0615,0.0607,0.0629,0.064,0.0621,0.0591,0.0577,0.0558,0.0522,0.0511,0.0519,0.0519,0.0508,0.0503,0.0536,0.0613,0.0676,0.0703,0.0711,0.0692,0.0654,0.056,0.0407,0.0211,0.0,-0.0203,-0.033,-0.0354,-0.0404,-0.0722,-0.1121,-0.1123,-0.07,-0.0404,-0.0181,-0.0302,-0.0692,-0.064,-0.053,0.047,0.064,0.0703,0.0676,0.0621,0.0544,0.047,0.042,0.0404,0.042,0.0431,0.0404,0.0354,0.0308,0.0299,0.0321,0.0365,0.042,0.0448,0.0475,0.0516,0.0602,0.072,0.0791,0.0816,0.0788,0.0703,0.0552,0.0365,0.0179,0.0005,-0.0181,-0.0371,-0.053,-0.0643,-0.0835,-0.1167,-0.1203,-0.0959,-0.0722,-0.05,-0.0637,-0.0948,-0.0923,-0.0876,-0.1014,-0.1134,0.0459,0.0481,0.0374,0.0195,0.0041,0.0008,0.0066,0.0146,0.0222,0.0299,0.0401,0.0489,0.0505,0.0453,0.0357,0.0266,0.0211,0.0222,0.0299,0.0371,0.0431,0.0519,0.0607,0.0645,0.0618,0.047,0.0176,-0.014,-0.0321,-0.0387,-0.0434,-0.0511,-0.0602,-0.0665,-0.0939,-0.1261,-0.1302,-0.1115,-0.0851,-0.0882,-0.111,-0.1107,-0.1088,-0.1222,-0.1384,-0.1571,-0.175,0.0283,0.0137,-0.0118,-0.0368,-0.0442,-0.036,-0.0214,-0.0063,0.0049,0.0129,0.0187,0.0239,0.0277,0.0308,0.0302,0.0242,0.0184,0.017,0.0154,0.0126,0.0173,0.0272,0.0349,0.0302,0.006,-0.0253,-0.0514,-0.0714,-0.0788,-0.0709,-0.0621,-0.0613,-0.0678,-0.0945,-0.1362,-0.1445,-0.1313,-0.1283,-0.1239,-0.1162,-0.1225,-0.1401,-0.1618,-0.1931,-0.2219,-0.2475,-0.2683,0.0077,-0.0195,-0.0467,-0.0536,-0.0365,-0.0099,0.0129,0.0319,0.047,0.058,0.064,0.0643,0.0607,0.0552,0.0492,0.0407,0.031,0.0239,0.0209,0.0203,0.0236,0.0206,0.0041,-0.0162,-0.0387,-0.0621,-0.081,-0.0926,-0.089,-0.0703,-0.0593,-0.0626,-0.0975,-0.1566,-0.1728,-0.1601,-0.1464,-0.1305,-0.1362,-0.1588,-0.1884,-0.2222,-0.253,-0.2862,-0.3252,-0.3601,-0.3859,-0.0102,-0.0349,-0.0404,-0.0211,0.006,0.0253,0.0379,0.0489,0.0604,0.0744,0.0909,0.1071,0.1192,0.1214,0.1167,0.1085,0.0909,0.0703,0.0585,0.0519,0.0409,0.0203,-0.0052,-0.0277,-0.0483,-0.0662,-0.0783,-0.0832,-0.0706,-0.0516,-0.0505,-0.1008,-0.1766,-0.1997,-0.1827,-0.1653,-0.1577,-0.1695,-0.2027,-0.2417,-0.2763,-0.3109,-0.3491,-0.3914,-0.4364,-0.4735,-0.4936,-0.0236,-0.0409,-0.0203,0.0143,0.0288,0.025,0.0187,0.0225,0.0371,0.0577,0.0794,0.0992,0.1162,0.1302,0.1379,0.1379,0.1291,0.1148,0.0983,0.0824,0.0665,0.0453,0.0126,-0.0198,-0.0382,-0.0478,-0.0497,-0.0483,-0.0459,-0.0453,-0.1038,-0.1903,-0.2162,-0.2027,-0.1873,-0.1892,-0.2115,-0.2458,-0.2881,-0.3312,-0.3705,-0.4079,-0.4469,-0.4873,-0.5221,-0.5449,-0.5548,-0.0365,-0.019,0.0184,0.0253,0.0019,-0.0231,-0.0319,-0.0231,-0.0036,0.0209,0.0437,0.0623,0.0788,0.095,0.1088,0.1176,0.1181,0.109,0.0945,0.0819,0.0709,0.0538,0.0222,-0.0137,-0.0338,-0.0371,-0.0247,-0.0124,-0.0299,-0.1052,-0.1928,-0.223,-0.214,-0.2076,-0.2181,-0.2431,-0.2802,-0.3255,-0.3735,-0.4208,-0.462,-0.493,-0.5161,-0.5367,-0.5589,-0.5757,-0.5806,-0.0211,0.0151,0.0151,-0.0168,-0.0448,-0.0607,-0.0571,-0.0385,-0.0154,0.0049,0.0184,0.0255,0.0313,0.0398,0.0494,0.0574,0.0618,0.0621,0.0596,0.0574,0.0533,0.0417,0.014,-0.0209,-0.0376,-0.0297,-0.003,-0.0008,-0.0777,-0.1783,-0.2206,-0.2164,-0.2109,-0.2315,-0.2686,-0.309,-0.3524,-0.3969,-0.4428,-0.4853,-0.5191,-0.5414,-0.5532,-0.562,-0.5705,-0.5752,-0.5708,0.0135,0.0173,-0.0066,-0.0286,-0.0371,-0.0313,-0.0157,0.0005,0.0143,0.0247,0.0288,0.0266,0.022,0.0195,0.0209,0.0236,0.0272,0.0338,0.0417,0.0461,0.0431,0.0302,0.003,-0.028,-0.0404,-0.0179,0.0118,-0.0382,-0.1412,-0.2049,-0.2123,-0.2013,-0.2255,-0.2738,-0.3192,-0.3598,-0.3988,-0.4364,-0.4722,-0.5048,-0.5304,-0.5458,-0.5529,-0.5513,-0.5436,-0.5367,-0.5342]},{"header":{"parameterUnit":"m.s-1","parameterCategory":2,"la1":30.8641,"la2":29.7642,"lo1":-88.4676,"lo2":-86.9344,"dy":0.0333,"dx":0.0333,"nx":47,"ny":34,"refTime":"2023-09-07T00:00:00:Z","depth":"2","parameterNumber":3,"parameterNumberName":"V-component_of_CURRENTS"},"data":[0,0,0,0,0,0,0,0,0,0,0,0,0,0,0,0,0,0,0,0,0,0,0,0,0,0,0,0,0,0,0,0,0,0,0,0,0,0,0,0,0,0,0,0,0,0,0,0,0,0,0,0,0,0,0,0,0,0,0,0,0,0,0,0,0,0,0,0,0,0,0,0,0,0,0,0,0,0,0,0,0,0,0,0,0,0,0,0,0,0,0,0,0,0,0,0,0,0,0,0,0,0,0,0,0,0,0,0,0,0,0,0,0,0,0,0,0,0,0,0,0,0,0,0,0,0,0,0,0,0,0,0,0,0,0,0,0,0,0,0,0,0,0,0,0,0,0,0,0,0,0,0,0,0,0,0,0,0,0,0,0,0,0,0,0,0,0,0,0,0,0,0,0,0,0,0,0,0,0,0,0,0,0,0,0,0,0,0,0,0,0,0,0,0,0,0,0,0,0,0,0,0,0,0,0,0,0,0,0,0,0,0,0,0,0,0,0,0,0,0,0,0,0,0,0,0,0,0,0,0,0,0,0,0,0,0,0,0,0,0,0,0,0,0,0,0,0,0,0,0,0,0,0,0,0,0,0,0,0,0,0,0,0,0,0,0,0,0,0,0,0,0,0,0,0,0,0,0,0,0,0,0,0,0,0,0,0,0,0,0,0,0,0,0,0,0,-0.0313,-0.0599,0,0,0,0,0,0,0,0,0,0,0,0,0,0,0,0,0,0,0,0,0,0,0,0,0,0,0,0,0,0,0,0,0,0,0,0,0,0,0,0,0,0,0,0,-0.0025,-0.0302,-0.0967,-0.0494,0,0,0,0,0,0,0,0,0,0,0,0,0,0,0,0,0,0,0,0,0,0,0,0,0,0,0,0,0,0,0,0,0,0,0,0,0,0,0,0,0,0,0,-0.0486,-0.0541,-0.1302,-0.0415,0,0,0,0,0,0,0,0,0,0,0,0,0,0,0,0,0,0,0,0,0,0,0,0,0,0,0,0,0,0,0,0,0,0,0,0,0,0,0,0,0,0,-0.078,-0.1041,-0.0901,-0.1085,-0.0514,0,0,0,0,0,0,0,0,0,0,0,0,0,0,0,0,0,0,0,0,0,0,0,0,0,0,0,0,0,0,0,0,0,0,0,0,0,0,0,0,0,0,-0.1272,-0.128,-0.0829,-0.0566,-0.0755,0,0,0,0,0,0,0,0,0,0,0,0,0,0,0,0,0,0,0,0,0,0,0,0,0,0,0,0,0,0,0,0,0,0,0,0,0,0,0,0,0,0,-0.2159,-0.1637,-0.0305,-0.0052,-0.0794,0,0,0,0,0,0,0,0,0,0,0,0,0,0,0,0,0,0,0,0,0,0,0,0,0,0,0,0,0,0,0,0,0,0,0,0,0,0,0,0,0,0,-0.2439,-0.1829,0.0077,0.0019,-0.0777,0,0,0,0,0,0,0,0,0,0,0,0,0,0,0,0,0,0,0,0,0,0,0,0,0,0,-0.0656,0.0711,0,0,0,0,0,0,0,0,0,0,0,0,0,-0.0953,-0.2206,-0.1541,0.0179,-0.0124,-0.0747,0,0,0,0,0,0,0,0,0,0,0,0,0,0,0,0,0,0,0,0,0,0,-0.07,-0.0255,0.0,0.0,-0.033,0.0357,0,0,0,0,0,0,0,0,0,0,0,0,0,-0.1511,-0.2002,-0.1162,0.0179,-0.0066,-0.0593,-0.0214,0,0,0,0,0,0,0,0,0,0,0,0,0,0,0,0,0,0,0,0,-0.1222,-0.0349,-0.0129,0.0,0,0,0,0,0,0,0,0,0.0124,-0.0206,-0.0508,0,0,0,0,0,-0.2038,-0.189,-0.1104,-0.0049,0.0019,-0.0453,-0.025,0.0016,0,0,0,0,0,0,0,0,0,0,0,0,0,0,0,0,0,0,-0.0926,-0.061,0,0,0,0,0,0,0,0.0102,0,0.0038,-0.006,0.003,-0.0319,-0.0541,0,0,0,0,0,-0.2546,-0.1785,-0.1332,-0.0519,-0.0093,-0.0396,-0.0357,-0.0151,-0.0135,0,0,0,0,0,0,0,0,0,0,0,0,0,0,0,0,-0.0873,-0.0904,0,0,-0.0003,-0.0052,-0.0058,-0.003,0.0038,0.0085,-0.0041,-0.0283,-0.0074,-0.0104,-0.0107,-0.0409,-0.0494,-0.0135,-0.0302,-0.0994,0.0,0.0,-0.142,-0.2318,-0.175,-0.0895,-0.0316,-0.0387,-0.036,-0.0195,-0.0099,0.0396,0,0,0,0,0,0,0,0,0,0,0,0,0.008,-0.0066,-0.0571,-0.056,-0.0577,-0.0022,-0.0005,-0.0077,-0.0115,-0.0118,-0.0104,-0.006,-0.0036,-0.0176,-0.0288,-0.0181,-0.0069,-0.0173,-0.0382,-0.0206,-0.0066,-0.0343,-0.0821,0,0,0,-0.3376,-0.212,-0.0492,-0.022,-0.0206,-0.0146,-0.0036,0.0008,0.0198,0,0,0,0,0,0,0,0.0148,-0.0041,0.0014,-0.0014,-0.0041,0.0,-0.0126,-0.0448,-0.0459,-0.0277,-0.0047,-0.0049,-0.0143,-0.0179,-0.0195,-0.0195,-0.0159,-0.0124,-0.014,-0.0148,-0.0088,-0.0058,-0.0198,-0.0385,0,0,-0.0426,-0.0673,-0.0739,-0.0939,-0.1272,-0.1912,-0.2785,0,0,0,0,0,0,0,0,0.0104,0.0066,0.0033,0.0025,0.0036,0.0063,0.0154,0.0071,0.0027,-0.0008,-0.0052,-0.011,-0.0201,-0.0313,-0.0365,-0.0319,-0.0135,-0.0091,-0.0107,-0.0159,-0.0209,-0.0187,-0.0159,-0.0137,-0.0206,0,0,-0.014,-0.0179,-0.0308,-0.0104,-0.0063,-0.0404,-0.0574,-0.0651,-0.0813,-0.1112,0,-0.2304,-0.0338,-0.0165,-0.0201,-0.0201,-0.0165,-0.0071,0.0014,0.0049,0.0071,0.0055,0.0047,0.0055,0.0069,0.0096,0.0115,0.0085,0.0036,-0.0005,-0.0058,-0.0165,-0.0272,-0.036,-0.0412,-0.0385,-0.0228,-0.0121,-0.0096,-0.0151,-0.0222,-0.0225,-0.0244,-0.028,-0.0368,-0.0082,-0.011,-0.0151,-0.0159,-0.0179,-0.0113,-0.0091,-0.0275,-0.0401,-0.0519,-0.0637,-0.0794,-0.0431,-0.0915,-0.031,-0.0187,-0.0272,-0.0291,-0.0222,-0.0099,0.0003,0.0044,0.0038,0.0041,0.006,0.0096,0.0129,0.0132,0.0088,0.0025,-0.0058,-0.0115,-0.0154,-0.0264,-0.0396,-0.0503,-0.0525,-0.0415,-0.0255,-0.019,-0.0209,-0.0228,-0.0332,-0.0412,-0.0266,-0.0157,-0.0231,-0.0052,-0.0074,-0.0102,-0.0118,-0.011,-0.0107,-0.0126,-0.0217,-0.0346,-0.0464,-0.056,-0.0588,-0.0442,-0.0461,-0.0275,-0.0225,-0.0354,-0.042,-0.0327,-0.0157,-0.0025,0.0025,0.0027,0.003,0.0066,0.0132,0.0151,0.0107,0.0038,-0.0041,-0.0135,-0.0206,-0.0261,-0.0349,-0.0478,-0.0558,-0.056,-0.0448,-0.0376,-0.0404,-0.0434,-0.0261,-0.0233,-0.0217,-0.0176,-0.0236,-0.0324,0.0008,-0.0016,-0.0038,-0.0063,-0.008,-0.0104,-0.0159,-0.0261,-0.0385,-0.05,-0.0571,-0.0571,-0.0497,-0.0434,-0.0341,-0.0299,-0.0379,-0.0448,-0.0371,-0.0203,-0.0066,-0.0005,0.0005,0.003,0.0096,0.0157,0.0148,0.0118,0.0055,-0.006,-0.0154,-0.0231,-0.0327,-0.0437,-0.0574,-0.0604,-0.0632,-0.0632,-0.0634,-0.0423,-0.0082,0.0008,0.0038,-0.0179,-0.0242,-0.0253,-0.0302,0.008,0.0041,0.0008,-0.0033,-0.0085,-0.0143,-0.0222,-0.0305,-0.0393,-0.0481,-0.0547,-0.0569,-0.0547,-0.0508,-0.047,-0.0475,-0.0456,-0.0417,-0.0349,-0.0214,-0.0093,-0.003,0.0005,0.0055,0.0146,0.0203,0.019,0.0151,0.0033,-0.0151,-0.0291,-0.0398,-0.0503,-0.0613,-0.0725,-0.0761,-0.0854,-0.0632,-0.0401,0.0071,0.033,0.0005,-0.0069,-0.0096,-0.0135,-0.0063,-0.011,0.0198,0.011,0.0038,-0.0022,-0.0088,-0.0146,-0.0211,-0.0269,-0.0324,-0.0393,-0.0464,-0.0522,-0.0541,-0.0511,-0.0481,-0.0533,-0.0525,-0.0453,-0.0341,-0.0198,-0.0093,-0.0011,0.0047,0.0151,0.0247,0.0253,0.0173,0.0008,-0.0192,-0.0404,-0.0536,-0.0634,-0.0706,-0.0761,-0.0879,-0.0923,-0.0706,-0.017,0.008,0.0115,0.0036,-0.0036,-0.0071,0.0104,-0.0008,-0.0162,-0.0261,0.0302,0.0124,-0.0019,-0.0091,-0.0129,-0.0135,-0.017,-0.0203,-0.0239,-0.0297,-0.0368,-0.045,-0.0516,-0.0533,-0.0481,-0.0483,-0.0516,-0.047,-0.0324,-0.0195,-0.008,0.0085,0.022,0.0283,0.0228,0.0055,-0.0113,-0.0319,-0.0516,-0.0681,-0.0739,-0.0761,-0.0766,-0.0912,-0.0986,-0.0695,-0.0247,-0.0003,0.0047,-0.0074,-0.0088,0.0058,-0.0016,-0.0146,-0.0129,-0.0187,-0.0288,0.028,-0.003,-0.0291,-0.0319,-0.0159,-0.008,-0.0115,-0.0148,-0.0179,-0.022,-0.028,-0.0371,-0.0467,-0.0555,-0.0569,-0.0552,-0.0514,-0.0415,-0.0299,-0.019,0.0008,0.0275,0.0357,0.0168,-0.0082,-0.0264,-0.0396,-0.053,-0.0678,-0.0769,-0.0747,-0.0706,-0.0887,-0.1063,-0.078,-0.0379,-0.0168,-0.0209,-0.0184,-0.008,-0.006,-0.011,-0.014,-0.0211,-0.0233,-0.028,-0.0335,0.0055,-0.036,-0.0555,-0.0286,0.0176,0.028,0.022,0.0121,0.0003,-0.0102,-0.0222,-0.0343,-0.0459,-0.0544,-0.0591,-0.0623,-0.0552,-0.0407,-0.0294,-0.0165,0.008,0.0297,0.0225,-0.0126,-0.0404,-0.0442,-0.0439,-0.0508,-0.0632,-0.0654,-0.0618,-0.0829,-0.1049,-0.0882,-0.0563,-0.0461,-0.0415,-0.0374,-0.0316,-0.0209,-0.0121,-0.0129,-0.0129,-0.0192,-0.0275,-0.0308,-0.0269,-0.0297,-0.0596,-0.0371,0.0308,0.0654,0.0591,0.0461,0.0338,0.0211,0.0091,-0.006,-0.0228,-0.0404,-0.0555,-0.0676,-0.0744,-0.0648,-0.0442,-0.0302,-0.0181,-0.0014,0.008,-0.0025,-0.0338,-0.0549,-0.0511,-0.0363,-0.033,-0.0442,-0.0558,-0.081,-0.1052,-0.0956,-0.0747,-0.0777,-0.0786,-0.0698,-0.05,-0.031,-0.0157,-0.0049,-0.0022,-0.0055,-0.008,-0.0096,-0.0055,0.0052,-0.0558,-0.0396,0.0286,0.0689,0.0577,0.0357,0.0225,0.0184,0.0168,0.0129,0.0025,-0.0157,-0.0385,-0.0623,-0.0821,-0.0901,-0.081,-0.0604,-0.0437,-0.0272,-0.0146,-0.0146,-0.028,-0.0527,-0.0651,-0.0574,-0.0354,-0.0228,-0.0412,-0.0829,-0.109,-0.1063,-0.0997,-0.1104,-0.12,-0.1101,-0.0854,-0.056,-0.0308,-0.0135,-0.0019,0.0077,0.0143,0.0209,0.028,0.036,0.0448,-0.0464,0.0228,0.0728,0.0525,0.0239,0.0118,0.0159,0.0324,0.0417,0.0401,0.0253,0.0,-0.0305,-0.0613,-0.0851,-0.0983,-0.097,-0.0824,-0.0634,-0.0437,-0.0335,-0.0368,-0.0514,-0.0703,-0.0761,-0.0659,-0.0514,-0.0522,-0.0797,-0.1121,-0.117,-0.1241,-0.1464,-0.1653,-0.156,-0.1263,-0.0926,-0.0604,-0.0343,-0.0159,-0.0016,0.014,0.0319,0.05,0.0626,0.0689,0.0725,0.006,0.0788,0.0676,0.0352,0.0233,0.042,0.0739,0.1049,0.1184,0.1126,0.0912,0.0604,0.0247,-0.0135,-0.0478,-0.0714,-0.0788,-0.0736,-0.0591,-0.0464,-0.0398,-0.0398,-0.0547,-0.075,-0.0786,-0.0725,-0.0846,-0.1085,-0.1181,-0.1263,-0.1426,-0.1741,-0.2065,-0.2016,-0.1667,-0.1252,-0.0857,-0.0492,-0.0203,-0.0003,0.0148,0.0305,0.0497,0.07,0.0819,0.0829,0.0832,0.0731,0.0959,0.0593,0.042,0.0571,0.0994,0.139,0.1615,0.1681,0.1577,0.1349,0.1066,0.0775,0.0459,0.0151,-0.0099,-0.0233,-0.0294,-0.031,-0.0313,-0.0239,-0.0222,-0.0407,-0.0621,-0.07,-0.0865,-0.1332,-0.142,-0.1398,-0.156,-0.1925,-0.2392,-0.2477,-0.2123,-0.1675,-0.125,-0.0846,-0.0486,-0.0187,0.0058,0.0269,0.045,0.0604,0.0722,0.0786,0.0794,0.0829]}],[{"header":{"parameterUnit":"m.s-1","parameterCategory":2,"la1":30.8641,"la2":29.7642,"lo1":-88.4676,"lo2":-86.9344,"dy":0.0333,"dx":0.0333,"nx":47,"ny":34,"refTime":"2023-09-07T00:00:00:Z","depth":"4","parameterNumber":2,"parameterNumberName":"U-component_of_CURRENTS"},"data":[0,0,0,0,0,0,0,0,0,0,0,0,0,0,0,0,0,0,0,0,0,0,0,0,0,0,0,0,0,0,0,0,0,0,0,0,0,0,0,0,0,0,0,0,0,0,0,0,0,0,0,0,0,0,0,0,0,0,0,0,0,0,0,0,0,0,0,0,0,0,0,0,0,0,0,0,0,0,0,0,0,0,0,0,0,0,0,0,0,0,0,0,0,0,0,0,0,0,0,0,0,0,0,0,0,0,0,0,0,0,0,0,0,0,0,0,0,0,0,0,0,0,0,0,0,0,0,0,0,0,0,0,0,0,0,0,0,0,0,0,0,0,0,0,0,0,0,0,0,0,0,0,0,0,0,0,0,0,0,0,0,0,0,0,0,0,0,0,0,0,0,0,0,0,0,0,0,0,0,0,0,0,0,0,0,0,0,0,0,0,0,0,0,0,0,0,0,0,0,0,0,0,0,0,0,0,0,0,0,0,0,0,0,0,0,0,0,0,0,0,0,0,0,0,0,0,0,0,0,0,0,0,0,0,0,0,0,0,0,0,0,0,0,0,0,0,0,0,0,0,0,0,0,0,0,0,0,0,0,0,0,0,0,0,0,0,0,0,0,0,0,0,0,0,0,0,0,0,0,0,0,0,0,0,0,0,0,0,0,0,0,0,0,0,0,0,-0.0033,-0.0066,0,0,0,0,0,0,0,0,0,0,0,0,0,0,0,0,0,0,0,0,0,0,0,0,0,0,0,0,0,0,0,0,0,0,0,0,0,0,0,0,0,0,0,0,-0.0121,-0.014,-0.0162,-0.0286,0,0,0,0,0,0,0,0,0,0,0,0,0,0,0,0,0,0,0,0,0,0,0,0,0,0,0,0,0,0,0,0,0,0,0,0,0,0,0,0,0,0,0,0.008,0.011,0.0014,-0.0025,0,0,0,0,0,0,0,0,0,0,0,0,0,0,0,0,0,0,0,0,0,0,0,0,0,0,0,0,0,0,0,0,0,0,0,0,0,0,0,0,0,0,-0.0338,-0.0423,-0.0236,-0.0126,0.0044,0,0,0,0,0,0,0,0,0,0,0,0,0,0,0,0,0,0,0,0,0,0,0,0,0,0,0,0,0,0,0,0,0,0,0,0,0,0,0,0,0,0,-0.0428,-0.0994,-0.0989,-0.0508,-0.0168,0,0,0,0,0,0,0,0,0,0,0,0,0,0,0,0,0,0,0,0,0,0,0,0,0,0,0,0,0,0,0,0,0,0,0,0,0,0,0,0,0,0,-0.0242,-0.0552,-0.0648,-0.0437,-0.0206,0,0,0,0,0,0,0,0,0,0,0,0,0,0,0,0,0,0,0,0,0,0,0,0,0,0,0,0,0,0,0,0,0,0,0,0,0,0,0,0,0,0,-0.0483,-0.0214,-0.0093,-0.0088,-0.0071,0,0,0,0,0,0,0,0,0,0,0,0,0,0,0,0,0,0,0,0,0,0,0,0,0,0,-0.0437,-0.0871,0,0,0,0,0,0,0,0,0,0,0,0,0,-0.0343,-0.0577,-0.028,-0.0162,-0.0091,0.0044,0,0,0,0,0,0,0,0,0,0,0,0,0,0,0,0,0,0,0,0,0,0,-0.0305,-0.0621,-0.047,-0.0203,0.0036,0.0173,0,0,0,0,0,0,0,0,0,0,0,0,0,-0.0269,-0.045,-0.031,-0.0401,-0.0409,-0.0165,-0.0047,0,0,0,0,0,0,0,0,0,0,0,0,0,0,0,0,0,0,0,0,-0.0527,-0.0761,-0.0335,-0.0209,0,0,0,0,0,0,0,0,0.008,0.0113,0.0069,0,0,0,0,0,-0.0195,-0.0288,-0.0275,-0.0563,-0.0689,-0.05,-0.0445,-0.0437,0,0,0,0,0,0,0,0,0,0,0,0,0,0,0,0,0,0,-0.0439,-0.0492,0,0,0,0,0,0,0,0.0082,0,0.0041,0.0088,0.0033,-0.0102,-0.017,0,0,0,0,0,-0.0176,-0.0082,0.0055,-0.0332,-0.0684,-0.0626,-0.0332,-0.0102,-0.0014,0,0,0,0,0,0,0,0,0,0,0,0,0,0,0,0,-0.0146,0.008,0,0,0.0107,0.0124,0.011,0.0107,0.0154,0.0269,0.0225,0.0102,-0.0063,-0.017,-0.0236,-0.0302,-0.0379,-0.0396,-0.0236,-0.0222,-0.0225,-0.058,-0.0008,0.0637,0.008,-0.0264,-0.0511,-0.07,-0.0654,-0.0445,-0.036,-0.0382,0,0,0,0,0,0,0,0,0,0,0,0,0.0063,0.0107,-0.008,-0.0253,-0.0151,0.0036,0.0206,0.0261,0.0272,0.0277,0.0272,0.0236,0.0093,-0.0025,-0.0266,-0.0154,-0.0113,-0.0157,-0.0371,-0.0291,0.0102,0.0198,0.0124,0,0,0,-0.0308,-0.1137,-0.1431,-0.0964,-0.064,-0.0448,-0.0143,0.0055,0.0077,0,0,0,0,0,0,0,0.0077,0.0266,0.0396,0.042,0.0437,0.0398,0.0297,0.0225,0.0132,0.0041,0.0071,0.0148,0.0203,0.0228,0.0201,0.0113,0.0025,0.0011,0.0033,-0.0137,0.017,0.0201,0.014,0.0137,0,0,-0.0036,0.0058,0.014,-0.0066,-0.0747,-0.0299,0.0709,0,0,0,0,0,0,0,0,0.0069,0.0184,0.0269,0.033,0.0376,0.0445,0.0461,0.0448,0.0478,0.0505,0.0503,0.0475,0.0439,0.0434,0.0453,0.0415,0.0277,0.0126,0.006,0.0041,0.0027,0.0066,0.0126,0.0151,0.0124,0,0,0.0014,0.0055,0.0143,0.0135,-0.0005,0.0093,0.0255,0.0184,0.0033,-0.0008,0,0.056,0.0923,0.0632,0.0467,0.0324,0.0206,0.0146,0.0159,0.0231,0.0266,0.0264,0.0294,0.0343,0.0398,0.045,0.05,0.0544,0.0569,0.0577,0.061,0.0662,0.0684,0.0673,0.0596,0.0428,0.0272,0.0198,0.0154,0.0129,0.0113,0.011,0.0102,0.0074,0.0036,0.031,0.0286,0.0302,0.0302,0.0308,0.0269,0.0211,0.0239,0.0291,0.0319,0.0343,0.0445,0.0332,0.0376,0.0621,0.0607,0.0536,0.0401,0.028,0.022,0.0211,0.0233,0.0266,0.0299,0.0327,0.036,0.0412,0.0505,0.0634,0.0736,0.078,0.078,0.0775,0.0755,0.0667,0.0494,0.0294,0.0173,0.0137,0.0096,0.0041,-0.0014,-0.0047,-0.008,-0.0195,-0.0374,-0.0511,0.0302,0.033,0.0379,0.0437,0.0475,0.0497,0.0503,0.0505,0.0522,0.0552,0.0577,0.0588,0.0563,0.0571,0.061,0.0607,0.0588,0.0525,0.042,0.0343,0.0313,0.0316,0.0332,0.0352,0.0379,0.0428,0.053,0.0613,0.0613,0.0571,0.0533,0.0492,0.042,0.0335,0.0255,0.0173,0.0091,0.003,-0.0011,-0.0058,-0.0124,-0.0228,-0.0294,-0.0472,-0.0582,-0.0374,-0.0146,0.042,0.0481,0.0525,0.0563,0.0593,0.0623,0.0645,0.0659,0.0676,0.07,0.0728,0.0742,0.0733,0.0711,0.0673,0.0615,0.0585,0.0577,0.0541,0.0483,0.0434,0.0407,0.0401,0.0417,0.0472,0.0569,0.0618,0.0566,0.0511,0.0472,0.0415,0.0352,0.028,0.0157,-0.0005,-0.0124,-0.014,-0.0115,-0.0231,-0.0409,-0.0703,-0.0882,-0.0684,-0.0266,0.0066,0.0011,-0.0179,0.0439,0.0547,0.0645,0.0728,0.078,0.078,0.0744,0.0678,0.0621,0.0613,0.0634,0.0648,0.0629,0.0599,0.0582,0.0563,0.0525,0.0511,0.0522,0.0525,0.0516,0.0514,0.0544,0.0623,0.0687,0.0717,0.0722,0.0703,0.0665,0.0569,0.0412,0.022,0.0008,-0.019,-0.0316,-0.0341,-0.0393,-0.0709,-0.1104,-0.1107,-0.0681,-0.0385,-0.0162,-0.0283,-0.0676,-0.0623,-0.0514,0.0475,0.0645,0.0706,0.0681,0.0623,0.0549,0.0475,0.0428,0.0412,0.0426,0.0437,0.0409,0.036,0.0313,0.0305,0.0327,0.0371,0.0423,0.045,0.0481,0.0522,0.061,0.0728,0.0802,0.0827,0.0799,0.0711,0.0563,0.0374,0.019,0.0014,-0.017,-0.036,-0.0519,-0.0629,-0.0821,-0.1151,-0.1187,-0.0942,-0.0706,-0.0486,-0.0626,-0.0934,-0.0906,-0.0857,-0.1,-0.1121,0.0461,0.0486,0.0376,0.0198,0.0047,0.0014,0.0071,0.0151,0.0228,0.0305,0.0409,0.0494,0.0511,0.0459,0.0363,0.0269,0.0214,0.0225,0.0302,0.0376,0.0439,0.0527,0.0615,0.0656,0.0629,0.0481,0.0184,-0.0132,-0.0313,-0.0379,-0.0426,-0.0503,-0.0591,-0.0651,-0.0923,-0.1244,-0.1288,-0.1101,-0.084,-0.0871,-0.1096,-0.1093,-0.1071,-0.1206,-0.1368,-0.1557,-0.1736,0.0286,0.014,-0.0113,-0.0363,-0.0437,-0.0354,-0.0209,-0.0058,0.0055,0.0132,0.019,0.0244,0.0283,0.031,0.0308,0.0244,0.0187,0.0173,0.0159,0.0132,0.0179,0.0283,0.0357,0.031,0.0066,-0.025,-0.0508,-0.0709,-0.0783,-0.0703,-0.0613,-0.0604,-0.0665,-0.0928,-0.1346,-0.1431,-0.1302,-0.1274,-0.1228,-0.1148,-0.1211,-0.1387,-0.1604,-0.1917,-0.2206,-0.2461,-0.2672,0.008,-0.0195,-0.0464,-0.053,-0.0357,-0.0093,0.0135,0.0324,0.0472,0.0582,0.064,0.0643,0.0607,0.0552,0.0492,0.0409,0.0313,0.0244,0.0211,0.0209,0.0242,0.0214,0.0052,-0.0157,-0.0385,-0.0621,-0.0808,-0.0923,-0.0887,-0.07,-0.0585,-0.0613,-0.0959,-0.1552,-0.1717,-0.1593,-0.1456,-0.1296,-0.1351,-0.1577,-0.187,-0.2208,-0.2516,-0.2848,-0.3238,-0.3587,-0.3848,-0.0099,-0.0349,-0.0401,-0.0203,0.0071,0.0261,0.0385,0.0492,0.0607,0.0747,0.0909,0.1071,0.1192,0.1214,0.1167,0.1085,0.0909,0.0703,0.0588,0.0522,0.0415,0.0209,-0.0044,-0.0272,-0.0481,-0.0662,-0.0786,-0.0835,-0.0706,-0.0514,-0.0494,-0.0994,-0.1752,-0.1986,-0.1818,-0.1648,-0.1571,-0.1686,-0.2019,-0.2403,-0.2752,-0.3098,-0.348,-0.3906,-0.4353,-0.4722,-0.4922,-0.0233,-0.0404,-0.0195,0.0154,0.0297,0.0255,0.0192,0.0228,0.0374,0.058,0.0799,0.0994,0.1165,0.1302,0.1379,0.1376,0.1288,0.1148,0.0983,0.0824,0.0667,0.0456,0.0135,-0.0192,-0.0379,-0.0478,-0.0503,-0.0489,-0.0461,-0.0448,-0.1027,-0.189,-0.2153,-0.2022,-0.1868,-0.189,-0.2109,-0.245,-0.2873,-0.3301,-0.3694,-0.4071,-0.4461,-0.4859,-0.5208,-0.5436,-0.5535,-0.0363,-0.0179,0.0201,0.0264,0.0022,-0.0231,-0.0319,-0.0228,-0.0033,0.0214,0.0442,0.0629,0.0794,0.0953,0.109,0.1176,0.1178,0.109,0.0945,0.0816,0.0709,0.0538,0.0228,-0.0132,-0.0335,-0.0371,-0.0255,-0.0132,-0.0299,-0.1046,-0.1917,-0.2222,-0.2134,-0.2071,-0.2178,-0.2425,-0.2793,-0.3244,-0.3724,-0.4197,-0.4609,-0.4922,-0.515,-0.5356,-0.5576,-0.5746,-0.5795,-0.0201,0.0168,0.0162,-0.0165,-0.045,-0.061,-0.0569,-0.0379,-0.0151,0.0055,0.019,0.0264,0.0321,0.0401,0.0497,0.0577,0.0618,0.0621,0.0596,0.0571,0.053,0.0417,0.0143,-0.0203,-0.0374,-0.0299,-0.0038,-0.0014,-0.078,-0.1777,-0.2197,-0.2159,-0.2107,-0.2313,-0.2683,-0.3087,-0.3518,-0.3963,-0.4422,-0.4845,-0.5186,-0.5405,-0.5524,-0.5609,-0.5694,-0.5741,-0.5697,0.0151,0.0187,-0.0063,-0.0288,-0.0374,-0.0313,-0.0154,0.0011,0.0148,0.0253,0.0294,0.0269,0.0222,0.0198,0.0211,0.0236,0.0272,0.0338,0.0415,0.0459,0.0428,0.0305,0.0036,-0.0275,-0.0404,-0.0181,0.0113,-0.039,-0.1412,-0.2041,-0.2118,-0.2011,-0.2255,-0.2736,-0.3189,-0.3595,-0.3983,-0.4359,-0.4716,-0.504,-0.5298,-0.5449,-0.5521,-0.5504,-0.5427,-0.5359,-0.5334]},{"header":{"parameterUnit":"m.s-1","parameterCategory":2,"la1":30.8641,"la2":29.7642,"lo1":-88.4676,"lo2":-86.9344,"dy":0.0333,"dx":0.0333,"nx":47,"ny":34,"refTime":"2023-09-07T00:00:00:Z","depth":"4","parameterNumber":3,"parameterNumberName":"V-component_of_CURRENTS"},"data":[0,0,0,0,0,0,0,0,0,0,0,0,0,0,0,0,0,0,0,0,0,0,0,0,0,0,0,0,0,0,0,0,0,0,0,0,0,0,0,0,0,0,0,0,0,0,0,0,0,0,0,0,0,0,0,0,0,0,0,0,0,0,0,0,0,0,0,0,0,0,0,0,0,0,0,0,0,0,0,0,0,0,0,0,0,0,0,0,0,0,0,0,0,0,0,0,0,0,0,0,0,0,0,0,0,0,0,0,0,0,0,0,0,0,0,0,0,0,0,0,0,0,0,0,0,0,0,0,0,0,0,0,0,0,0,0,0,0,0,0,0,0,0,0,0,0,0,0,0,0,0,0,0,0,0,0,0,0,0,0,0,0,0,0,0,0,0,0,0,0,0,0,0,0,0,0,0,0,0,0,0,0,0,0,0,0,0,0,0,0,0,0,0,0,0,0,0,0,0,0,0,0,0,0,0,0,0,0,0,0,0,0,0,0,0,0,0,0,0,0,0,0,0,0,0,0,0,0,0,0,0,0,0,0,0,0,0,0,0,0,0,0,0,0,0,0,0,0,0,0,0,0,0,0,0,0,0,0,0,0,0,0,0,0,0,0,0,0,0,0,0,0,0,0,0,0,0,0,0,0,0,0,0,0,0,0,0,0,0,0,0,0,0,0,0,0,-0.0604,-0.0255,0,0,0,0,0,0,0,0,0,0,0,0,0,0,0,0,0,0,0,0,0,0,0,0,0,0,0,0,0,0,0,0,0,0,0,0,0,0,0,0,0,0,0,0,-0.0129,-0.0486,-0.0261,-0.0033,0,0,0,0,0,0,0,0,0,0,0,0,0,0,0,0,0,0,0,0,0,0,0,0,0,0,0,0,0,0,0,0,0,0,0,0,0,0,0,0,0,0,0,-0.0107,-0.0272,-0.0277,0.0041,0,0,0,0,0,0,0,0,0,0,0,0,0,0,0,0,0,0,0,0,0,0,0,0,0,0,0,0,0,0,0,0,0,0,0,0,0,0,0,0,0,0,-0.0618,-0.0195,-0.0206,-0.0291,0.0038,0,0,0,0,0,0,0,0,0,0,0,0,0,0,0,0,0,0,0,0,0,0,0,0,0,0,0,0,0,0,0,0,0,0,0,0,0,0,0,0,0,0,-0.0997,-0.0547,-0.0222,-0.0099,-0.0049,0,0,0,0,0,0,0,0,0,0,0,0,0,0,0,0,0,0,0,0,0,0,0,0,0,0,0,0,0,0,0,0,0,0,0,0,0,0,0,0,0,0,-0.1393,-0.0978,-0.0016,0.0211,-0.0069,0,0,0,0,0,0,0,0,0,0,0,0,0,0,0,0,0,0,0,0,0,0,0,0,0,0,0,0,0,0,0,0,0,0,0,0,0,0,0,0,0,0,-0.1404,-0.1178,0.0157,0.0173,-0.0195,0,0,0,0,0,0,0,0,0,0,0,0,0,0,0,0,0,0,0,0,0,0,0,0,0,0,-0.0637,0.075,0,0,0,0,0,0,0,0,0,0,0,0,0,-0.0876,-0.1464,-0.1063,0.0211,-0.0022,-0.0415,0,0,0,0,0,0,0,0,0,0,0,0,0,0,0,0,0,0,0,0,0,0,-0.0665,-0.014,0.0033,0.0,-0.0319,0.0374,0,0,0,0,0,0,0,0,0,0,0,0,0,-0.1313,-0.1549,-0.0926,0.0201,-0.0005,-0.0492,-0.017,0,0,0,0,0,0,0,0,0,0,0,0,0,0,0,0,0,0,0,0,-0.1057,-0.0332,-0.0071,0.0016,0,0,0,0,0,0,0,0,0.0143,-0.0181,-0.0467,0,0,0,0,0,-0.1604,-0.1552,-0.0992,-0.0025,0.0055,-0.0428,-0.0217,0.0154,0,0,0,0,0,0,0,0,0,0,0,0,0,0,0,0,0,0,-0.0181,-0.0527,0,0,0,0,0,0,0,0.0121,0,0.0052,-0.0047,0.006,-0.0266,-0.0481,0,0,0,0,0,-0.2027,-0.136,-0.1101,-0.0459,-0.0044,-0.0352,-0.0313,0.0047,0.0115,0,0,0,0,0,0,0,0,0,0,0,0,0,0,0,0,-0.0363,-0.0228,0,0,0.0008,-0.0033,-0.0041,-0.0014,0.0055,0.0104,-0.0022,-0.0261,-0.0058,-0.0088,-0.0066,-0.0341,-0.0442,-0.0088,-0.0148,-0.0368,0.0,0.0,-0.1165,-0.1637,-0.1233,-0.0725,-0.0228,-0.0269,-0.0302,-0.0058,0.014,0.0396,0,0,0,0,0,0,0,0,0,0,0,0,0.0096,-0.0041,-0.0448,-0.0338,-0.028,0.0003,0.0014,-0.0058,-0.0093,-0.0096,-0.0085,-0.0038,-0.0014,-0.0157,-0.0272,-0.0165,-0.0047,-0.0146,-0.033,-0.0192,-0.0044,-0.0261,-0.0486,0,0,0,-0.2373,-0.167,-0.0368,-0.0157,-0.0118,-0.0118,-0.0022,0.0014,0.0198,0,0,0,0,0,0,0,0.0162,-0.0027,0.0033,0.0008,-0.0019,0.0019,-0.0104,-0.0423,-0.0431,-0.025,-0.0019,-0.0025,-0.0118,-0.0154,-0.017,-0.0173,-0.0137,-0.0102,-0.0118,-0.0143,-0.008,-0.0038,-0.0181,-0.0357,0,0,-0.0409,-0.0588,-0.0417,-0.0667,-0.1041,-0.1332,-0.2401,0,0,0,0,0,0,0,0,0.0118,0.0077,0.0041,0.0033,0.0044,0.0071,0.0168,0.0088,0.0044,0.0008,-0.0033,-0.0091,-0.0181,-0.0294,-0.0343,-0.0294,-0.011,-0.0066,-0.0085,-0.0135,-0.0184,-0.0162,-0.0135,-0.011,-0.0179,0,0,-0.011,-0.0168,-0.0297,-0.0088,-0.0052,-0.0382,-0.0503,-0.0483,-0.067,-0.0989,0,-0.2022,-0.0327,-0.0159,-0.019,-0.0187,-0.0148,-0.0055,0.0027,0.006,0.0085,0.0063,0.0055,0.0063,0.0077,0.0104,0.0129,0.0102,0.0052,0.0011,-0.0038,-0.0146,-0.0253,-0.0338,-0.039,-0.0363,-0.0206,-0.0096,-0.0071,-0.0124,-0.0195,-0.0195,-0.0214,-0.025,-0.0335,-0.0069,-0.0099,-0.0135,-0.0148,-0.017,-0.0104,-0.0082,-0.0264,-0.0393,-0.0511,-0.0626,-0.078,-0.0423,-0.089,-0.0299,-0.0179,-0.0261,-0.0277,-0.0209,-0.0085,0.0016,0.0055,0.0049,0.0052,0.0071,0.0107,0.0143,0.0148,0.0104,0.0041,-0.0041,-0.0099,-0.0135,-0.0242,-0.0374,-0.0481,-0.05,-0.039,-0.0231,-0.0159,-0.0179,-0.0198,-0.0299,-0.0382,-0.0239,-0.0129,-0.0203,-0.0044,-0.0069,-0.0096,-0.0113,-0.0107,-0.0104,-0.0121,-0.0214,-0.0343,-0.0459,-0.0555,-0.058,-0.0434,-0.0453,-0.0266,-0.0217,-0.0349,-0.0409,-0.0313,-0.0143,-0.0011,0.0038,0.0041,0.0044,0.0082,0.0148,0.0168,0.0126,0.0058,-0.0025,-0.0118,-0.019,-0.0242,-0.033,-0.0456,-0.0533,-0.0533,-0.042,-0.0346,-0.0374,-0.0404,-0.0233,-0.0209,-0.0192,-0.0151,-0.0214,-0.0302,0.0011,-0.0014,-0.0036,-0.006,-0.0074,-0.0099,-0.0154,-0.0253,-0.0379,-0.0492,-0.0566,-0.0563,-0.0489,-0.0426,-0.033,-0.0291,-0.0374,-0.0442,-0.0365,-0.0192,-0.0055,0.0008,0.0019,0.0044,0.0113,0.0173,0.0165,0.0135,0.0074,-0.0041,-0.0137,-0.0211,-0.0305,-0.0415,-0.0547,-0.0577,-0.0602,-0.0599,-0.0604,-0.0396,-0.006,0.003,0.0058,-0.0157,-0.0217,-0.0231,-0.028,0.0082,0.0044,0.0014,-0.0027,-0.008,-0.0137,-0.0217,-0.0299,-0.0385,-0.0472,-0.0541,-0.0563,-0.0538,-0.05,-0.0459,-0.0464,-0.0445,-0.0412,-0.0343,-0.0209,-0.0085,-0.0019,0.0016,0.0069,0.0162,0.022,0.0206,0.017,0.0052,-0.0132,-0.0269,-0.0376,-0.0478,-0.0588,-0.0695,-0.0731,-0.0824,-0.0604,-0.0379,0.0088,0.0352,0.0027,-0.0047,-0.0069,-0.0107,-0.0036,-0.0082,0.0201,0.0115,0.0044,-0.0014,-0.0082,-0.014,-0.0206,-0.0264,-0.0316,-0.0385,-0.0459,-0.0514,-0.0533,-0.0505,-0.0472,-0.0522,-0.0514,-0.0442,-0.033,-0.0187,-0.0082,0.0003,0.006,0.0162,0.0258,0.0266,0.0187,0.0025,-0.0173,-0.0382,-0.0511,-0.0607,-0.0678,-0.0731,-0.0849,-0.0895,-0.0684,-0.0154,0.0096,0.0137,0.0058,-0.0011,-0.0044,0.0132,0.0019,-0.0135,-0.0236,0.0305,0.0129,-0.0014,-0.0085,-0.0124,-0.0129,-0.0165,-0.0198,-0.0231,-0.0288,-0.0357,-0.0442,-0.0505,-0.0522,-0.047,-0.0472,-0.0505,-0.0459,-0.0313,-0.0184,-0.0069,0.0096,0.0231,0.0291,0.0239,0.0069,-0.0096,-0.0297,-0.0494,-0.0656,-0.0714,-0.0736,-0.0742,-0.0887,-0.0964,-0.0678,-0.0231,0.0014,0.0069,-0.0052,-0.0063,0.0082,0.0011,-0.0118,-0.0107,-0.0165,-0.0266,0.0283,-0.0025,-0.0283,-0.0313,-0.0154,-0.0077,-0.0113,-0.0146,-0.0173,-0.0214,-0.0275,-0.0365,-0.0459,-0.0544,-0.0558,-0.0541,-0.05,-0.0407,-0.0288,-0.0179,0.0016,0.0283,0.0368,0.0176,-0.0071,-0.0253,-0.0379,-0.0508,-0.0656,-0.0744,-0.0722,-0.0684,-0.0865,-0.1046,-0.0766,-0.0365,-0.0151,-0.019,-0.0162,-0.0058,-0.0038,-0.0088,-0.0118,-0.0192,-0.0211,-0.0261,-0.0313,0.006,-0.0354,-0.0549,-0.0283,0.0179,0.028,0.0217,0.0121,0.0003,-0.0102,-0.0222,-0.0343,-0.0456,-0.0538,-0.0585,-0.0615,-0.0544,-0.0401,-0.0286,-0.0157,0.0088,0.0305,0.0233,-0.0118,-0.0393,-0.0431,-0.0423,-0.0489,-0.061,-0.0634,-0.0602,-0.0813,-0.1038,-0.0871,-0.0552,-0.0445,-0.0396,-0.0354,-0.0297,-0.019,-0.0102,-0.011,-0.011,-0.0176,-0.0255,-0.0288,-0.0253,-0.0291,-0.0591,-0.0368,0.0305,0.0651,0.0588,0.0461,0.0338,0.0211,0.0093,-0.0058,-0.0228,-0.0407,-0.0558,-0.0676,-0.0744,-0.0648,-0.0439,-0.0299,-0.0179,-0.0011,0.0085,-0.0016,-0.033,-0.0541,-0.05,-0.0352,-0.0313,-0.0423,-0.0544,-0.0797,-0.1041,-0.0948,-0.0739,-0.0764,-0.0769,-0.0681,-0.0483,-0.0294,-0.014,-0.0033,-0.0005,-0.0038,-0.0063,-0.008,-0.0044,0.0063,-0.0552,-0.0393,0.0283,0.0684,0.0574,0.036,0.0231,0.019,0.0176,0.0135,0.003,-0.0154,-0.0382,-0.0623,-0.0821,-0.0904,-0.0813,-0.0604,-0.0437,-0.0269,-0.0143,-0.014,-0.0275,-0.0519,-0.0645,-0.0566,-0.0346,-0.0214,-0.0398,-0.0819,-0.1082,-0.1055,-0.0986,-0.1093,-0.1187,-0.1088,-0.084,-0.0547,-0.0294,-0.0121,-0.0005,0.0088,0.0154,0.0222,0.0291,0.0371,0.0459,-0.0461,0.022,0.0717,0.0522,0.0244,0.0124,0.0168,0.0335,0.0426,0.0407,0.0258,0.0005,-0.0299,-0.061,-0.0849,-0.0983,-0.097,-0.0824,-0.0632,-0.0434,-0.0332,-0.0365,-0.0508,-0.0695,-0.0755,-0.0654,-0.0503,-0.0511,-0.0786,-0.1112,-0.1165,-0.1236,-0.1453,-0.1643,-0.1546,-0.125,-0.0915,-0.0593,-0.0332,-0.0148,-0.0005,0.0151,0.033,0.0514,0.064,0.0706,0.0742,0.0055,0.0772,0.067,0.0354,0.0242,0.0428,0.0744,0.1055,0.1187,0.1126,0.0912,0.0604,0.025,-0.0129,-0.0472,-0.0709,-0.0783,-0.0733,-0.0588,-0.0459,-0.0393,-0.0396,-0.0544,-0.0744,-0.078,-0.0717,-0.0835,-0.1074,-0.1173,-0.1258,-0.142,-0.1733,-0.2055,-0.2005,-0.1656,-0.1244,-0.0846,-0.0483,-0.0195,0.0005,0.0157,0.0316,0.0508,0.0714,0.0835,0.0846,0.0849,0.0714,0.095,0.0593,0.0426,0.0577,0.1003,0.1393,0.1618,0.1681,0.1577,0.1349,0.1068,0.0777,0.0464,0.0157,-0.0091,-0.0228,-0.0286,-0.0302,-0.0305,-0.0233,-0.022,-0.0404,-0.0615,-0.0692,-0.0854,-0.1313,-0.1409,-0.1393,-0.1555,-0.192,-0.2384,-0.2467,-0.2115,-0.1667,-0.1241,-0.0835,-0.0478,-0.0179,0.0069,0.028,0.0461,0.0618,0.0739,0.0799,0.081,0.0843]}],[{"header":{"parameterUnit":"m.s-1","parameterCategory":2,"la1":30.8641,"la2":29.7642,"lo1":-88.4676,"lo2":-86.9344,"dy":0.0333,"dx":0.0333,"nx":47,"ny":34,"refTime":"2023-09-07T00:00:00:Z","depth":"6","parameterNumber":2,"parameterNumberName":"U-component_of_CURRENTS"},"data":[0,0,0,0,0,0,0,0,0,0,0,0,0,0,0,0,0,0,0,0,0,0,0,0,0,0,0,0,0,0,0,0,0,0,0,0,0,0,0,0,0,0,0,0,0,0,0,0,0,0,0,0,0,0,0,0,0,0,0,0,0,0,0,0,0,0,0,0,0,0,0,0,0,0,0,0,0,0,0,0,0,0,0,0,0,0,0,0,0,0,0,0,0,0,0,0,0,0,0,0,0,0,0,0,0,0,0,0,0,0,0,0,0,0,0,0,0,0,0,0,0,0,0,0,0,0,0,0,0,0,0,0,0,0,0,0,0,0,0,0,0,0,0,0,0,0,0,0,0,0,0,0,0,0,0,0,0,0,0,0,0,0,0,0,0,0,0,0,0,0,0,0,0,0,0,0,0,0,0,0,0,0,0,0,0,0,0,0,0,0,0,0,0,0,0,0,0,0,0,0,0,0,0,0,0,0,0,0,0,0,0,0,0,0,0,0,0,0,0,0,0,0,0,0,0,0,0,0,0,0,0,0,0,0,0,0,0,0,0,0,0,0,0,0,0,0,0,0,0,0,0,0,0,0,0,0,0,0,0,0,0,0,0,0,0,0,0,0,0,0,0,0,0,0,0,0,0,0,0,0,0,0,0,0,0,0,0,0,0,0,0,0,0,0,0,0,-0.0179,-0.0357,0,0,0,0,0,0,0,0,0,0,0,0,0,0,0,0,0,0,0,0,0,0,0,0,0,0,0,0,0,0,0,0,0,0,0,0,0,0,0,0,0,0,0,0,0.0005,0.0,-0.0132,-0.0264,0,0,0,0,0,0,0,0,0,0,0,0,0,0,0,0,0,0,0,0,0,0,0,0,0,0,0,0,0,0,0,0,0,0,0,0,0,0,0,0,0,0,0,0.0184,0.0393,0.028,0.014,0,0,0,0,0,0,0,0,0,0,0,0,0,0,0,0,0,0,0,0,0,0,0,0,0,0,0,0,0,0,0,0,0,0,0,0,0,0,0,0,0,0,0.0604,0.1107,0.0948,0.0667,0.0439,0,0,0,0,0,0,0,0,0,0,0,0,0,0,0,0,0,0,0,0,0,0,0,0,0,0,0,0,0,0,0,0,0,0,0,0,0,0,0,0,0,0,0.017,0.019,0.0275,0.0558,0.0607,0,0,0,0,0,0,0,0,0,0,0,0,0,0,0,0,0,0,0,0,0,0,0,0,0,0,0,0,0,0,0,0,0,0,0,0,0,0,0,0,0,0,0.0063,-0.0071,0.0093,0.0376,0.0302,0,0,0,0,0,0,0,0,0,0,0,0,0,0,0,0,0,0,0,0,0,0,0,0,0,0,0,0,0,0,0,0,0,0,0,0,0,0,0,0,0,0,0.0525,0.0115,0.0341,0.053,0.0533,0,0,0,0,0,0,0,0,0,0,0,0,0,0,0,0,0,0,0,0,0,0,0,0,0,0,0.0074,0.0148,0,0,0,0,0,0,0,0,0,0,0,0,0,0.0099,0.0036,-0.0016,0.0272,0.0569,0.0755,0,0,0,0,0,0,0,0,0,0,0,0,0,0,0,0,0,0,0,0,0,0,-0.0143,-0.0019,0.0489,0.0407,0.0343,0.058,0,0,0,0,0,0,0,0,0,0,0,0,0,-0.0047,-0.0162,-0.0118,0.0016,0.0277,0.0343,0.0206,0,0,0,0,0,0,0,0,0,0,0,0,0,0,0,0,0,0,0,0,0.0063,0.0253,0.0146,-0.0096,0,0,0,0,0,0,0,0,0.008,0.0126,0.0091,0,0,0,0,0,0.0179,0.0261,0.0206,0.0104,0.0049,0.0173,0.0038,-0.0113,0,0,0,0,0,0,0,0,0,0,0,0,0,0,0,0,0,0,0.0481,0.0758,0,0,0,0,0,0,0,0.0085,0,0.0041,0.0091,0.008,0.0176,0.0291,0,0,0,0,0,0.0503,0.0901,0.0799,0.0505,0.0201,0.0231,0.036,0.0354,0.0277,0,0,0,0,0,0,0,0,0,0,0,0,0,0,0,0,0.0508,0.0733,0,0,0.011,0.0126,0.0113,0.0113,0.0159,0.0275,0.0233,0.0102,-0.006,-0.0168,-0.0154,-0.006,0.0019,0.0069,-0.0033,-0.0264,-0.0201,0.0288,0.0953,0.081,0.0371,0.0467,0.0412,0.017,0.0132,0.0132,-0.0113,-0.0343,0,0,0,0,0,0,0,0,0,0,0,0,0.0066,0.0173,0.0275,0.0258,0.0088,0.0099,0.0211,0.0266,0.0277,0.0283,0.028,0.0242,0.0102,-0.0016,-0.0198,-0.0154,-0.0107,-0.0115,-0.0085,0.0255,0.0514,0.0415,0.0321,0,0,0,-0.014,-0.0621,-0.0717,-0.0151,0.0209,0.0294,0.0299,0.0341,0.0428,0,0,0,0,0,0,0,0.0077,0.0266,0.0396,0.042,0.0437,0.0398,0.0299,0.0233,0.0146,0.0049,0.0077,0.0154,0.0211,0.0236,0.0209,0.0121,0.0036,0.0019,0.0038,-0.0011,0.0168,0.0195,0.014,0.0135,0,0,0.0074,0.0321,0.0401,-0.0082,-0.0654,-0.0091,0.0634,0,0,0,0,0,0,0,0,0.0071,0.019,0.0272,0.033,0.0379,0.0445,0.0464,0.0448,0.0478,0.0505,0.0505,0.0478,0.0442,0.0437,0.0456,0.0423,0.0286,0.0135,0.0069,0.0052,0.0038,0.0074,0.0135,0.0162,0.0135,0,0,0.0016,0.0055,0.0143,0.0201,0.014,0.0217,0.0324,0.0327,0.0206,0.0143,0,0.05,0.0854,0.0626,0.0467,0.033,0.0217,0.0154,0.0168,0.0236,0.0272,0.0269,0.0299,0.0346,0.0401,0.0453,0.0503,0.0544,0.0569,0.0577,0.0613,0.0665,0.0689,0.0678,0.0604,0.0437,0.028,0.0203,0.0162,0.0137,0.0124,0.0118,0.011,0.0085,0.0049,0.0338,0.0332,0.0321,0.0305,0.031,0.0294,0.0239,0.0253,0.0291,0.0319,0.0343,0.0445,0.0335,0.0376,0.0618,0.0602,0.053,0.0404,0.0288,0.0231,0.0222,0.0242,0.0275,0.0305,0.0332,0.0365,0.0417,0.0508,0.0637,0.0739,0.0783,0.0783,0.078,0.0761,0.0676,0.0505,0.0305,0.0181,0.0143,0.0104,0.0052,-0.0003,-0.0033,-0.0069,-0.0187,-0.0365,-0.05,0.0313,0.0346,0.0385,0.0439,0.0478,0.0497,0.0505,0.0505,0.0522,0.0549,0.0574,0.0588,0.0563,0.0574,0.061,0.0602,0.0582,0.0522,0.0426,0.0352,0.0321,0.0324,0.0341,0.036,0.0385,0.0434,0.0536,0.0618,0.0618,0.0577,0.0536,0.0497,0.0428,0.0343,0.0264,0.0184,0.0099,0.0038,-0.0003,-0.0047,-0.011,-0.0214,-0.0283,-0.0461,-0.0569,-0.0352,-0.0124,0.0423,0.0481,0.0527,0.0563,0.0593,0.0623,0.0648,0.0662,0.0678,0.0703,0.0728,0.0744,0.0736,0.0714,0.067,0.0613,0.058,0.0571,0.0541,0.0489,0.0442,0.0415,0.0409,0.0426,0.0478,0.0574,0.0626,0.0574,0.0516,0.0478,0.0417,0.0357,0.0286,0.0165,0.0003,-0.0115,-0.0129,-0.0107,-0.022,-0.0398,-0.0692,-0.0871,-0.0667,-0.0244,0.0085,0.0027,-0.0168,0.0442,0.0549,0.0648,0.0731,0.0783,0.0783,0.0747,0.0681,0.0626,0.0615,0.0637,0.0651,0.0632,0.0602,0.0588,0.0566,0.0522,0.0505,0.0522,0.0527,0.0522,0.0516,0.0549,0.0629,0.0695,0.0722,0.0728,0.0711,0.067,0.0574,0.0417,0.0225,0.0014,-0.0181,-0.0305,-0.033,-0.0385,-0.07,-0.1093,-0.1093,-0.0665,-0.0365,-0.0148,-0.0269,-0.0659,-0.0607,-0.0497,0.0478,0.0645,0.0709,0.0681,0.0626,0.0552,0.0481,0.0434,0.0417,0.0431,0.0439,0.0412,0.0365,0.0316,0.0308,0.033,0.0374,0.0426,0.0453,0.0483,0.0525,0.0613,0.0733,0.0808,0.0835,0.0805,0.072,0.0571,0.0382,0.0195,0.0019,-0.0165,-0.0354,-0.0508,-0.0618,-0.081,-0.1143,-0.1176,-0.0928,-0.0692,-0.0475,-0.0618,-0.0926,-0.0893,-0.0843,-0.0986,-0.111,0.0467,0.0486,0.0376,0.0201,0.0052,0.0019,0.0077,0.0157,0.0231,0.031,0.0412,0.05,0.0516,0.0461,0.0363,0.0269,0.0217,0.0228,0.0305,0.0379,0.0442,0.0533,0.0621,0.0662,0.0637,0.0486,0.019,-0.0124,-0.0308,-0.0374,-0.0417,-0.0497,-0.0582,-0.064,-0.0909,-0.1231,-0.1274,-0.109,-0.0832,-0.0865,-0.109,-0.1085,-0.1057,-0.1192,-0.1354,-0.1546,-0.1728,0.0288,0.014,-0.011,-0.036,-0.0434,-0.0349,-0.0203,-0.0052,0.006,0.0137,0.0195,0.025,0.0288,0.0316,0.0308,0.0244,0.0187,0.0176,0.0162,0.0135,0.0184,0.0288,0.0365,0.0319,0.0071,-0.0247,-0.0505,-0.0703,-0.0777,-0.0698,-0.0607,-0.0596,-0.0654,-0.0915,-0.1332,-0.142,-0.1294,-0.1269,-0.1222,-0.114,-0.1203,-0.1376,-0.1593,-0.1903,-0.2195,-0.245,-0.2662,0.008,-0.0195,-0.0461,-0.0527,-0.0352,-0.0088,0.0137,0.0327,0.0475,0.0585,0.0643,0.0643,0.0607,0.0552,0.0494,0.0409,0.0313,0.0247,0.0217,0.0211,0.0247,0.0222,0.0058,-0.0151,-0.0382,-0.0621,-0.081,-0.0923,-0.0884,-0.0698,-0.058,-0.0599,-0.0942,-0.1541,-0.1708,-0.1588,-0.1453,-0.1291,-0.1346,-0.1568,-0.1859,-0.2195,-0.2502,-0.2835,-0.3227,-0.3579,-0.384,-0.0099,-0.0346,-0.0398,-0.0195,0.008,0.0266,0.0387,0.0494,0.061,0.075,0.0912,0.1074,0.1192,0.1211,0.1165,0.1082,0.0909,0.0706,0.0591,0.0525,0.0417,0.0214,-0.0036,-0.0266,-0.0478,-0.0665,-0.0791,-0.0838,-0.0706,-0.0511,-0.0481,-0.0975,-0.1736,-0.1978,-0.1813,-0.1645,-0.1566,-0.1684,-0.2011,-0.2395,-0.2738,-0.3087,-0.3472,-0.3898,-0.4345,-0.4713,-0.4911,-0.0233,-0.0401,-0.0181,0.0173,0.031,0.0258,0.0195,0.0228,0.0376,0.0582,0.0802,0.0997,0.1167,0.1302,0.1379,0.1373,0.1288,0.1148,0.0983,0.0824,0.0665,0.0459,0.014,-0.0184,-0.0379,-0.0483,-0.0511,-0.0497,-0.0464,-0.0442,-0.1014,-0.1873,-0.214,-0.2016,-0.1865,-0.1887,-0.2104,-0.2442,-0.2859,-0.3288,-0.3686,-0.4062,-0.445,-0.4845,-0.5188,-0.5416,-0.5515,-0.0357,-0.0151,0.0239,0.028,0.0025,-0.0231,-0.0319,-0.0228,-0.0033,0.022,0.045,0.064,0.0802,0.0959,0.1093,0.1176,0.1178,0.1088,0.0942,0.0816,0.0706,0.0538,0.0231,-0.0126,-0.0332,-0.0376,-0.0266,-0.0143,-0.0305,-0.1041,-0.1906,-0.2211,-0.2126,-0.2071,-0.2175,-0.2423,-0.2785,-0.323,-0.3711,-0.4189,-0.4598,-0.4911,-0.5142,-0.5342,-0.5559,-0.5727,-0.5782,-0.0173,0.022,0.0195,-0.0157,-0.0453,-0.0613,-0.0571,-0.0379,-0.0146,0.0058,0.0192,0.0269,0.033,0.0407,0.05,0.058,0.0618,0.0618,0.0593,0.0569,0.0527,0.0417,0.0148,-0.0198,-0.0371,-0.0305,-0.0047,-0.0025,-0.0783,-0.1769,-0.2189,-0.2153,-0.2104,-0.2313,-0.2681,-0.3082,-0.3513,-0.3958,-0.4417,-0.484,-0.5177,-0.54,-0.5515,-0.5598,-0.568,-0.5727,-0.5688,0.0192,0.0217,-0.0058,-0.0291,-0.0376,-0.0316,-0.0154,0.0014,0.0154,0.0258,0.0297,0.0275,0.0225,0.0201,0.0214,0.0239,0.0272,0.0335,0.0412,0.0456,0.0428,0.0305,0.0038,-0.0272,-0.0404,-0.0184,0.0104,-0.0396,-0.1412,-0.2033,-0.2109,-0.2011,-0.2255,-0.2736,-0.3186,-0.3593,-0.3977,-0.4353,-0.4711,-0.5035,-0.529,-0.5444,-0.5513,-0.5496,-0.5416,-0.5348,-0.5329]},{"header":{"parameterUnit":"m.s-1","parameterCategory":2,"la1":30.8641,"la2":29.7642,"lo1":-88.4676,"lo2":-86.9344,"dy":0.0333,"dx":0.0333,"nx":47,"ny":34,"refTime":"2023-09-07T00:00:00:Z","depth":"6","parameterNumber":3,"parameterNumberName":"V-component_of_CURRENTS"},"data":[0,0,0,0,0,0,0,0,0,0,0,0,0,0,0,0,0,0,0,0,0,0,0,0,0,0,0,0,0,0,0,0,0,0,0,0,0,0,0,0,0,0,0,0,0,0,0,0,0,0,0,0,0,0,0,0,0,0,0,0,0,0,0,0,0,0,0,0,0,0,0,0,0,0,0,0,0,0,0,0,0,0,0,0,0,0,0,0,0,0,0,0,0,0,0,0,0,0,0,0,0,0,0,0,0,0,0,0,0,0,0,0,0,0,0,0,0,0,0,0,0,0,0,0,0,0,0,0,0,0,0,0,0,0,0,0,0,0,0,0,0,0,0,0,0,0,0,0,0,0,0,0,0,0,0,0,0,0,0,0,0,0,0,0,0,0,0,0,0,0,0,0,0,0,0,0,0,0,0,0,0,0,0,0,0,0,0,0,0,0,0,0,0,0,0,0,0,0,0,0,0,0,0,0,0,0,0,0,0,0,0,0,0,0,0,0,0,0,0,0,0,0,0,0,0,0,0,0,0,0,0,0,0,0,0,0,0,0,0,0,0,0,0,0,0,0,0,0,0,0,0,0,0,0,0,0,0,0,0,0,0,0,0,0,0,0,0,0,0,0,0,0,0,0,0,0,0,0,0,0,0,0,0,0,0,0,0,0,0,0,0,0,0,0,0,0,-0.0124,0.0294,0,0,0,0,0,0,0,0,0,0,0,0,0,0,0,0,0,0,0,0,0,0,0,0,0,0,0,0,0,0,0,0,0,0,0,0,0,0,0,0,0,0,0,0,-0.025,-0.008,0.0294,0.0132,0,0,0,0,0,0,0,0,0,0,0,0,0,0,0,0,0,0,0,0,0,0,0,0,0,0,0,0,0,0,0,0,0,0,0,0,0,0,0,0,0,0,0,-0.0044,-0.0143,0.0118,0.0115,0,0,0,0,0,0,0,0,0,0,0,0,0,0,0,0,0,0,0,0,0,0,0,0,0,0,0,0,0,0,0,0,0,0,0,0,0,0,0,0,0,0,0.0107,0.0231,0.0025,0.0143,0.0049,0,0,0,0,0,0,0,0,0,0,0,0,0,0,0,0,0,0,0,0,0,0,0,0,0,0,0,0,0,0,0,0,0,0,0,0,0,0,0,0,0,0,0.0008,0.0299,0.0387,0.042,0.0049,0,0,0,0,0,0,0,0,0,0,0,0,0,0,0,0,0,0,0,0,0,0,0,0,0,0,0,0,0,0,0,0,0,0,0,0,0,0,0,0,0,0,-0.0176,0.0088,0.0379,0.0426,0.0159,0,0,0,0,0,0,0,0,0,0,0,0,0,0,0,0,0,0,0,0,0,0,0,0,0,0,0,0,0,0,0,0,0,0,0,0,0,0,0,0,0,0,-0.0266,-0.0132,0.0294,0.0154,0.0159,0,0,0,0,0,0,0,0,0,0,0,0,0,0,0,0,0,0,0,0,0,0,0,0,0,0,-0.0552,0.0275,0,0,0,0,0,0,0,0,0,0,0,0,0,-0.0286,-0.0308,-0.0154,0.0352,-0.0036,0.0003,0,0,0,0,0,0,0,0,0,0,0,0,0,0,0,0,0,0,0,0,0,0,-0.047,0.0143,0.0066,0.0,-0.0277,0.0137,0,0,0,0,0,0,0,0,0,0,0,0,0,-0.0651,-0.0431,-0.0168,0.0321,0.0038,-0.0231,-0.0099,0,0,0,0,0,0,0,0,0,0,0,0,0,0,0,0,0,0,0,0,0.0481,-0.0236,0.0071,0.0033,0,0,0,0,0,0,0,0,0.0159,-0.0135,-0.0236,0,0,0,0,0,-0.07,-0.0489,-0.022,0.0107,0.0148,-0.0299,-0.0349,-0.0146,0,0,0,0,0,0,0,0,0,0,0,0,0,0,0,0,0,0,0.0437,0.0239,0,0,0,0,0,0,0,0.0137,0,0.0063,-0.003,0.0113,-0.0124,-0.0124,0,0,0,0,0,-0.0607,-0.0297,-0.0121,-0.0047,0.0027,-0.017,-0.0313,-0.0014,0.0409,0,0,0,0,0,0,0,0,0,0,0,0,0,0,0,0,0.0033,0.0308,0,0,0.0014,-0.0025,-0.0033,-0.0003,0.0066,0.0118,-0.0011,-0.0198,-0.0044,-0.0063,0.0033,-0.0113,-0.0214,-0.0332,-0.0041,-0.0286,0.0,0.0,-0.0264,-0.0286,0.008,-0.019,-0.0258,-0.0184,-0.0071,-0.0011,0.0286,0.0365,0,0,0,0,0,0,0,0,0,0,0,0,0.0104,-0.0025,-0.0217,-0.0137,-0.0044,0.0019,0.0025,-0.0047,-0.0077,-0.0082,-0.0071,-0.0027,-0.0003,-0.0146,-0.0179,-0.0148,-0.0022,-0.0071,-0.0129,-0.0203,-0.0168,-0.0231,-0.0519,0,0,0,-0.0742,-0.0676,-0.0162,-0.0198,-0.0137,-0.006,-0.0074,-0.003,0.0184,0,0,0,0,0,0,0,0.017,-0.0019,0.0044,0.0022,-0.0003,0.003,-0.0091,-0.0401,-0.0404,-0.0231,-0.0005,-0.0011,-0.0102,-0.0137,-0.0157,-0.0159,-0.0124,-0.0088,-0.0104,-0.0082,-0.0074,-0.0022,-0.0162,-0.0261,0,0,-0.0415,-0.0585,-0.0154,-0.0324,-0.0689,-0.0533,-0.1761,0,0,0,0,0,0,0,0,0.0126,0.0082,0.0047,0.0038,0.0047,0.0074,0.0173,0.0096,0.0055,0.0022,-0.0022,-0.0077,-0.0168,-0.028,-0.033,-0.028,-0.0096,-0.0052,-0.0069,-0.0118,-0.017,-0.0148,-0.0118,-0.0091,-0.0159,0,0,-0.0088,-0.0157,-0.0288,-0.0047,-0.0038,-0.0319,-0.0439,-0.0346,-0.0492,-0.0805,0,-0.159,-0.0319,-0.0157,-0.0184,-0.0176,-0.0137,-0.0047,0.0036,0.0066,0.0091,0.0069,0.0058,0.0066,0.008,0.0107,0.0135,0.011,0.0063,0.0022,-0.003,-0.0135,-0.0239,-0.0324,-0.0374,-0.0349,-0.0192,-0.0082,-0.0055,-0.0104,-0.0176,-0.0176,-0.0195,-0.0225,-0.031,-0.0041,-0.0033,-0.0104,-0.0143,-0.0168,-0.0088,-0.0074,-0.0242,-0.0387,-0.0508,-0.0621,-0.0769,-0.042,-0.0862,-0.0294,-0.0176,-0.0255,-0.0266,-0.0198,-0.0074,0.0025,0.0063,0.0055,0.0058,0.0077,0.0113,0.0148,0.0157,0.0115,0.0049,-0.0033,-0.0088,-0.0124,-0.0231,-0.036,-0.0467,-0.0486,-0.0374,-0.0214,-0.0143,-0.0157,-0.0176,-0.0277,-0.036,-0.0222,-0.011,-0.0184,-0.003,-0.0041,-0.0091,-0.011,-0.0104,-0.0102,-0.0121,-0.0211,-0.0341,-0.0456,-0.0552,-0.0577,-0.0431,-0.0448,-0.0264,-0.0214,-0.0343,-0.0404,-0.0305,-0.0135,-0.0003,0.0047,0.0049,0.0052,0.0091,0.0159,0.0181,0.0137,0.0069,-0.0016,-0.0107,-0.0179,-0.0228,-0.0316,-0.0442,-0.0519,-0.0516,-0.0398,-0.0324,-0.0349,-0.0379,-0.0217,-0.0192,-0.0176,-0.0137,-0.0203,-0.0291,0.0011,-0.0014,-0.0033,-0.0058,-0.0071,-0.0096,-0.0151,-0.025,-0.0374,-0.0489,-0.056,-0.056,-0.0483,-0.0417,-0.0321,-0.0286,-0.0371,-0.0439,-0.0363,-0.019,-0.0047,0.0014,0.0027,0.0055,0.0124,0.0184,0.0176,0.0146,0.0082,-0.003,-0.0126,-0.0201,-0.0291,-0.0398,-0.053,-0.0558,-0.058,-0.0574,-0.0582,-0.0376,-0.0047,0.0038,0.0069,-0.0146,-0.0201,-0.0217,-0.0264,0.0082,0.0044,0.0014,-0.0025,-0.0074,-0.0132,-0.0211,-0.0297,-0.0382,-0.047,-0.0536,-0.0558,-0.0536,-0.0492,-0.045,-0.0456,-0.0439,-0.0407,-0.0343,-0.0206,-0.0082,-0.0014,0.0025,0.0077,0.017,0.0228,0.0214,0.0179,0.0063,-0.0118,-0.0255,-0.036,-0.0459,-0.0566,-0.0673,-0.0703,-0.0805,-0.0585,-0.0365,0.0099,0.0363,0.0038,-0.0033,-0.0052,-0.0082,-0.0014,-0.0063,0.0203,0.0118,0.0047,-0.0011,-0.0077,-0.0135,-0.0201,-0.0258,-0.031,-0.0379,-0.045,-0.0508,-0.0527,-0.05,-0.0467,-0.0516,-0.0505,-0.0434,-0.0324,-0.0184,-0.0077,0.0008,0.0066,0.017,0.0266,0.0275,0.0198,0.0038,-0.0157,-0.0365,-0.0492,-0.0585,-0.0659,-0.0709,-0.0827,-0.0873,-0.0673,-0.0146,0.0104,0.0148,0.0074,0.0005,-0.0027,0.0154,0.0041,-0.0115,-0.0217,0.0308,0.0132,-0.0008,-0.008,-0.0118,-0.0124,-0.0162,-0.0192,-0.0225,-0.0283,-0.0352,-0.0434,-0.0497,-0.0514,-0.0461,-0.0464,-0.0497,-0.045,-0.0305,-0.0176,-0.006,0.0102,0.0236,0.0297,0.0244,0.0077,-0.0085,-0.0283,-0.0478,-0.0634,-0.0692,-0.0717,-0.0722,-0.0868,-0.095,-0.067,-0.0225,0.0025,0.008,-0.0038,-0.0047,0.0099,0.0027,-0.0102,-0.0088,-0.0148,-0.0253,0.0286,-0.0022,-0.0277,-0.0308,-0.0151,-0.0074,-0.011,-0.0143,-0.0173,-0.0214,-0.0272,-0.0363,-0.0453,-0.0536,-0.0549,-0.053,-0.0492,-0.0398,-0.028,-0.017,0.0025,0.0288,0.0371,0.0181,-0.0066,-0.0244,-0.0368,-0.0492,-0.0637,-0.0725,-0.0706,-0.0667,-0.0849,-0.1033,-0.0764,-0.0357,-0.014,-0.0176,-0.0146,-0.0047,-0.0025,-0.0074,-0.0102,-0.0176,-0.0198,-0.0247,-0.0299,0.0063,-0.0349,-0.0544,-0.028,0.0176,0.0277,0.0214,0.0115,0.0,-0.0104,-0.0222,-0.0346,-0.0459,-0.0538,-0.0582,-0.061,-0.0538,-0.0396,-0.028,-0.0154,0.0091,0.0308,0.0239,-0.0113,-0.0387,-0.0423,-0.0412,-0.047,-0.0593,-0.0621,-0.0588,-0.0802,-0.103,-0.0868,-0.0547,-0.0434,-0.0385,-0.0343,-0.0286,-0.0179,-0.0088,-0.0096,-0.0096,-0.0165,-0.0244,-0.028,-0.0244,-0.0286,-0.0585,-0.0368,0.0297,0.064,0.0582,0.0456,0.0335,0.0211,0.0091,-0.006,-0.0231,-0.0412,-0.056,-0.0678,-0.0747,-0.0648,-0.0439,-0.0299,-0.0179,-0.0008,0.0088,-0.0014,-0.0324,-0.0538,-0.0494,-0.0343,-0.0297,-0.0409,-0.0533,-0.0788,-0.1035,-0.0945,-0.0733,-0.0755,-0.0758,-0.0673,-0.0475,-0.0283,-0.0129,-0.0019,0.0003,-0.0027,-0.0055,-0.0074,-0.0038,0.0066,-0.0547,-0.0393,0.0261,0.0667,0.0569,0.036,0.0231,0.0195,0.0181,0.014,0.0033,-0.0151,-0.0382,-0.0623,-0.0824,-0.0906,-0.0816,-0.061,-0.0439,-0.0272,-0.0143,-0.0137,-0.0269,-0.0516,-0.0643,-0.0563,-0.0341,-0.0203,-0.039,-0.0813,-0.1079,-0.1052,-0.0983,-0.1085,-0.1176,-0.1077,-0.0832,-0.0538,-0.0286,-0.0113,0.0005,0.0096,0.0162,0.0228,0.0297,0.0374,0.0464,-0.0461,0.0181,0.0665,0.0511,0.0244,0.0129,0.0176,0.0343,0.0434,0.0412,0.0264,0.0008,-0.0297,-0.0607,-0.0849,-0.0983,-0.0972,-0.0827,-0.0634,-0.0434,-0.033,-0.0363,-0.0505,-0.0692,-0.0753,-0.0651,-0.0494,-0.0497,-0.078,-0.1107,-0.1165,-0.1233,-0.1447,-0.1632,-0.1538,-0.1241,-0.0906,-0.0588,-0.0324,-0.0143,0.0,0.0157,0.0335,0.0519,0.0648,0.0717,0.0753,0.0025,0.0698,0.0637,0.0354,0.025,0.0437,0.0753,0.106,0.1187,0.1126,0.0912,0.0604,0.025,-0.0129,-0.047,-0.0709,-0.0783,-0.0733,-0.0585,-0.0456,-0.039,-0.0393,-0.0541,-0.0744,-0.0777,-0.0709,-0.0816,-0.1057,-0.1165,-0.1255,-0.142,-0.173,-0.2046,-0.1997,-0.1651,-0.1236,-0.084,-0.0478,-0.019,0.0011,0.0162,0.0321,0.0516,0.0725,0.0849,0.0862,0.0862,0.064,0.0904,0.0591,0.0431,0.0585,0.1005,0.1395,0.1618,0.1681,0.1574,0.1349,0.1066,0.0777,0.0464,0.0159,-0.0088,-0.0222,-0.028,-0.0297,-0.0299,-0.0228,-0.022,-0.0401,-0.0613,-0.0687,-0.084,-0.1285,-0.1401,-0.1387,-0.1555,-0.192,-0.2379,-0.2461,-0.2107,-0.1662,-0.1236,-0.0832,-0.0472,-0.0173,0.0074,0.0286,0.047,0.0626,0.0747,0.0813,0.0821,0.0854]}],[{"header":{"parameterUnit":"m.s-1","parameterCategory":2,"la1":30.8641,"la2":29.7642,"lo1":-88.4676,"lo2":-86.9344,"dy":0.0333,"dx":0.0333,"nx":47,"ny":34,"refTime":"2023-09-07T00:00:00:Z","depth":"8","parameterNumber":2,"parameterNumberName":"U-component_of_CURRENTS"},"data":[0,0,0,0,0,0,0,0,0,0,0,0,0,0,0,0,0,0,0,0,0,0,0,0,0,0,0,0,0,0,0,0,0,0,0,0,0,0,0,0,0,0,0,0,0,0,0,0,0,0,0,0,0,0,0,0,0,0,0,0,0,0,0,0,0,0,0,0,0,0,0,0,0,0,0,0,0,0,0,0,0,0,0,0,0,0,0,0,0,0,0,0,0,0,0,0,0,0,0,0,0,0,0,0,0,0,0,0,0,0,0,0,0,0,0,0,0,0,0,0,0,0,0,0,0,0,0,0,0,0,0,0,0,0,0,0,0,0,0,0,0,0,0,0,0,0,0,0,0,0,0,0,0,0,0,0,0,0,0,0,0,0,0,0,0,0,0,0,0,0,0,0,0,0,0,0,0,0,0,0,0,0,0,0,0,0,0,0,0,0,0,0,0,0,0,0,0,0,0,0,0,0,0,0,0,0,0,0,0,0,0,0,0,0,0,0,0,0,0,0,0,0,0,0,0,0,0,0,0,0,0,0,0,0,0,0,0,0,0,0,0,0,0,0,0,0,0,0,0,0,0,0,0,0,0,0,0,0,0,0,0,0,0,0,0,0,0,0,0,0,0,0,0,0,0,0,0,0,0,0,0,0,0,0,0,0,0,0,0,0,0,0,0,0,0,0,-0.0143,-0.0283,0,0,0,0,0,0,0,0,0,0,0,0,0,0,0,0,0,0,0,0,0,0,0,0,0,0,0,0,0,0,0,0,0,0,0,0,0,0,0,0,0,0,0,0,0.0099,-0.0099,-0.0099,0.0198,0,0,0,0,0,0,0,0,0,0,0,0,0,0,0,0,0,0,0,0,0,0,0,0,0,0,0,0,0,0,0,0,0,0,0,0,0,0,0,0,0,0,0,0.0,0.0027,0.0085,0.0118,0,0,0,0,0,0,0,0,0,0,0,0,0,0,0,0,0,0,0,0,0,0,0,0,0,0,0,0,0,0,0,0,0,0,0,0,0,0,0,0,0,0,0.006,0.0113,0.0126,0.0239,0.0327,0,0,0,0,0,0,0,0,0,0,0,0,0,0,0,0,0,0,0,0,0,0,0,0,0,0,0,0,0,0,0,0,0,0,0,0,0,0,0,0,0,0,-0.0019,0.0102,0.0291,0.0401,0.0456,0,0,0,0,0,0,0,0,0,0,0,0,0,0,0,0,0,0,0,0,0,0,0,0,0,0,0,0,0,0,0,0,0,0,0,0,0,0,0,0,0,0,-0.0093,-0.0102,0.025,0.0503,0.0486,0,0,0,0,0,0,0,0,0,0,0,0,0,0,0,0,0,0,0,0,0,0,0,0,0,0,0,0,0,0,0,0,0,0,0,0,0,0,0,0,0,0,0.0151,-0.0011,0.0179,0.0382,0.0374,0,0,0,0,0,0,0,0,0,0,0,0,0,0,0,0,0,0,0,0,0,0,0,0,0,0,0.0126,0.0253,0,0,0,0,0,0,0,0,0,0,0,0,0,0.0091,0.011,0.0044,0.0228,0.0288,0.0173,0,0,0,0,0,0,0,0,0,0,0,0,0,0,0,0,0,0,0,0,0,0,0.0165,0.0316,0.0393,0.008,0.0044,0.0417,0,0,0,0,0,0,0,0,0,0,0,0,0,0.0014,-0.0049,-0.0049,0.0217,0.0313,0.0157,0.0093,0,0,0,0,0,0,0,0,0,0,0,0,0,0,0,0,0,0,0,0,0.0264,0.056,0.0525,0.0453,0,0,0,0,0,0,0,0,0.008,0.0176,0.0192,0,0,0,0,0,-0.0022,-0.0082,-0.0041,0.0209,0.0338,0.0192,0.0091,0.014,0,0,0,0,0,0,0,0,0,0,0,0,0,0,0,0,0,0,0.014,0.022,0,0,0,0,0,0,0,0.0085,0,0.0036,0.0137,0.0275,0.0327,0.0302,0,0,0,0,0,-0.0036,-0.0088,-0.0069,0.014,0.036,0.0321,0.0146,-0.0008,-0.0071,0,0,0,0,0,0,0,0,0,0,0,0,0,0,0,0,0.0379,0.0222,0,0,0.0113,0.0129,0.0118,0.0115,0.0165,0.0277,0.0239,0.0102,0.0008,0.0102,0.0269,0.0387,0.0461,0.0266,-0.0055,-0.0261,-0.0201,0.008,0.0258,0.0115,-0.0022,0.0126,0.0352,0.0445,0.0363,0.0162,-0.0113,-0.0244,0,0,0,0,0,0,0,0,0,0,0,0,0.0069,0.0201,0.0385,0.0442,0.0324,0.0184,0.0217,0.0269,0.028,0.0288,0.0286,0.025,0.011,-0.0008,0.0091,-0.0115,-0.0036,0.0066,0.0266,0.0338,0.0247,0.0162,0.0049,0,0,0,-0.0192,-0.0335,-0.0027,0.0297,0.0409,0.0448,0.0426,0.0417,0.0431,0,0,0,0,0,0,0,0.008,0.0266,0.0393,0.0417,0.0434,0.0396,0.0302,0.0253,0.019,0.0069,0.0082,0.0159,0.022,0.0247,0.022,0.0132,0.0044,0.0027,0.0047,0.0261,0.0206,0.0187,0.0104,0.006,0,0,0.0088,0.028,0.0264,-0.0137,-0.0494,-0.0044,0.0483,0,0,0,0,0,0,0,0,0.0071,0.019,0.0272,0.033,0.0376,0.0445,0.0461,0.0448,0.0475,0.0503,0.0505,0.0481,0.0442,0.0437,0.0461,0.0428,0.0294,0.014,0.0077,0.006,0.0047,0.0085,0.0143,0.017,0.0148,0,0,0.0016,0.0058,0.0143,0.022,0.022,0.0338,0.031,0.0269,0.0201,0.014,0,0.0439,0.078,0.061,0.0464,0.0332,0.0222,0.0162,0.0173,0.0239,0.0275,0.0272,0.0299,0.0349,0.0401,0.0453,0.05,0.0544,0.0566,0.0577,0.0613,0.0667,0.0692,0.0681,0.061,0.0445,0.0286,0.0209,0.0168,0.0146,0.0132,0.0129,0.0121,0.0096,0.006,0.0343,0.0338,0.0324,0.0305,0.0313,0.0316,0.0283,0.0269,0.0291,0.0319,0.0343,0.0439,0.0335,0.0374,0.0607,0.0593,0.0522,0.0401,0.0297,0.0239,0.0231,0.025,0.028,0.031,0.0335,0.0368,0.0417,0.0508,0.0637,0.0739,0.0783,0.0786,0.0783,0.0766,0.0684,0.0516,0.0316,0.019,0.0148,0.011,0.006,0.0011,-0.0022,-0.006,-0.0181,-0.036,-0.0492,0.0316,0.0354,0.039,0.0439,0.0478,0.05,0.0505,0.0505,0.0522,0.0547,0.0569,0.0585,0.0563,0.0571,0.0607,0.0593,0.0569,0.0516,0.0428,0.036,0.033,0.0332,0.0346,0.0363,0.0387,0.0439,0.0538,0.0623,0.0623,0.058,0.0538,0.05,0.0431,0.0352,0.0272,0.0192,0.0104,0.0047,0.0008,-0.0036,-0.0096,-0.0203,-0.0269,-0.0445,-0.0527,-0.0302,-0.0074,0.0426,0.0483,0.0527,0.0566,0.0593,0.0623,0.0648,0.0662,0.0678,0.0703,0.0728,0.0744,0.0736,0.0714,0.0667,0.0604,0.0569,0.0563,0.0541,0.0492,0.0448,0.042,0.0415,0.0428,0.0481,0.058,0.0634,0.058,0.0519,0.0481,0.042,0.036,0.0288,0.0168,0.0011,-0.0104,-0.0121,-0.0096,-0.0209,-0.039,-0.0684,-0.086,-0.0643,-0.0195,0.0137,0.0063,-0.0151,0.0445,0.0552,0.0648,0.0733,0.0786,0.0786,0.075,0.0687,0.0632,0.0621,0.064,0.0654,0.0637,0.0607,0.0593,0.0569,0.0519,0.05,0.0519,0.0527,0.0525,0.0522,0.0555,0.0634,0.07,0.0728,0.0733,0.0714,0.0673,0.0577,0.0417,0.0225,0.0019,-0.0173,-0.0294,-0.0319,-0.0376,-0.0695,-0.1085,-0.1077,-0.0634,-0.0335,-0.0126,-0.025,-0.0615,-0.0577,-0.0478,0.0481,0.0648,0.0709,0.0684,0.0629,0.0558,0.0486,0.0439,0.0423,0.0437,0.0442,0.0415,0.0368,0.0321,0.031,0.0332,0.0376,0.0426,0.0453,0.0483,0.0525,0.0615,0.0736,0.0813,0.084,0.081,0.0725,0.0577,0.0387,0.0203,0.0025,-0.0159,-0.0346,-0.05,-0.0602,-0.0797,-0.1129,-0.1162,-0.0915,-0.0676,-0.0464,-0.061,-0.0915,-0.0857,-0.081,-0.097,-0.1099,0.0467,0.0489,0.0379,0.0206,0.006,0.003,0.0085,0.0162,0.0236,0.0316,0.0417,0.0505,0.0519,0.0467,0.0365,0.0269,0.0217,0.0231,0.0308,0.0382,0.0445,0.0536,0.0626,0.067,0.0643,0.0492,0.0195,-0.0118,-0.0299,-0.0365,-0.0412,-0.0489,-0.0574,-0.0623,-0.0887,-0.1214,-0.1263,-0.1079,-0.0827,-0.086,-0.1082,-0.1066,-0.103,-0.1148,-0.1335,-0.1533,-0.1717,0.0291,0.0143,-0.0107,-0.0354,-0.0428,-0.0343,-0.0198,-0.0049,0.0063,0.014,0.0198,0.0253,0.0291,0.0319,0.031,0.0247,0.0187,0.0176,0.0165,0.0137,0.0187,0.0297,0.0374,0.0324,0.0074,-0.0244,-0.0503,-0.07,-0.0772,-0.0695,-0.0604,-0.0591,-0.0634,-0.0884,-0.1313,-0.1412,-0.1288,-0.1263,-0.1214,-0.1132,-0.1181,-0.1332,-0.1533,-0.187,-0.2173,-0.2439,-0.2651,0.0082,-0.0195,-0.0461,-0.0522,-0.0346,-0.0082,0.0143,0.033,0.0478,0.0585,0.0643,0.0643,0.0607,0.0552,0.0494,0.0409,0.0316,0.025,0.022,0.0214,0.0253,0.0231,0.0069,-0.0146,-0.0379,-0.0621,-0.0813,-0.0923,-0.0882,-0.0695,-0.0566,-0.0552,-0.0893,-0.1522,-0.17,-0.1585,-0.1447,-0.1285,-0.1338,-0.1549,-0.1796,-0.2112,-0.2428,-0.2799,-0.3208,-0.3565,-0.3829,-0.0099,-0.0346,-0.0393,-0.0179,0.0099,0.0275,0.0393,0.0497,0.061,0.075,0.0912,0.1074,0.1192,0.1209,0.1162,0.1079,0.0906,0.0706,0.0591,0.0527,0.042,0.0222,-0.0025,-0.0258,-0.0478,-0.0667,-0.0799,-0.0843,-0.0706,-0.0508,-0.0428,-0.0865,-0.167,-0.1958,-0.1807,-0.164,-0.1563,-0.1678,-0.1994,-0.2332,-0.2642,-0.3041,-0.3453,-0.3892,-0.434,-0.4705,-0.4897,-0.0236,-0.0393,-0.0132,0.0244,0.0349,0.0269,0.0198,0.0231,0.0376,0.0585,0.0805,0.1,0.1167,0.1302,0.1376,0.1371,0.1285,0.1145,0.0983,0.0824,0.0665,0.0459,0.0148,-0.0176,-0.0376,-0.0486,-0.0519,-0.0508,-0.0467,-0.0437,-0.0981,-0.1802,-0.2071,-0.1997,-0.1859,-0.1881,-0.2093,-0.2401,-0.2758,-0.3137,-0.3582,-0.4054,-0.4433,-0.4809,-0.5128,-0.5337,-0.5441,-0.0352,-0.0096,0.0341,0.0365,0.0049,-0.0231,-0.0319,-0.0228,-0.003,0.0225,0.0461,0.0654,0.0816,0.0967,0.1096,0.1173,0.1173,0.1085,0.0942,0.0813,0.0703,0.0538,0.0236,-0.0118,-0.033,-0.0382,-0.0291,-0.0168,-0.031,-0.1027,-0.1849,-0.2137,-0.2109,-0.2063,-0.217,-0.2414,-0.2763,-0.3145,-0.3573,-0.4076,-0.4573,-0.4895,-0.5114,-0.5287,-0.543,-0.5584,-0.5699,-0.0132,0.0299,0.0286,-0.0118,-0.0456,-0.0618,-0.0571,-0.0376,-0.0143,0.0063,0.0198,0.0283,0.0346,0.0415,0.0505,0.0582,0.0621,0.0615,0.0588,0.0563,0.0522,0.0417,0.0154,-0.0192,-0.0371,-0.0313,-0.0085,-0.0063,-0.0788,-0.173,-0.212,-0.2109,-0.2098,-0.2307,-0.2678,-0.3074,-0.3494,-0.3947,-0.4395,-0.4834,-0.5169,-0.5386,-0.5499,-0.5546,-0.5581,-0.565,-0.5664,0.0275,0.0308,-0.0027,-0.0297,-0.0382,-0.0316,-0.0151,0.0016,0.0159,0.0264,0.0302,0.0277,0.0228,0.0203,0.0217,0.0242,0.0272,0.0332,0.0407,0.045,0.0426,0.0308,0.0044,-0.0266,-0.0404,-0.019,0.0093,-0.0409,-0.1395,-0.1925,-0.1991,-0.2002,-0.2255,-0.2733,-0.3183,-0.3587,-0.3972,-0.4351,-0.4705,-0.5024,-0.5276,-0.543,-0.5499,-0.5477,-0.5392,-0.5331,-0.5318]},{"header":{"parameterUnit":"m.s-1","parameterCategory":2,"la1":30.8641,"la2":29.7642,"lo1":-88.4676,"lo2":-86.9344,"dy":0.0333,"dx":0.0333,"nx":47,"ny":34,"refTime":"2023-09-07T00:00:00:Z","depth":"8","parameterNumber":3,"parameterNumberName":"V-component_of_CURRENTS"},"data":[0,0,0,0,0,0,0,0,0,0,0,0,0,0,0,0,0,0,0,0,0,0,0,0,0,0,0,0,0,0,0,0,0,0,0,0,0,0,0,0,0,0,0,0,0,0,0,0,0,0,0,0,0,0,0,0,0,0,0,0,0,0,0,0,0,0,0,0,0,0,0,0,0,0,0,0,0,0,0,0,0,0,0,0,0,0,0,0,0,0,0,0,0,0,0,0,0,0,0,0,0,0,0,0,0,0,0,0,0,0,0,0,0,0,0,0,0,0,0,0,0,0,0,0,0,0,0,0,0,0,0,0,0,0,0,0,0,0,0,0,0,0,0,0,0,0,0,0,0,0,0,0,0,0,0,0,0,0,0,0,0,0,0,0,0,0,0,0,0,0,0,0,0,0,0,0,0,0,0,0,0,0,0,0,0,0,0,0,0,0,0,0,0,0,0,0,0,0,0,0,0,0,0,0,0,0,0,0,0,0,0,0,0,0,0,0,0,0,0,0,0,0,0,0,0,0,0,0,0,0,0,0,0,0,0,0,0,0,0,0,0,0,0,0,0,0,0,0,0,0,0,0,0,0,0,0,0,0,0,0,0,0,0,0,0,0,0,0,0,0,0,0,0,0,0,0,0,0,0,0,0,0,0,0,0,0,0,0,0,0,0,0,0,0,0,0,0.0231,0.0302,0,0,0,0,0,0,0,0,0,0,0,0,0,0,0,0,0,0,0,0,0,0,0,0,0,0,0,0,0,0,0,0,0,0,0,0,0,0,0,0,0,0,0,0,0.0288,0.0404,0.039,0.0335,0,0,0,0,0,0,0,0,0,0,0,0,0,0,0,0,0,0,0,0,0,0,0,0,0,0,0,0,0,0,0,0,0,0,0,0,0,0,0,0,0,0,0,0.0417,0.0533,0.0371,0.0217,0,0,0,0,0,0,0,0,0,0,0,0,0,0,0,0,0,0,0,0,0,0,0,0,0,0,0,0,0,0,0,0,0,0,0,0,0,0,0,0,0,0,0.0385,0.0582,0.0417,0.0187,0.0085,0,0,0,0,0,0,0,0,0,0,0,0,0,0,0,0,0,0,0,0,0,0,0,0,0,0,0,0,0,0,0,0,0,0,0,0,0,0,0,0,0,0,0.0439,0.0574,0.0398,0.0099,0.0096,0,0,0,0,0,0,0,0,0,0,0,0,0,0,0,0,0,0,0,0,0,0,0,0,0,0,0,0,0,0,0,0,0,0,0,0,0,0,0,0,0,0,0.0547,0.0483,0.0313,-0.0005,0.017,0,0,0,0,0,0,0,0,0,0,0,0,0,0,0,0,0,0,0,0,0,0,0,0,0,0,0,0,0,0,0,0,0,0,0,0,0,0,0,0,0,0,0.0599,0.0453,0.0203,-0.0049,0.0231,0,0,0,0,0,0,0,0,0,0,0,0,0,0,0,0,0,0,0,0,0,0,0,0,0,0,-0.0071,-0.0176,0,0,0,0,0,0,0,0,0,0,0,0,0,0.0398,0.0489,0.0412,0.0179,0.0003,0.0168,0,0,0,0,0,0,0,0,0,0,0,0,0,0,0,0,0,0,0,0,0,0,0.025,0.017,0.0165,0.0,-0.0036,-0.0088,0,0,0,0,0,0,0,0,0,0,0,0,0,0.0379,0.0341,0.0324,0.0115,-0.0038,0.0027,0.0118,0,0,0,0,0,0,0,0,0,0,0,0,0,0,0,0,0,0,0,0,0.0236,0.0124,0.0085,0.0082,0,0,0,0,0,0,0,0,0.0179,0.006,0.0632,0,0,0,0,0,0.0195,0.0277,0.0255,0.0129,-0.0055,-0.0082,0.0005,0.0168,0,0,0,0,0,0,0,0,0,0,0,0,0,0,0,0,0,0,0.0173,0.0118,0,0,0,0,0,0,0,0.0151,0,0.008,0.0159,0.0211,0.0154,0.0412,0,0,0,0,0,0.0211,0.0264,0.0192,0.0118,-0.0022,-0.0091,-0.0058,0.0201,0.0343,0,0,0,0,0,0,0,0,0,0,0,0,0,0,0,0,0.0132,0.0143,0,0,0.0022,-0.0016,-0.0027,0.0003,0.0074,0.0126,0.0003,-0.008,0.0033,0.022,0.0264,0.0233,0.0027,-0.0129,-0.0003,-0.0258,0.0,0.0,0.0159,0.0052,0.0154,0.0063,-0.011,-0.0085,-0.0022,0.006,0.0113,0.0247,0,0,0,0,0,0,0,0,0,0,0,0,0.0113,0.0055,0.0027,0.0049,0.0107,0.0055,0.0041,-0.0033,-0.0063,-0.0069,-0.006,-0.0019,0.0005,-0.0135,-0.0137,-0.0022,0.0173,0.0143,0.0074,-0.0069,-0.0066,-0.0266,-0.0475,0,0,0,-0.0376,-0.0475,0.0022,-0.0102,-0.0055,-0.0019,-0.0052,-0.0033,0.0124,0,0,0,0,0,0,0,0.0176,-0.0011,0.0055,0.0036,0.0008,0.0038,-0.0074,-0.0365,-0.0346,-0.0198,0.0011,0.0,-0.0085,-0.0121,-0.0143,-0.0148,-0.0115,-0.0077,-0.0093,-0.0099,-0.0016,-0.0011,-0.0082,-0.0222,0,0,-0.0401,-0.0459,-0.0096,-0.0291,-0.0571,-0.0294,-0.1327,0,0,0,0,0,0,0,0,0.0129,0.0085,0.0049,0.0041,0.0049,0.0074,0.0179,0.0102,0.0063,0.003,-0.0014,-0.0069,-0.0159,-0.0272,-0.0316,-0.0264,-0.0085,-0.0041,-0.0055,-0.0107,-0.0157,-0.0135,-0.0104,-0.0077,-0.0146,0,0,-0.0074,-0.0148,-0.028,-0.0025,-0.0077,-0.0258,-0.0327,-0.0305,-0.0461,-0.0706,0,-0.131,-0.0299,-0.0157,-0.0179,-0.0165,-0.0129,-0.0038,0.0038,0.0069,0.0093,0.0071,0.006,0.0066,0.008,0.0107,0.0137,0.0115,0.0071,0.0027,-0.0022,-0.0124,-0.0228,-0.031,-0.0363,-0.0335,-0.0181,-0.0069,-0.0038,-0.0088,-0.0159,-0.0162,-0.0181,-0.0203,-0.0291,-0.0027,-0.0022,-0.0088,-0.0137,-0.0162,-0.0071,-0.0085,-0.0214,-0.0385,-0.0503,-0.0613,-0.0739,-0.0415,-0.081,-0.0286,-0.0173,-0.025,-0.0258,-0.019,-0.0069,0.003,0.0066,0.0058,0.006,0.008,0.0113,0.0151,0.0165,0.0121,0.0058,-0.0025,-0.008,-0.0113,-0.022,-0.0349,-0.0453,-0.0475,-0.036,-0.0201,-0.0124,-0.0135,-0.0157,-0.0258,-0.0343,-0.0211,-0.0093,-0.0165,-0.0025,-0.003,-0.0088,-0.011,-0.0104,-0.0102,-0.0118,-0.0211,-0.0341,-0.0456,-0.0549,-0.0571,-0.0428,-0.0442,-0.0261,-0.0214,-0.0341,-0.0398,-0.0299,-0.0129,0.0003,0.0052,0.0055,0.0058,0.0096,0.0165,0.019,0.0148,0.0077,-0.0008,-0.0102,-0.017,-0.022,-0.0308,-0.0431,-0.0505,-0.0503,-0.0379,-0.0305,-0.0324,-0.0354,-0.0206,-0.0176,-0.0162,-0.0129,-0.0198,-0.0288,0.0011,-0.0014,-0.0036,-0.0058,-0.0071,-0.0093,-0.0148,-0.0247,-0.0371,-0.0483,-0.0555,-0.0555,-0.0481,-0.0412,-0.0316,-0.028,-0.0368,-0.0439,-0.036,-0.0187,-0.0044,0.0019,0.0033,0.006,0.0132,0.0195,0.0187,0.0154,0.0091,-0.0025,-0.0118,-0.019,-0.028,-0.0385,-0.0511,-0.0538,-0.0558,-0.0544,-0.056,-0.0357,-0.0033,0.0047,0.0071,-0.0132,-0.0181,-0.0195,-0.0247,0.008,0.0047,0.0016,-0.0022,-0.0071,-0.0126,-0.0206,-0.0291,-0.0376,-0.0464,-0.0533,-0.0555,-0.053,-0.0486,-0.0445,-0.045,-0.0434,-0.0407,-0.0343,-0.0206,-0.008,-0.0011,0.003,0.0085,0.0179,0.0236,0.0222,0.0187,0.0074,-0.0107,-0.0244,-0.0343,-0.0445,-0.0547,-0.0648,-0.0678,-0.0783,-0.0569,-0.0354,0.0107,0.0374,0.0052,-0.0022,-0.0033,-0.0036,0.0014,-0.0041,0.0203,0.0121,0.0049,-0.0005,-0.0074,-0.0132,-0.0198,-0.0253,-0.0308,-0.0374,-0.0445,-0.0505,-0.0522,-0.0494,-0.0461,-0.0508,-0.0497,-0.0428,-0.0321,-0.0179,-0.0074,0.0014,0.0071,0.0173,0.0272,0.028,0.0203,0.0049,-0.0143,-0.0346,-0.0472,-0.0566,-0.064,-0.0684,-0.0799,-0.0854,-0.0662,-0.0137,0.011,0.0157,0.0091,0.0019,-0.0011,0.0187,0.0071,-0.0088,-0.0201,0.031,0.0135,-0.0003,-0.0077,-0.0115,-0.0121,-0.0159,-0.019,-0.0222,-0.0277,-0.0343,-0.0428,-0.0492,-0.0505,-0.0453,-0.0456,-0.0489,-0.0442,-0.0297,-0.0168,-0.0055,0.0107,0.0239,0.0299,0.025,0.0082,-0.0074,-0.0264,-0.0459,-0.061,-0.067,-0.0695,-0.07,-0.084,-0.0937,-0.0665,-0.022,0.0033,0.0091,-0.0025,-0.003,0.0118,0.0047,-0.0074,-0.0071,-0.0132,-0.0239,0.0288,-0.0016,-0.0275,-0.0305,-0.0148,-0.0074,-0.011,-0.0143,-0.0173,-0.0211,-0.0272,-0.0357,-0.0448,-0.0527,-0.0541,-0.0522,-0.0483,-0.0393,-0.0275,-0.0165,0.003,0.0291,0.0374,0.0184,-0.006,-0.0236,-0.0354,-0.0467,-0.0615,-0.0703,-0.0687,-0.0651,-0.0829,-0.1025,-0.0761,-0.0354,-0.0132,-0.0162,-0.0129,-0.0036,-0.0011,-0.0066,-0.0096,-0.0165,-0.0181,-0.0236,-0.0288,0.0066,-0.0343,-0.0538,-0.028,0.017,0.0269,0.0206,0.011,-0.0003,-0.011,-0.0228,-0.0349,-0.0459,-0.0538,-0.058,-0.0607,-0.0533,-0.0393,-0.0277,-0.0148,0.0093,0.031,0.0242,-0.011,-0.0385,-0.0417,-0.0401,-0.0448,-0.0571,-0.0607,-0.0571,-0.0794,-0.103,-0.0871,-0.0544,-0.0426,-0.0374,-0.0332,-0.0275,-0.0173,-0.0082,-0.0091,-0.0085,-0.0151,-0.0236,-0.0272,-0.0239,-0.0283,-0.0582,-0.0371,0.0266,0.0613,0.0571,0.045,0.033,0.0209,0.0091,-0.0063,-0.0236,-0.042,-0.0566,-0.0684,-0.075,-0.0651,-0.0442,-0.0299,-0.0179,-0.0008,0.0091,-0.0008,-0.0321,-0.0533,-0.0492,-0.0335,-0.028,-0.0396,-0.0527,-0.0783,-0.1063,-0.0964,-0.0739,-0.0747,-0.0747,-0.0662,-0.047,-0.0277,-0.0132,-0.0022,0.0008,-0.0022,-0.0049,-0.0071,-0.0038,0.0063,-0.0544,-0.0404,0.017,0.0555,0.0527,0.0354,0.0233,0.0201,0.0187,0.0146,0.0038,-0.0148,-0.0385,-0.0626,-0.0829,-0.0912,-0.0824,-0.0615,-0.0445,-0.0275,-0.0143,-0.0137,-0.0266,-0.0514,-0.064,-0.056,-0.0332,-0.0187,-0.0379,-0.0808,-0.1082,-0.1093,-0.1003,-0.1079,-0.1165,-0.1068,-0.0829,-0.0541,-0.0302,-0.0137,-0.0005,0.0102,0.0162,0.0225,0.0283,0.0363,0.0456,-0.0467,0.0074,0.0486,0.0393,0.0233,0.0135,0.0184,0.0354,0.0439,0.0417,0.0266,0.0011,-0.0299,-0.0607,-0.0849,-0.0986,-0.0978,-0.0832,-0.0637,-0.0434,-0.033,-0.036,-0.0505,-0.0692,-0.075,-0.0645,-0.0475,-0.0448,-0.0772,-0.1107,-0.1184,-0.1266,-0.1442,-0.1623,-0.153,-0.1236,-0.0906,-0.0596,-0.0343,-0.0151,0.0003,0.0159,0.0338,0.0522,0.0656,0.0739,0.0775,-0.0071,0.0505,0.0505,0.0319,0.0258,0.0445,0.0758,0.1066,0.1187,0.1126,0.0912,0.0599,0.0244,-0.0132,-0.047,-0.0709,-0.0783,-0.0733,-0.0585,-0.0453,-0.0385,-0.0393,-0.0541,-0.0742,-0.0775,-0.07,-0.0755,-0.1014,-0.1159,-0.1266,-0.145,-0.1736,-0.2041,-0.1989,-0.1643,-0.1231,-0.0835,-0.0472,-0.019,0.0016,0.0168,0.0327,0.0525,0.0739,0.0876,0.0906,0.0882,0.0459,0.078,0.056,0.0434,0.0593,0.1011,0.1395,0.1618,0.1675,0.1571,0.1346,0.1063,0.0772,0.0467,0.0162,-0.0082,-0.0217,-0.0275,-0.0291,-0.0294,-0.0225,-0.022,-0.0404,-0.0613,-0.0681,-0.081,-0.1211,-0.1384,-0.1384,-0.161,-0.1978,-0.2373,-0.2456,-0.2101,-0.1656,-0.1233,-0.0827,-0.047,-0.017,0.008,0.0291,0.0475,0.0634,0.0761,0.0829,0.084,0.0865]}],[{"header":{"parameterUnit":"m.s-1","parameterCategory":2,"la1":30.8641,"la2":29.7642,"lo1":-88.4676,"lo2":-86.9344,"dy":0.0333,"dx":0.0333,"nx":47,"ny":34,"refTime":"2023-09-07T00:00:00:Z","depth":"10","parameterNumber":2,"parameterNumberName":"U-component_of_CURRENTS"},"data":[0,0,0,0,0,0,0,0,0,0,0,0,0,0,0,0,0,0,0,0,0,0,0,0,0,0,0,0,0,0,0,0,0,0,0,0,0,0,0,0,0,0,0,0,0,0,0,0,0,0,0,0,0,0,0,0,0,0,0,0,0,0,0,0,0,0,0,0,0,0,0,0,0,0,0,0,0,0,0,0,0,0,0,0,0,0,0,0,0,0,0,0,0,0,0,0,0,0,0,0,0,0,0,0,0,0,0,0,0,0,0,0,0,0,0,0,0,0,0,0,0,0,0,0,0,0,0,0,0,0,0,0,0,0,0,0,0,0,0,0,0,0,0,0,0,0,0,0,0,0,0,0,0,0,0,0,0,0,0,0,0,0,0,0,0,0,0,0,0,0,0,0,0,0,0,0,0,0,0,0,0,0,0,0,0,0,0,0,0,0,0,0,0,0,0,0,0,0,0,0,0,0,0,0,0,0,0,0,0,0,0,0,0,0,0,0,0,0,0,0,0,0,0,0,0,0,0,0,0,0,0,0,0,0,0,0,0,0,0,0,0,0,0,0,0,0,0,0,0,0,0,0,0,0,0,0,0,0,0,0,0,0,0,0,0,0,0,0,0,0,0,0,0,0,0,0,0,0,0,0,0,0,0,0,0,0,0,0,0,0,0,0,0,0,0,0,-0.014,-0.0277,0,0,0,0,0,0,0,0,0,0,0,0,0,0,0,0,0,0,0,0,0,0,0,0,0,0,0,0,0,0,0,0,0,0,0,0,0,0,0,0,0,0,0,0,0.0049,-0.0044,0.0,0.0192,0,0,0,0,0,0,0,0,0,0,0,0,0,0,0,0,0,0,0,0,0,0,0,0,0,0,0,0,0,0,0,0,0,0,0,0,0,0,0,0,0,0,0,-0.0011,0.0005,0.0077,0.0118,0,0,0,0,0,0,0,0,0,0,0,0,0,0,0,0,0,0,0,0,0,0,0,0,0,0,0,0,0,0,0,0,0,0,0,0,0,0,0,0,0,0,0.0041,0.006,0.0088,0.0233,0.0321,0,0,0,0,0,0,0,0,0,0,0,0,0,0,0,0,0,0,0,0,0,0,0,0,0,0,0,0,0,0,0,0,0,0,0,0,0,0,0,0,0,0,-0.0049,0.0,0.0162,0.0324,0.0426,0,0,0,0,0,0,0,0,0,0,0,0,0,0,0,0,0,0,0,0,0,0,0,0,0,0,0,0,0,0,0,0,0,0,0,0,0,0,0,0,0,0,-0.0085,-0.0124,0.011,0.0376,0.045,0,0,0,0,0,0,0,0,0,0,0,0,0,0,0,0,0,0,0,0,0,0,0,0,0,0,0,0,0,0,0,0,0,0,0,0,0,0,0,0,0,0,-0.0118,-0.0104,0.0102,0.031,0.0352,0,0,0,0,0,0,0,0,0,0,0,0,0,0,0,0,0,0,0,0,0,0,0,0,0,0,0.0052,0.0104,0,0,0,0,0,0,0,0,0,0,0,0,0,-0.0066,-0.0113,-0.0052,0.0146,0.0233,0.0168,0,0,0,0,0,0,0,0,0,0,0,0,0,0,0,0,0,0,0,0,0,0,0.0157,0.0302,0.0288,-0.0003,-0.0091,0.011,0,0,0,0,0,0,0,0,0,0,0,0,0,-0.0085,-0.0154,-0.0077,0.0129,0.0231,0.0135,0.0093,0,0,0,0,0,0,0,0,0,0,0,0,0,0,0,0,0,0,0,0,0.0239,0.042,0.0393,0.0428,0,0,0,0,0,0,0,0,0.008,0.0179,0.0198,0,0,0,0,0,-0.0091,-0.0154,-0.0088,0.0113,0.0266,0.0173,0.0091,0.0137,0,0,0,0,0,0,0,0,0,0,0,0,0,0,0,0,0,0,0.0132,0.0206,0,0,0,0,0,0,0,0.0085,0,0.0033,0.0115,0.0179,0.017,0.0143,0,0,0,0,0,-0.006,-0.0121,-0.0085,0.0107,0.0319,0.0294,0.011,-0.003,-0.0066,0,0,0,0,0,0,0,0,0,0,0,0,0,0,0,0,0.0321,0.0214,0,0,0.0113,0.0129,0.0121,0.0118,0.0168,0.028,0.0247,0.0099,0.0077,0.0118,0.014,0.017,0.0162,0.0104,-0.0085,-0.0264,-0.0176,0.0082,0.025,0.0107,-0.0022,0.011,0.0264,0.031,0.0195,-0.0016,-0.0148,-0.0157,0,0,0,0,0,0,0,0,0,0,0,0,0.0066,0.0195,0.033,0.036,0.022,0.0247,0.0255,0.0275,0.0288,0.0294,0.0294,0.0258,0.0121,0.0005,0.011,-0.0066,-0.0049,-0.0011,0.0124,0.0209,0.0135,0.0082,0.0044,0,0,0,-0.0181,-0.0308,-0.0058,0.0148,0.019,0.022,0.0159,0.0124,0.0148,0,0,0,0,0,0,0,0.0077,0.0261,0.0379,0.0404,0.0423,0.0385,0.0297,0.0308,0.0379,0.0173,0.0102,0.0176,0.0239,0.0269,0.0239,0.0148,0.0058,0.0036,0.0055,0.0201,0.0198,0.0179,0.0096,0.0047,0,0,0.008,0.0247,0.0231,-0.0132,-0.0448,-0.0044,0.0412,0,0,0,0,0,0,0,0,0.0071,0.019,0.0266,0.0321,0.0365,0.0434,0.0448,0.0439,0.047,0.0497,0.05,0.0478,0.0442,0.0437,0.0461,0.0437,0.0302,0.0151,0.0088,0.0071,0.006,0.0096,0.0151,0.0179,0.0165,0,0,0.0016,0.0058,0.014,0.022,0.0283,0.0308,0.0275,0.0258,0.019,0.0132,0,0.0393,0.07,0.0566,0.0448,0.033,0.0225,0.0168,0.0176,0.0242,0.0272,0.0269,0.0297,0.0343,0.0398,0.045,0.05,0.0538,0.0563,0.0574,0.0613,0.0667,0.0695,0.0681,0.0615,0.0456,0.0291,0.0211,0.0173,0.0154,0.0146,0.014,0.0129,0.0107,0.0071,0.0343,0.0341,0.0321,0.0305,0.0313,0.0321,0.0294,0.0272,0.0288,0.0316,0.0338,0.0415,0.033,0.0354,0.058,0.0571,0.0505,0.0396,0.0299,0.0247,0.0236,0.0255,0.0286,0.0313,0.0338,0.0368,0.0417,0.0503,0.0632,0.0736,0.0783,0.0788,0.0788,0.0775,0.0695,0.0533,0.0332,0.0198,0.0154,0.0118,0.0074,0.0027,-0.0008,-0.0052,-0.0176,-0.0332,-0.0393,0.0319,0.0357,0.0393,0.0439,0.0478,0.05,0.0503,0.0505,0.0519,0.0544,0.0566,0.058,0.056,0.0569,0.0602,0.0582,0.0552,0.0505,0.0428,0.0365,0.0338,0.0338,0.0352,0.0368,0.039,0.0439,0.0538,0.0626,0.0626,0.0582,0.0538,0.05,0.0437,0.0363,0.0286,0.0203,0.0115,0.006,0.0019,-0.0022,-0.0085,-0.0192,-0.025,-0.0354,-0.033,-0.0036,0.0203,0.0426,0.0483,0.0527,0.0563,0.0593,0.0623,0.0648,0.0662,0.0678,0.07,0.0722,0.0739,0.0733,0.0709,0.0665,0.0599,0.0558,0.0549,0.0536,0.0494,0.045,0.0426,0.042,0.0431,0.0486,0.0585,0.064,0.0588,0.0525,0.0483,0.0423,0.036,0.0291,0.0176,0.0022,-0.0088,-0.0104,-0.0082,-0.0192,-0.0376,-0.0645,-0.0766,-0.0434,0.0074,0.0385,0.0261,0.0005,0.0448,0.0552,0.0648,0.0733,0.0786,0.0788,0.0753,0.0695,0.064,0.0623,0.064,0.0656,0.0643,0.0618,0.0604,0.0571,0.0514,0.0492,0.0514,0.0527,0.0525,0.0525,0.0558,0.0637,0.0706,0.0733,0.0739,0.072,0.0676,0.0577,0.042,0.0228,0.0022,-0.0159,-0.0264,-0.0286,-0.0357,-0.0687,-0.1063,-0.0975,-0.045,-0.0146,0.0011,-0.0113,-0.0464,-0.0382,-0.0341,0.0481,0.0648,0.0711,0.0687,0.0632,0.056,0.0492,0.0445,0.0428,0.0442,0.0445,0.0417,0.0374,0.033,0.0316,0.0335,0.0379,0.0426,0.045,0.0481,0.0525,0.0615,0.0739,0.0819,0.0846,0.0819,0.0731,0.0585,0.0398,0.0211,0.0033,-0.0151,-0.0335,-0.0478,-0.0536,-0.0725,-0.1099,-0.1104,-0.0821,-0.0604,-0.0385,-0.0569,-0.0832,-0.0698,-0.0621,-0.0832,-0.1052,0.047,0.0489,0.0379,0.0209,0.0074,0.0058,0.0121,0.0187,0.0247,0.0324,0.0428,0.0508,0.0525,0.047,0.0365,0.0269,0.022,0.0231,0.0308,0.0385,0.0448,0.0538,0.0632,0.0676,0.0654,0.0503,0.0206,-0.0102,-0.0275,-0.0341,-0.0396,-0.0481,-0.0563,-0.0577,-0.0799,-0.1151,-0.1228,-0.1019,-0.0816,-0.0843,-0.1044,-0.0986,-0.0824,-0.0923,-0.1148,-0.1431,-0.1697,0.0291,0.0143,-0.0104,-0.0349,-0.0423,-0.0338,-0.0192,-0.0041,0.0074,0.0159,0.0228,0.0275,0.0297,0.0324,0.0313,0.0247,0.0187,0.0176,0.0165,0.014,0.0192,0.0305,0.0387,0.0332,0.008,-0.0244,-0.05,-0.0684,-0.0753,-0.0681,-0.0596,-0.0571,-0.0541,-0.0747,-0.1222,-0.1376,-0.1244,-0.1233,-0.1173,-0.1071,-0.1041,-0.1093,-0.1258,-0.1585,-0.1969,-0.2326,-0.2615,0.0082,-0.0195,-0.0459,-0.0508,-0.0327,-0.0066,0.0154,0.0338,0.0481,0.0585,0.0643,0.0643,0.0607,0.0555,0.0492,0.0409,0.0316,0.0253,0.0222,0.0217,0.0258,0.0239,0.008,-0.0137,-0.0379,-0.0623,-0.0816,-0.092,-0.0873,-0.0689,-0.0558,-0.0442,-0.0676,-0.134,-0.1566,-0.1519,-0.139,-0.1231,-0.1263,-0.1417,-0.1571,-0.1799,-0.2104,-0.2535,-0.3008,-0.3458,-0.3777,-0.0099,-0.0346,-0.0374,-0.0107,0.0198,0.0365,0.0456,0.0527,0.0623,0.0761,0.092,0.1079,0.1195,0.1206,0.1156,0.1074,0.0904,0.0706,0.0593,0.0527,0.0423,0.0228,-0.0011,-0.025,-0.0478,-0.0673,-0.0808,-0.0849,-0.0709,-0.0508,-0.0338,-0.0623,-0.1404,-0.1708,-0.1612,-0.1563,-0.153,-0.1626,-0.1849,-0.2071,-0.2274,-0.264,-0.315,-0.3692,-0.4238,-0.4631,-0.4774,-0.0236,-0.036,-0.0047,0.0368,0.0492,0.0448,0.0401,0.0357,0.0415,0.0593,0.081,0.1005,0.1176,0.1302,0.1365,0.1362,0.1283,0.1145,0.0983,0.0824,0.0662,0.0461,0.0157,-0.0168,-0.0376,-0.0492,-0.0538,-0.0525,-0.047,-0.0415,-0.0802,-0.1483,-0.1708,-0.1686,-0.1684,-0.1807,-0.2,-0.2208,-0.2428,-0.2736,-0.315,-0.3692,-0.4257,-0.4683,-0.4963,-0.5164,-0.5254,-0.0324,-0.0038,0.0365,0.0404,0.0159,-0.0126,-0.025,-0.0222,-0.003,0.0233,0.0483,0.0706,0.0909,0.1079,0.1184,0.1192,0.1162,0.1077,0.0939,0.081,0.0698,0.0538,0.0244,-0.0107,-0.0327,-0.039,-0.0341,-0.022,-0.0316,-0.0953,-0.1596,-0.1761,-0.1741,-0.1851,-0.2063,-0.231,-0.2593,-0.2848,-0.315,-0.3598,-0.4156,-0.4672,-0.4889,-0.4991,-0.5098,-0.5276,-0.5452,-0.0091,0.0343,0.0324,-0.0058,-0.0453,-0.0618,-0.0571,-0.0374,-0.0137,0.0069,0.0206,0.0313,0.0445,0.0563,0.0648,0.0692,0.0662,0.0615,0.0585,0.0558,0.0519,0.0417,0.0159,-0.0184,-0.0368,-0.0308,-0.0071,-0.008,-0.0769,-0.1546,-0.1755,-0.1717,-0.1838,-0.2211,-0.2579,-0.2958,-0.3323,-0.3683,-0.4095,-0.4587,-0.5046,-0.5265,-0.5331,-0.5265,-0.5257,-0.5397,-0.5537,0.0305,0.0343,0.0025,-0.0294,-0.0387,-0.0319,-0.0151,0.0022,0.0173,0.0283,0.0313,0.028,0.0233,0.0214,0.0228,0.025,0.0275,0.033,0.0404,0.0445,0.0423,0.031,0.0052,-0.0258,-0.039,-0.0093,0.0201,-0.0357,-0.1269,-0.1615,-0.1588,-0.1667,-0.2151,-0.2675,-0.3076,-0.3472,-0.3854,-0.4224,-0.465,-0.4966,-0.5197,-0.5329,-0.537,-0.5318,-0.5241,-0.5241,-0.5263]},{"header":{"parameterUnit":"m.s-1","parameterCategory":2,"la1":30.8641,"la2":29.7642,"lo1":-88.4676,"lo2":-86.9344,"dy":0.0333,"dx":0.0333,"nx":47,"ny":34,"refTime":"2023-09-07T00:00:00:Z","depth":"10","parameterNumber":3,"parameterNumberName":"V-component_of_CURRENTS"},"data":[0,0,0,0,0,0,0,0,0,0,0,0,0,0,0,0,0,0,0,0,0,0,0,0,0,0,0,0,0,0,0,0,0,0,0,0,0,0,0,0,0,0,0,0,0,0,0,0,0,0,0,0,0,0,0,0,0,0,0,0,0,0,0,0,0,0,0,0,0,0,0,0,0,0,0,0,0,0,0,0,0,0,0,0,0,0,0,0,0,0,0,0,0,0,0,0,0,0,0,0,0,0,0,0,0,0,0,0,0,0,0,0,0,0,0,0,0,0,0,0,0,0,0,0,0,0,0,0,0,0,0,0,0,0,0,0,0,0,0,0,0,0,0,0,0,0,0,0,0,0,0,0,0,0,0,0,0,0,0,0,0,0,0,0,0,0,0,0,0,0,0,0,0,0,0,0,0,0,0,0,0,0,0,0,0,0,0,0,0,0,0,0,0,0,0,0,0,0,0,0,0,0,0,0,0,0,0,0,0,0,0,0,0,0,0,0,0,0,0,0,0,0,0,0,0,0,0,0,0,0,0,0,0,0,0,0,0,0,0,0,0,0,0,0,0,0,0,0,0,0,0,0,0,0,0,0,0,0,0,0,0,0,0,0,0,0,0,0,0,0,0,0,0,0,0,0,0,0,0,0,0,0,0,0,0,0,0,0,0,0,0,0,0,0,0,0,0.0225,0.0291,0,0,0,0,0,0,0,0,0,0,0,0,0,0,0,0,0,0,0,0,0,0,0,0,0,0,0,0,0,0,0,0,0,0,0,0,0,0,0,0,0,0,0,0,0.0239,0.0313,0.0305,0.0327,0,0,0,0,0,0,0,0,0,0,0,0,0,0,0,0,0,0,0,0,0,0,0,0,0,0,0,0,0,0,0,0,0,0,0,0,0,0,0,0,0,0,0,0.0313,0.0393,0.0286,0.0211,0,0,0,0,0,0,0,0,0,0,0,0,0,0,0,0,0,0,0,0,0,0,0,0,0,0,0,0,0,0,0,0,0,0,0,0,0,0,0,0,0,0,0.0343,0.0393,0.0332,0.0181,0.0085,0,0,0,0,0,0,0,0,0,0,0,0,0,0,0,0,0,0,0,0,0,0,0,0,0,0,0,0,0,0,0,0,0,0,0,0,0,0,0,0,0,0,0.0308,0.0346,0.028,0.0088,0.0096,0,0,0,0,0,0,0,0,0,0,0,0,0,0,0,0,0,0,0,0,0,0,0,0,0,0,0,0,0,0,0,0,0,0,0,0,0,0,0,0,0,0,0.028,0.0255,0.019,0.0003,0.017,0,0,0,0,0,0,0,0,0,0,0,0,0,0,0,0,0,0,0,0,0,0,0,0,0,0,0,0,0,0,0,0,0,0,0,0,0,0,0,0,0,0,0.0275,0.0231,0.0113,-0.0019,0.0228,0,0,0,0,0,0,0,0,0,0,0,0,0,0,0,0,0,0,0,0,0,0,0,0,0,0,-0.0036,-0.0129,0,0,0,0,0,0,0,0,0,0,0,0,0,0.0181,0.0211,0.0222,0.011,0.003,0.0168,0,0,0,0,0,0,0,0,0,0,0,0,0,0,0,0,0,0,0,0,0,0,0.0217,0.0168,0.0157,0.0,-0.0019,-0.0063,0,0,0,0,0,0,0,0,0,0,0,0,0,0.0115,0.0151,0.0176,0.0085,0.0,0.0038,0.0121,0,0,0,0,0,0,0,0,0,0,0,0,0,0,0,0,0,0,0,0,0.0225,0.011,0.0082,0.008,0,0,0,0,0,0,0,0,0.0187,0.0211,0.0365,0,0,0,0,0,0.0077,0.0124,0.0157,0.0093,-0.0025,-0.0066,0.003,0.0165,0,0,0,0,0,0,0,0,0,0,0,0,0,0,0,0,0,0,0.0168,0.0113,0,0,0,0,0,0,0,0.0165,0,0.0091,0.0181,0.0195,0.0214,0.0275,0,0,0,0,0,0.0184,0.0129,0.0159,0.0088,-0.0011,-0.008,-0.0025,0.0148,0.0299,0,0,0,0,0,0,0,0,0,0,0,0,0,0,0,0,0.0126,0.0137,0,0,0.0027,-0.0011,-0.0022,0.0008,0.0082,0.0135,0.0016,-0.006,0.0093,0.019,0.0211,0.0192,0.0071,0.003,0.0041,-0.0225,0.0,0.0,0.0154,0.0,0.0151,0.0058,-0.0063,-0.0047,0.0019,0.0088,0.011,0.0151,0,0,0,0,0,0,0,0,0,0,0,0,0.0118,0.0063,0.0025,0.0066,0.014,0.0277,0.0132,0.0016,-0.0033,-0.0052,-0.0049,-0.0008,0.0016,-0.0126,-0.008,0.0058,0.0137,0.0121,0.006,-0.0022,0.0014,-0.0176,-0.0423,0,0,0,-0.0338,-0.0407,0.0022,-0.0058,-0.0022,0.0014,0.0025,-0.0003,0.0074,0,0,0,0,0,0,0,0.0176,-0.0008,0.0063,0.0049,0.0022,0.0047,-0.0033,-0.0176,-0.0126,-0.0044,0.0047,0.003,-0.006,-0.0102,-0.0129,-0.0135,-0.0104,-0.0066,-0.0082,-0.0049,0.0011,-0.0003,-0.0069,-0.0198,0,0,-0.0321,-0.0417,-0.0091,-0.0277,-0.0533,-0.0264,-0.1145,0,0,0,0,0,0,0,0,0.0132,0.0085,0.0049,0.0041,0.0049,0.0074,0.0179,0.0107,0.0071,0.0036,-0.0005,-0.006,-0.0151,-0.0261,-0.0305,-0.0239,-0.0071,-0.003,-0.0041,-0.0091,-0.0146,-0.0121,-0.0093,-0.006,-0.0129,0,0,-0.0066,-0.014,-0.0266,-0.0019,-0.0085,-0.0206,-0.0288,-0.0283,-0.0431,-0.0648,0,-0.1134,-0.0275,-0.0151,-0.0168,-0.0151,-0.0115,-0.003,0.0044,0.0069,0.0093,0.0071,0.0058,0.0063,0.008,0.0107,0.014,0.0121,0.0077,0.0033,-0.0016,-0.0113,-0.0214,-0.0294,-0.0349,-0.0319,-0.017,-0.0058,-0.0022,-0.0069,-0.0143,-0.0146,-0.0165,-0.0181,-0.0275,-0.0016,-0.0003,-0.0077,-0.0132,-0.0159,-0.0069,-0.0096,-0.0203,-0.0379,-0.0497,-0.0591,-0.0665,-0.0401,-0.0717,-0.0272,-0.0173,-0.0244,-0.0247,-0.0179,-0.006,0.0036,0.0069,0.006,0.006,0.008,0.0115,0.0154,0.0179,0.0132,0.0066,-0.0019,-0.0074,-0.0104,-0.0209,-0.0338,-0.0439,-0.0461,-0.0346,-0.0184,-0.0107,-0.0113,-0.0137,-0.0233,-0.033,-0.0203,-0.0093,-0.0168,-0.0019,-0.0022,-0.0082,-0.011,-0.0104,-0.0102,-0.0118,-0.0211,-0.0338,-0.0453,-0.0547,-0.0566,-0.0426,-0.0437,-0.0258,-0.0211,-0.0338,-0.0393,-0.0294,-0.0121,0.0008,0.0058,0.006,0.0063,0.0102,0.0173,0.0201,0.0162,0.0085,-0.0003,-0.0096,-0.0165,-0.0211,-0.0297,-0.0415,-0.0486,-0.0483,-0.0352,-0.0283,-0.0294,-0.0332,-0.0198,-0.017,-0.0187,-0.0157,-0.0225,-0.0335,0.0008,-0.0016,-0.0036,-0.0055,-0.0069,-0.0091,-0.0146,-0.0242,-0.0363,-0.0478,-0.0547,-0.0544,-0.0467,-0.0396,-0.031,-0.0275,-0.0365,-0.0439,-0.036,-0.0184,-0.0041,0.0025,0.0038,0.0069,0.014,0.0201,0.0198,0.0162,0.0099,-0.0016,-0.011,-0.0179,-0.0269,-0.0371,-0.0481,-0.0505,-0.0525,-0.0511,-0.0541,-0.0332,-0.0049,0.0003,0.0025,-0.0151,-0.019,-0.0206,-0.0239,0.008,0.0047,0.0019,-0.0019,-0.0069,-0.0124,-0.0203,-0.0288,-0.0374,-0.0461,-0.0527,-0.0549,-0.0522,-0.0472,-0.0434,-0.0439,-0.0423,-0.0404,-0.0343,-0.0206,-0.008,-0.0008,0.0036,0.0091,0.0184,0.0242,0.0231,0.0195,0.0082,-0.0099,-0.0233,-0.0324,-0.0426,-0.0522,-0.0591,-0.0593,-0.075,-0.0547,-0.0354,0.0091,0.0354,0.0088,0.0014,0.0019,0.0025,0.0096,0.0019,0.0203,0.0121,0.0055,-0.0003,-0.0071,-0.0129,-0.0195,-0.0253,-0.0305,-0.0368,-0.0439,-0.05,-0.0516,-0.0489,-0.0453,-0.05,-0.0489,-0.0423,-0.0316,-0.0176,-0.0071,0.0016,0.0077,0.0179,0.0275,0.0283,0.0211,0.0066,-0.0121,-0.0321,-0.0448,-0.0538,-0.0618,-0.0648,-0.0714,-0.0783,-0.0651,-0.0148,0.0104,0.0176,0.0148,0.0049,0.0033,0.0244,0.014,-0.0036,-0.0176,0.0313,0.0137,0.0,-0.0071,-0.0113,-0.0124,-0.0165,-0.0192,-0.022,-0.0272,-0.0338,-0.042,-0.0483,-0.0497,-0.0448,-0.0448,-0.0481,-0.0437,-0.0291,-0.0162,-0.0049,0.0113,0.0242,0.0302,0.0253,0.0088,-0.0063,-0.0233,-0.042,-0.0563,-0.064,-0.0667,-0.0678,-0.0791,-0.0901,-0.067,-0.0222,0.0052,0.0102,0.0003,-0.0003,0.014,0.0077,-0.0055,-0.0044,-0.0121,-0.0225,0.0291,-0.0014,-0.0269,-0.0299,-0.0148,-0.0074,-0.0113,-0.0146,-0.0173,-0.022,-0.0291,-0.0379,-0.0445,-0.0519,-0.0533,-0.0514,-0.0475,-0.0385,-0.0269,-0.0159,0.0036,0.0294,0.0371,0.0184,-0.0055,-0.0231,-0.0338,-0.0417,-0.0563,-0.0659,-0.0667,-0.0626,-0.0802,-0.1041,-0.081,-0.0365,-0.0129,-0.0107,-0.0096,-0.0022,-0.0019,-0.0102,-0.0137,-0.0184,-0.0184,-0.0236,-0.0277,0.0069,-0.0341,-0.0533,-0.0288,0.014,0.0231,0.0162,0.0069,-0.0011,-0.0115,-0.0233,-0.036,-0.0464,-0.0538,-0.0585,-0.0604,-0.053,-0.039,-0.0277,-0.0148,0.0096,0.0313,0.0242,-0.0107,-0.0379,-0.0412,-0.0385,-0.0404,-0.0533,-0.0588,-0.0563,-0.0799,-0.1101,-0.0978,-0.0623,-0.0426,-0.0341,-0.0313,-0.0277,-0.0214,-0.0159,-0.0151,-0.0135,-0.0165,-0.0244,-0.0272,-0.0247,-0.0277,-0.0577,-0.0407,0.0102,0.0398,0.0385,0.0319,0.0255,0.0192,0.0082,-0.0069,-0.0247,-0.0437,-0.0574,-0.0692,-0.0755,-0.0656,-0.0445,-0.0302,-0.0181,-0.0008,0.0091,-0.0005,-0.0321,-0.053,-0.0486,-0.0321,-0.025,-0.0376,-0.0519,-0.0797,-0.1167,-0.1159,-0.0901,-0.0766,-0.0709,-0.0659,-0.0481,-0.033,-0.0209,-0.0113,-0.0055,-0.006,-0.0082,-0.0093,-0.0058,0.0003,-0.0541,-0.0478,-0.0088,0.0181,0.0154,0.011,0.0168,0.0214,0.0195,0.0151,0.0044,-0.0146,-0.0396,-0.0645,-0.086,-0.0923,-0.0832,-0.0621,-0.045,-0.028,-0.0146,-0.0135,-0.0266,-0.0511,-0.064,-0.0558,-0.0321,-0.0154,-0.0368,-0.0805,-0.1156,-0.1329,-0.1217,-0.1137,-0.1154,-0.1093,-0.0879,-0.0637,-0.0417,-0.0247,-0.0104,0.0008,0.0104,0.0159,0.022,0.0305,0.0407,-0.0527,-0.0214,0.0027,-0.0008,0.0041,0.0085,0.0225,0.0396,0.045,0.0423,0.0272,0.0005,-0.0338,-0.0662,-0.0915,-0.1044,-0.1008,-0.084,-0.064,-0.0437,-0.033,-0.036,-0.0505,-0.0692,-0.075,-0.0643,-0.0404,-0.0346,-0.0755,-0.1123,-0.134,-0.153,-0.1546,-0.1601,-0.153,-0.1261,-0.0972,-0.0706,-0.0467,-0.0272,-0.0091,0.0096,0.0272,0.0439,0.0566,0.0684,0.0769,-0.031,0.0088,0.0118,0.0184,0.0269,0.0453,0.0777,0.1071,0.1184,0.1118,0.0904,0.0588,0.0198,-0.0187,-0.0497,-0.0755,-0.081,-0.0739,-0.0582,-0.045,-0.0385,-0.0393,-0.0541,-0.0744,-0.0772,-0.0643,-0.053,-0.0808,-0.114,-0.1357,-0.1736,-0.1947,-0.203,-0.1975,-0.1648,-0.1266,-0.0909,-0.0574,-0.028,-0.0052,0.0148,0.0305,0.0525,0.0731,0.0868,0.0917,0.0937,0.0085,0.0396,0.0439,0.0445,0.061,0.1014,0.1395,0.1612,0.1653,0.1541,0.1327,0.1057,0.0758,0.0453,0.0165,-0.0085,-0.0211,-0.0269,-0.0283,-0.0288,-0.0222,-0.0225,-0.0404,-0.0613,-0.0651,-0.0599,-0.0849,-0.1189,-0.1417,-0.1862,-0.2313,-0.2447,-0.2425,-0.2096,-0.1678,-0.1285,-0.0887,-0.0516,-0.0184,0.008,0.0297,0.0494,0.0665,0.0797,0.0865,0.0876,0.0884]}],[{"header":{"parameterUnit":"m.s-1","parameterCategory":2,"la1":30.8641,"la2":29.7642,"lo1":-88.4676,"lo2":-86.9344,"dy":0.0333,"dx":0.0333,"nx":47,"ny":34,"refTime":"2023-09-07T00:00:00:Z","depth":"12","parameterNumber":2,"parameterNumberName":"U-component_of_CURRENTS"},"data":[0,0,0,0,0,0,0,0,0,0,0,0,0,0,0,0,0,0,0,0,0,0,0,0,0,0,0,0,0,0,0,0,0,0,0,0,0,0,0,0,0,0,0,0,0,0,0,0,0,0,0,0,0,0,0,0,0,0,0,0,0,0,0,0,0,0,0,0,0,0,0,0,0,0,0,0,0,0,0,0,0,0,0,0,0,0,0,0,0,0,0,0,0,0,0,0,0,0,0,0,0,0,0,0,0,0,0,0,0,0,0,0,0,0,0,0,0,0,0,0,0,0,0,0,0,0,0,0,0,0,0,0,0,0,0,0,0,0,0,0,0,0,0,0,0,0,0,0,0,0,0,0,0,0,0,0,0,0,0,0,0,0,0,0,0,0,0,0,0,0,0,0,0,0,0,0,0,0,0,0,0,0,0,0,0,0,0,0,0,0,0,0,0,0,0,0,0,0,0,0,0,0,0,0,0,0,0,0,0,0,0,0,0,0,0,0,0,0,0,0,0,0,0,0,0,0,0,0,0,0,0,0,0,0,0,0,0,0,0,0,0,0,0,0,0,0,0,0,0,0,0,0,0,0,0,0,0,0,0,0,0,0,0,0,0,0,0,0,0,0,0,0,0,0,0,0,0,0,0,0,0,0,0,0,0,0,0,0,0,0,0,0,0,0,0,0,0,0,0,0,0,0,0,0,0,0,0,0,0,0,0,0,0,0,0,0,0,0,0,0,0,0,0,0,0,0,0,0,0,0,0,0,0,0,0,0,0,0,0,0,0,0,0,0,0,0,0,0,0,0,0,0,0,0,0,0,0,0,0,0,0,0,0,0,0,0,0,0,0,0,0,0,0,0,0,0,0,0,0,0,0,0,0,0,0,0,0,0,0,0,0,0,0,0,0,0,0,0,0,0,0,0,0,0,0,0,0,0,0,0,0,0,0,0,0,0,0,0,0,0,0,0,0,0,0,0,0,0,0,0,0,0,0,0,0,0,0,0,0,0,0,0,0,0,0,0,0,0,0,0,0,0,0,0,0,0,0,0,0,0,0,0,0,0,0,0,0,0,0,0,0,0,0,0,0,0,0,0,0,0,0,0,0,0,0,0,0,0,0,0,0,0,0,0,0,0,0,0,0,0,0,0,0,0,0,0,0,0,0,0,0,0,0,0,0,0,0,0,0,0,0,0,0,0,0,0,0,0,0,0,0,0,0,0,0,0,0,0,0,0,0,0,0,0,0,0,0,0,0,0,0,0,0,0,0,0,0,0,0,0,0,0,0,0,0,0,0,0,0,0,0,0,0,0,0,0,0,0,0,0,0,0,0,0,0,0,0,0,0,0,0,0,0,0,0,0,0,0,0,0,0,0,0,0,0,0,0,0,0,0,0,0,0,0,0,0,0,0,0,0,0,0,0,0,0,0,0,0,0,0,0,0,0,0,0,0,0,0,0,0,0,0,0,0,0,0,0,0,0,0,0,0,0,0,0,0,0,0,0,0,0,0,0,0,0,0,0,0,0,0,0,0,0,0,0,0,0,0,0,0,0,0,0,0,0,0,0,0,0,0,0,0,0,0,0,0,0,0,0,0,0,0,0,0,0,0,0,0,0,0,0,0,0,0,0,0,0,0,0,0,0,0,0,0,0,0,0,0,0,0,0,0,0,0,0,0,0,0,0,0,0,0,0,0,0,0,0,0,0,0,0,0.0088,0,0,0,0,0,0,0,0,0,0,0,0,0,0,0,0,0,0,0,0,0,0,0,0,0,0,0,0,0,0,0,0,0,0,0,0,0,0,0,0,0,0.0129,0.0121,0.0124,0.017,0.0283,0.0297,0,0,0,0,0,0,0,0,0,0,0,0,0,0,0,0,0,0,0,0,0,0,0,0,0,0,0,0,0,0,0,0,0,0,0,0,0,0,0.0192,0.0264,0.0288,0.031,0.0316,0.0316,0.0277,0.0176,0.0099,0,0,0,0,0,0,0,0,0,0,0,0,0,0,0,0,0,0,0,0,0,0,0,0,0,0,0,0,0,0,0,0,0,0,0,0,0.0349,0.0396,0.0236,0.0327,0.0398,0.0407,0.0371,0.0239,0.0096,0.0055,0.0069,0,0,0,0,0,0,0,0,0,0,0,0,0,0,0,0,0,0,0,0,0,0,0,0,0,0,0,0,0,0.0426,0.045,0.0483,0.0492,0.0472,0.0437,0.0434,0.0464,0.0481,0.0349,0.0195,0.0115,0.0102,0.0091,0.0115,0.0168,0.0203,0.0211,0,0,0,0,0,0.0214,0.0283,0,0,0,0,0,0,0,0,0,0,0,0,0,0,0,0,0,0,0,0.0387,0.0442,0.0492,0.0533,0.0558,0.0571,0.061,0.0665,0.0692,0.0681,0.0645,0.0483,0.0305,0.022,0.0181,0.0173,0.017,0.0162,0.0154,0.0137,0.0124,0.0335,0.033,0.0313,0.0299,0.0305,0.0321,0.0294,0.0272,0.0283,0.0302,0.0324,0,0.0319,0,0.0549,0.0536,0.0475,0.0382,0.0297,0.0247,0.0239,0.0255,0.0283,0.031,0.0332,0.0363,0.0415,0.0464,0.0558,0.072,0.078,0.0788,0.0794,0.0786,0.0722,0.0599,0.0398,0.0225,0.0168,0.0137,0.0113,0.0074,0.0036,-0.0022,-0.0148,-0.0231,-0.019,0.0316,0.0354,0.039,0.0437,0.0475,0.0497,0.0503,0.0503,0.0516,0.0538,0.0558,0.0566,0.0549,0.056,0.0588,0.056,0.0522,0.0481,0.0423,0.0368,0.0343,0.0341,0.0354,0.0368,0.039,0.0439,0.0536,0.0637,0.0629,0.0582,0.0538,0.0503,0.045,0.0387,0.0321,0.0236,0.0148,0.0107,0.0077,0.0049,-0.0008,-0.0121,-0.0173,-0.0198,-0.0011,0.0365,0.0623,0.0426,0.0481,0.0525,0.056,0.0591,0.0621,0.0645,0.0659,0.0665,0.0654,0.0643,0.0659,0.067,0.0673,0.0648,0.0585,0.0544,0.0536,0.0527,0.0494,0.0453,0.0428,0.0423,0.0434,0.0486,0.0588,0.0654,0.0593,0.0527,0.0486,0.0423,0.036,0.0294,0.0187,0.0055,-0.0036,-0.006,-0.0038,-0.0137,-0.0291,-0.0489,-0.0505,-0.003,0.0448,0.0799,0.0703,0.0445,0.0448,0.0552,0.0648,0.0731,0.0788,0.0791,0.0755,0.0725,0.072,0.075,0.081,0.0865,0.089,0.0879,0.078,0.061,0.0503,0.0483,0.0508,0.0525,0.0525,0.0525,0.056,0.0643,0.0709,0.0739,0.0742,0.0722,0.0678,0.058,0.042,0.0231,0.0036,-0.0124,-0.0209,-0.0228,-0.0316,-0.0634,-0.0934,-0.0714,-0.0049,0.031,0.0492,0.0277,-0.0124,-0.0016,0.0016,0.0483,0.0651,0.0711,0.0687,0.0634,0.0571,0.0525,0.0503,0.0516,0.05,0.045,0.0434,0.0497,0.0544,0.0492,0.0439,0.0412,0.0423,0.0448,0.0481,0.0525,0.0615,0.0742,0.0821,0.0851,0.0827,0.0744,0.0615,0.0442,0.0247,0.006,-0.0124,-0.0305,-0.042,-0.042,-0.0544,-0.0942,-0.092,-0.0464,-0.0157,0.0033,-0.019,-0.0547,-0.0335,-0.019,-0.0434,-0.0676,0.0472,0.0489,0.0382,0.0244,0.0187,0.0247,0.0341,0.0407,0.0464,0.0544,0.058,0.0574,0.0588,0.0505,0.0371,0.0272,0.0225,0.0233,0.031,0.0387,0.0448,0.0541,0.0637,0.0689,0.0678,0.053,0.0242,-0.0022,-0.017,-0.0258,-0.0343,-0.0445,-0.0505,-0.0456,-0.056,-0.0884,-0.0939,-0.0659,-0.045,-0.0613,-0.0838,-0.0684,-0.0456,-0.0525,-0.0739,-0.103,-0.1395,0.0294,0.0146,-0.0085,-0.0242,-0.0233,-0.0099,0.0096,0.0255,0.0387,0.0494,0.0544,0.0461,0.0423,0.0396,0.0316,0.0247,0.0187,0.0176,0.0168,0.0143,0.0198,0.0324,0.0417,0.0349,0.0082,-0.0242,-0.0481,-0.0632,-0.0684,-0.0629,-0.056,-0.0514,-0.0401,-0.0472,-0.0917,-0.1025,-0.0882,-0.1005,-0.092,-0.0772,-0.0654,-0.0678,-0.0808,-0.1209,-0.1549,-0.1805,-0.225,0.0085,-0.0192,-0.0404,-0.0354,-0.0146,0.0071,0.0253,0.0415,0.0574,0.072,0.0849,0.0909,0.0799,0.0651,0.0536,0.0415,0.0319,0.0258,0.0228,0.022,0.0264,0.0275,0.0146,-0.011,-0.0374,-0.0629,-0.0819,-0.0887,-0.0824,-0.0667,-0.0536,-0.028,-0.033,-0.0956,-0.1165,-0.1085,-0.1118,-0.0917,-0.0904,-0.1093,-0.1214,-0.1417,-0.1733,-0.2087,-0.2563,-0.2911,-0.3329,-0.0099,-0.0319,-0.0319,-0.0041,0.025,0.039,0.0475,0.0571,0.0684,0.0819,0.097,0.1085,0.1107,0.1052,0.1035,0.0989,0.0871,0.0703,0.0593,0.053,0.0426,0.0244,0.0033,-0.0195,-0.0453,-0.0681,-0.0824,-0.0857,-0.0706,-0.0503,-0.0236,-0.0352,-0.1019,-0.1269,-0.1198,-0.1263,-0.1252,-0.1313,-0.1461,-0.1692,-0.1936,-0.2252,-0.2686,-0.3159,-0.3719,-0.4112,-0.4307,-0.0231,-0.0316,-0.0022,0.0294,0.033,0.0291,0.0371,0.0533,0.0687,0.0838,0.1005,0.1151,0.1244,0.1277,0.1236,0.1154,0.1176,0.1132,0.0997,0.0827,0.0656,0.0461,0.0222,-0.0077,-0.0346,-0.0516,-0.0607,-0.0582,-0.0467,-0.0349,-0.0505,-0.1022,-0.1288,-0.1272,-0.1456,-0.1502,-0.1648,-0.1876,-0.2065,-0.2379,-0.278,-0.3238,-0.3716,-0.4106,-0.4408,-0.4554,-0.462,-0.0272,-0.0066,0.0115,0.0055,0.0049,0.0041,-0.0011,0.0074,0.0255,0.042,0.0634,0.0909,0.1107,0.1115,0.1049,0.1033,0.1055,0.1027,0.0937,0.0819,0.0695,0.0538,0.0294,-0.0038,-0.0294,-0.0354,-0.0291,-0.0206,-0.0258,-0.075,-0.12,-0.1321,-0.139,-0.1601,-0.1813,-0.2022,-0.2233,-0.2456,-0.2755,-0.3161,-0.362,-0.4046,-0.4299,-0.4452,-0.4579,-0.4724,-0.4765,-0.0135,0.0047,0.0066,-0.0044,-0.0277,-0.0494,-0.05,-0.0335,-0.011,0.0085,0.0225,0.0354,0.0538,0.0698,0.0747,0.0739,0.0722,0.0654,0.0582,0.0552,0.0514,0.042,0.0168,-0.0165,-0.0321,-0.0124,0.0253,0.0159,-0.0593,-0.1222,-0.1338,-0.139,-0.1552,-0.1892,-0.2326,-0.2637,-0.2955,-0.3233,-0.3576,-0.4024,-0.445,-0.4719,-0.4741,-0.4658,-0.4697,-0.4859,-0.4971,0.0187,0.0198,0.0069,-0.017,-0.0382,-0.0319,-0.0151,0.0025,0.0187,0.0302,0.0341,0.0313,0.0269,0.0261,0.0277,0.0302,0.0305,0.0327,0.0398,0.0439,0.0417,0.0316,0.008,-0.0214,-0.0272,0.0203,0.0632,-0.0077,-0.1044,-0.1255,-0.1277,-0.1365,-0.1777,-0.2403,-0.2824,-0.315,-0.348,-0.3807,-0.4172,-0.4535,-0.4831,-0.49,-0.4878,-0.4798,-0.4771,-0.4815,-0.4782]},{"header":{"parameterUnit":"m.s-1","parameterCategory":2,"la1":30.8641,"la2":29.7642,"lo1":-88.4676,"lo2":-86.9344,"dy":0.0333,"dx":0.0333,"nx":47,"ny":34,"refTime":"2023-09-07T00:00:00:Z","depth":"12","parameterNumber":3,"parameterNumberName":"V-component_of_CURRENTS"},"data":[0,0,0,0,0,0,0,0,0,0,0,0,0,0,0,0,0,0,0,0,0,0,0,0,0,0,0,0,0,0,0,0,0,0,0,0,0,0,0,0,0,0,0,0,0,0,0,0,0,0,0,0,0,0,0,0,0,0,0,0,0,0,0,0,0,0,0,0,0,0,0,0,0,0,0,0,0,0,0,0,0,0,0,0,0,0,0,0,0,0,0,0,0,0,0,0,0,0,0,0,0,0,0,0,0,0,0,0,0,0,0,0,0,0,0,0,0,0,0,0,0,0,0,0,0,0,0,0,0,0,0,0,0,0,0,0,0,0,0,0,0,0,0,0,0,0,0,0,0,0,0,0,0,0,0,0,0,0,0,0,0,0,0,0,0,0,0,0,0,0,0,0,0,0,0,0,0,0,0,0,0,0,0,0,0,0,0,0,0,0,0,0,0,0,0,0,0,0,0,0,0,0,0,0,0,0,0,0,0,0,0,0,0,0,0,0,0,0,0,0,0,0,0,0,0,0,0,0,0,0,0,0,0,0,0,0,0,0,0,0,0,0,0,0,0,0,0,0,0,0,0,0,0,0,0,0,0,0,0,0,0,0,0,0,0,0,0,0,0,0,0,0,0,0,0,0,0,0,0,0,0,0,0,0,0,0,0,0,0,0,0,0,0,0,0,0,0,0,0,0,0,0,0,0,0,0,0,0,0,0,0,0,0,0,0,0,0,0,0,0,0,0,0,0,0,0,0,0,0,0,0,0,0,0,0,0,0,0,0,0,0,0,0,0,0,0,0,0,0,0,0,0,0,0,0,0,0,0,0,0,0,0,0,0,0,0,0,0,0,0,0,0,0,0,0,0,0,0,0,0,0,0,0,0,0,0,0,0,0,0,0,0,0,0,0,0,0,0,0,0,0,0,0,0,0,0,0,0,0,0,0,0,0,0,0,0,0,0,0,0,0,0,0,0,0,0,0,0,0,0,0,0,0,0,0,0,0,0,0,0,0,0,0,0,0,0,0,0,0,0,0,0,0,0,0,0,0,0,0,0,0,0,0,0,0,0,0,0,0,0,0,0,0,0,0,0,0,0,0,0,0,0,0,0,0,0,0,0,0,0,0,0,0,0,0,0,0,0,0,0,0,0,0,0,0,0,0,0,0,0,0,0,0,0,0,0,0,0,0,0,0,0,0,0,0,0,0,0,0,0,0,0,0,0,0,0,0,0,0,0,0,0,0,0,0,0,0,0,0,0,0,0,0,0,0,0,0,0,0,0,0,0,0,0,0,0,0,0,0,0,0,0,0,0,0,0,0,0,0,0,0,0,0,0,0,0,0,0,0,0,0,0,0,0,0,0,0,0,0,0,0,0,0,0,0,0,0,0,0,0,0,0,0,0,0,0,0,0,0,0,0,0,0,0,0,0,0,0,0,0,0,0,0,0,0,0,0,0,0,0,0,0,0,0,0,0,0,0,0,0,0,0,0,0,0,0,0,0,0,0,0,0,0,0,0,0,0,0,0,0,0,0,0,0,0,0,0,0,0,0,0,0,0,0,0,0,0,0,0,0,0,0,0,0,0,0,0,0,0,0,0,0,0,0,0,0,0,0,0,0,0,0,0,0,0,0,0,0,0,0,0,0,0,0,0,0,0,0,0,0,0,0,0,0,0,0,0,0,0,0,0,0,0,0,0,0,0,0,0,0,0,0.0179,0,0,0,0,0,0,0,0,0,0,0,0,0,0,0,0,0,0,0,0,0,0,0,0,0,0,0,0,0,0,0,0,0,0,0,0,0,0,0,0,0,-0.0008,-0.0019,0.0014,0.0088,0.0143,0.008,0,0,0,0,0,0,0,0,0,0,0,0,0,0,0,0,0,0,0,0,0,0,0,0,0,0,0,0,0,0,0,0,0,0,0,0,0,0,0.028,0.0168,0.0162,0.0091,0.0003,-0.0025,0.0008,0.003,-0.0052,0,0,0,0,0,0,0,0,0,0,0,0,0,0,0,0,0,0,0,0,0,0,0,0,0,0,0,0,0,0,0,0,0,0,0,0,-0.0041,0.0154,0.0242,0.0151,0.0008,-0.0049,-0.0071,-0.0113,-0.0088,-0.0049,-0.0063,0,0,0,0,0,0,0,0,0,0,0,0,0,0,0,0,0,0,0,0,0,0,0,0,0,0,0,0,0,0.0107,0.0077,0.0044,0.0003,-0.0052,-0.0143,-0.0253,-0.0258,-0.0132,-0.0038,0.0011,-0.0011,-0.0063,-0.0124,-0.0099,-0.0074,-0.003,-0.0077,0,0,0,0,0,-0.0014,-0.0085,0,0,0,0,0,0,0,0,0,0,0,0,0,0,0,0,0,0,0,0.0077,0.0102,0.014,0.0126,0.0085,0.0038,-0.0011,-0.0099,-0.0192,-0.0266,-0.0319,-0.0288,-0.0154,-0.0041,0.0003,-0.0036,-0.0113,-0.0113,-0.0132,-0.0137,-0.0225,-0.0008,0.0,-0.0071,-0.0126,-0.0151,-0.0066,-0.0099,-0.0192,-0.0368,-0.0467,-0.0558,0,-0.0387,0,-0.0258,-0.0165,-0.0231,-0.0233,-0.017,-0.0055,0.0038,0.0069,0.006,0.006,0.0077,0.0113,0.0154,0.0242,0.0244,0.0082,-0.0011,-0.0066,-0.008,-0.0192,-0.0319,-0.0409,-0.0428,-0.0313,-0.0157,-0.0069,-0.0047,-0.0091,-0.0187,-0.0302,-0.0198,-0.0113,-0.014,-0.0014,-0.0019,-0.0082,-0.0107,-0.0104,-0.0102,-0.0118,-0.0209,-0.0338,-0.045,-0.0538,-0.0547,-0.0415,-0.0423,-0.025,-0.0209,-0.033,-0.0379,-0.028,-0.0115,0.0014,0.0063,0.0063,0.0066,0.0107,0.0179,0.0228,0.0225,0.0096,0.0005,-0.0091,-0.0157,-0.0195,-0.028,-0.039,-0.0453,-0.0439,-0.0297,-0.0222,-0.0195,-0.0247,-0.0184,-0.0239,-0.0244,-0.0151,-0.0192,-0.031,0.0008,-0.0019,-0.0036,-0.0055,-0.0066,-0.0088,-0.0143,-0.0236,-0.0335,-0.0387,-0.0428,-0.0437,-0.0374,-0.0324,-0.0286,-0.0269,-0.0363,-0.0437,-0.0357,-0.0181,-0.0038,0.0027,0.0044,0.0074,0.0148,0.0209,0.0211,0.017,0.0104,-0.0011,-0.0104,-0.0165,-0.0253,-0.0346,-0.0431,-0.0456,-0.0461,-0.0426,-0.0481,-0.0357,-0.0211,-0.0093,-0.0025,-0.019,-0.0283,-0.0247,-0.0239,0.0077,0.0044,0.0019,-0.0016,-0.0063,-0.0118,-0.0198,-0.0294,-0.0415,-0.0494,-0.0538,-0.0536,-0.0497,-0.0453,-0.0464,-0.0396,-0.0407,-0.0401,-0.0346,-0.0209,-0.008,-0.0008,0.0041,0.0096,0.0192,0.0247,0.0236,0.0203,0.0091,-0.0088,-0.0217,-0.0291,-0.0396,-0.0472,-0.0508,-0.0503,-0.07,-0.0525,-0.0434,-0.0104,0.017,0.0005,-0.0055,-0.0033,0.0008,0.0088,0.0049,0.0203,0.0124,0.0058,0.0,-0.0069,-0.0137,-0.0231,-0.0299,-0.0343,-0.0363,-0.0434,-0.0505,-0.0536,-0.0514,-0.0483,-0.0503,-0.0464,-0.0412,-0.031,-0.0173,-0.0069,0.0019,0.008,0.0181,0.0275,0.0288,0.022,0.0099,-0.0071,-0.0272,-0.0398,-0.0478,-0.0569,-0.0574,-0.0607,-0.0733,-0.0709,-0.033,-0.0069,0.0121,0.0104,0.0055,0.0055,0.0247,0.0135,-0.0041,-0.017,0.0316,0.014,0.0005,-0.008,-0.0157,-0.0198,-0.0242,-0.0272,-0.033,-0.0371,-0.039,-0.0428,-0.0464,-0.0434,-0.0412,-0.042,-0.0442,-0.0426,-0.0283,-0.0154,-0.0044,0.0115,0.0242,0.0297,0.0247,0.0096,-0.0036,-0.0154,-0.0324,-0.0464,-0.0555,-0.0604,-0.0615,-0.0714,-0.0893,-0.0829,-0.036,-0.0107,0.0085,0.0011,0.0044,0.0082,0.0016,-0.0093,-0.0093,-0.0132,-0.025,0.0294,-0.0008,-0.0258,-0.0332,-0.0233,-0.0231,-0.0277,-0.0302,-0.0321,-0.0382,-0.0428,-0.042,-0.0464,-0.0514,-0.0525,-0.0503,-0.0464,-0.0379,-0.0264,-0.0154,0.0038,0.0291,0.0354,0.0181,-0.0052,-0.0222,-0.0297,-0.0305,-0.0434,-0.0552,-0.0607,-0.058,-0.0775,-0.1129,-0.1022,-0.0574,-0.0247,-0.0143,-0.0055,-0.0069,-0.0143,-0.0203,-0.0299,-0.0294,-0.0264,-0.031,-0.0294,0.0071,-0.0335,-0.0541,-0.0401,-0.0088,-0.006,-0.0146,-0.0211,-0.0255,-0.0341,-0.0464,-0.0544,-0.0574,-0.0659,-0.0684,-0.0618,-0.0527,-0.0387,-0.0275,-0.0146,0.0099,0.0313,0.0225,-0.011,-0.0374,-0.0404,-0.0349,-0.0288,-0.0423,-0.0538,-0.0547,-0.0865,-0.1252,-0.1318,-0.0928,-0.0566,-0.0346,-0.0321,-0.039,-0.0316,-0.0305,-0.0297,-0.025,-0.0269,-0.0327,-0.0387,-0.0327,-0.0275,-0.058,-0.0522,-0.0201,0.0016,0.0014,-0.0027,-0.0071,-0.0055,-0.0091,-0.0211,-0.0398,-0.0563,-0.0736,-0.0824,-0.0865,-0.0717,-0.0453,-0.0308,-0.0187,-0.0011,0.0093,-0.0005,-0.0332,-0.053,-0.0481,-0.0288,-0.0162,-0.0327,-0.0508,-0.0849,-0.136,-0.1513,-0.1269,-0.0945,-0.0731,-0.0731,-0.0645,-0.0516,-0.0398,-0.0261,-0.0157,-0.0148,-0.0168,-0.0231,-0.0233,-0.0203,-0.0538,-0.0607,-0.0439,-0.0247,-0.0137,-0.0096,-0.0115,-0.0146,-0.0005,0.0085,-0.0019,-0.0261,-0.0538,-0.0835,-0.1046,-0.1159,-0.1019,-0.0764,-0.0563,-0.0352,-0.0154,-0.0135,-0.0269,-0.0544,-0.064,-0.053,-0.022,-0.0041,-0.0349,-0.081,-0.1343,-0.17,-0.161,-0.1371,-0.1167,-0.1132,-0.103,-0.0786,-0.058,-0.0379,-0.0217,-0.0096,-0.0044,-0.0011,0.0011,0.0044,0.0049,-0.0659,-0.0593,-0.0442,-0.0225,-0.0055,0.006,0.0217,0.0195,0.0385,0.0437,0.0269,-0.0044,-0.0508,-0.0945,-0.1192,-0.1239,-0.1173,-0.0964,-0.0714,-0.0467,-0.033,-0.036,-0.0508,-0.0717,-0.075,-0.0585,-0.0192,-0.0091,-0.0709,-0.1198,-0.1703,-0.1989,-0.1813,-0.1626,-0.1574,-0.1401,-0.1148,-0.0926,-0.0662,-0.0426,-0.0253,-0.0096,0.0058,0.022,0.036,0.0445,0.0404,-0.0659,-0.0497,-0.0201,0.0113,0.0294,0.0483,0.0824,0.1016,0.1123,0.1082,0.086,0.0536,0.0066,-0.0426,-0.0816,-0.0981,-0.0992,-0.0786,-0.0588,-0.0448,-0.0379,-0.0396,-0.0544,-0.0753,-0.0769,-0.0585,-0.0297,-0.0475,-0.1112,-0.1579,-0.2206,-0.2291,-0.212,-0.2005,-0.1752,-0.1437,-0.1134,-0.084,-0.0544,-0.0286,-0.0074,0.0126,0.0313,0.0511,0.0687,0.0791,0.0761,-0.045,-0.0157,0.0195,0.0483,0.07,0.1011,0.1379,0.1552,0.1508,0.1384,0.1184,0.0942,0.0656,0.0363,0.0102,-0.0132,-0.0261,-0.0258,-0.0275,-0.028,-0.0217,-0.0239,-0.0426,-0.0623,-0.0651,-0.053,-0.0569,-0.0989,-0.1505,-0.2222,-0.2697,-0.2637,-0.2458,-0.2164,-0.1805,-0.148,-0.1143,-0.0786,-0.0415,-0.0104,0.0203,0.0393,0.0555,0.0687,0.0791,0.0846,0.086]}],[{"header":{"parameterUnit":"m.s-1","parameterCategory":2,"la1":30.8641,"la2":29.7642,"lo1":-88.4676,"lo2":-86.9344,"dy":0.0333,"dx":0.0333,"nx":47,"ny":34,"refTime":"2023-09-07T00:00:00:Z","depth":"15","parameterNumber":2,"parameterNumberName":"U-component_of_CURRENTS"},"data":[0,0,0,0,0,0,0,0,0,0,0,0,0,0,0,0,0,0,0,0,0,0,0,0,0,0,0,0,0,0,0,0,0,0,0,0,0,0,0,0,0,0,0,0,0,0,0,0,0,0,0,0,0,0,0,0,0,0,0,0,0,0,0,0,0,0,0,0,0,0,0,0,0,0,0,0,0,0,0,0,0,0,0,0,0,0,0,0,0,0,0,0,0,0,0,0,0,0,0,0,0,0,0,0,0,0,0,0,0,0,0,0,0,0,0,0,0,0,0,0,0,0,0,0,0,0,0,0,0,0,0,0,0,0,0,0,0,0,0,0,0,0,0,0,0,0,0,0,0,0,0,0,0,0,0,0,0,0,0,0,0,0,0,0,0,0,0,0,0,0,0,0,0,0,0,0,0,0,0,0,0,0,0,0,0,0,0,0,0,0,0,0,0,0,0,0,0,0,0,0,0,0,0,0,0,0,0,0,0,0,0,0,0,0,0,0,0,0,0,0,0,0,0,0,0,0,0,0,0,0,0,0,0,0,0,0,0,0,0,0,0,0,0,0,0,0,0,0,0,0,0,0,0,0,0,0,0,0,0,0,0,0,0,0,0,0,0,0,0,0,0,0,0,0,0,0,0,0,0,0,0,0,0,0,0,0,0,0,0,0,0,0,0,0,0,0,0,0,0,0,0,0,0,0,0,0,0,0,0,0,0,0,0,0,0,0,0,0,0,0,0,0,0,0,0,0,0,0,0,0,0,0,0,0,0,0,0,0,0,0,0,0,0,0,0,0,0,0,0,0,0,0,0,0,0,0,0,0,0,0,0,0,0,0,0,0,0,0,0,0,0,0,0,0,0,0,0,0,0,0,0,0,0,0,0,0,0,0,0,0,0,0,0,0,0,0,0,0,0,0,0,0,0,0,0,0,0,0,0,0,0,0,0,0,0,0,0,0,0,0,0,0,0,0,0,0,0,0,0,0,0,0,0,0,0,0,0,0,0,0,0,0,0,0,0,0,0,0,0,0,0,0,0,0,0,0,0,0,0,0,0,0,0,0,0,0,0,0,0,0,0,0,0,0,0,0,0,0,0,0,0,0,0,0,0,0,0,0,0,0,0,0,0,0,0,0,0,0,0,0,0,0,0,0,0,0,0,0,0,0,0,0,0,0,0,0,0,0,0,0,0,0,0,0,0,0,0,0,0,0,0,0,0,0,0,0,0,0,0,0,0,0,0,0,0,0,0,0,0,0,0,0,0,0,0,0,0,0,0,0,0,0,0,0,0,0,0,0,0,0,0,0,0,0,0,0,0,0,0,0,0,0,0,0,0,0,0,0,0,0,0,0,0,0,0,0,0,0,0,0,0,0,0,0,0,0,0,0,0,0,0,0,0,0,0,0,0,0,0,0,0,0,0,0,0,0,0,0,0,0,0,0,0,0,0,0,0,0,0,0,0,0,0,0,0,0,0,0,0,0,0,0,0,0,0,0,0,0,0,0,0,0,0,0,0,0,0,0,0,0,0,0,0,0,0,0,0,0,0,0,0,0,0,0,0,0,0,0,0,0,0,0,0,0,0,0,0,0,0,0,0,0,0,0,0,0,0,0,0,0,0,0,0,0,0,0,0,0,0,0,0,0,0,0,0,0,0,0,0,0,0,0,0,0,0,0,0,0,0,0,0,0,0,0,0,0,0,0,0,0,0,0.0088,0,0,0,0,0,0,0,0,0,0,0,0,0,0,0,0,0,0,0,0,0,0,0,0,0,0,0,0,0,0,0,0,0,0,0,0,0,0,0,0,0,0,0.0124,0.0129,0.0173,0.0291,0.0437,0,0,0,0,0,0,0,0,0,0,0,0,0,0,0,0,0,0,0,0,0,0,0,0,0,0,0,0,0,0,0,0,0,0,0,0,0,0,0,0,0,0.0308,0.0352,0.039,0.0464,0.0684,0.0758,0,0,0,0,0,0,0,0,0,0,0,0,0,0,0,0,0,0,0,0,0,0,0,0,0,0,0,0,0,0,0,0,0,0,0,0,0,0,0.0308,0.0363,0.0467,0.061,0.0728,0.0772,0.0687,0.058,0.0643,0,0,0,0,0,0,0,0,0,0,0,0,0,0,0,0,0,0,0,0,0,0,0,0,0,0,0,0,0,0,0,0,0,0,0,0.042,0.0437,0.0525,0.0623,0.0846,0.0838,0.0832,0.0788,0.0618,0.05,0.0453,0.0467,0,0,0,0,0,0,0,0,0,0,0,0,0,0,0,0,0,0,0,0,0,0,0,0,0,0,0,0,0.0472,0.05,0.053,0.0549,0.0566,0.0574,0.0574,0.0563,0.0621,0.0906,0.072,0.0346,0.0324,0.042,0.0508,0.0442,0.0393,0.0448,0.0527,0,0,0,0,0,0,0.0288,0.0264,0,0,0,0,0,0,0,0,0,0,0,0,0,0,0,0,0,0,0.0404,0.0426,0.0423,0.0445,0.0544,0.0673,0.0772,0.0816,0.0862,0.0906,0.0926,0.0618,0.0327,0.0283,0.0313,0.0346,0.0376,0.039,0.0277,0.0187,0.025,0,0,0.0382,0.0426,0.0461,0.0486,0.0494,0.0492,0.0497,0.0511,0.0527,0,0,0,0,0,0,0,0,0,0,0,0,0,0.0385,0.0426,0.0423,0.0472,0.0764,0.0829,0.084,0.0871,0.0873,0.0802,0.075,0.0709,0.0527,0.039,0.0349,0.0401,0.0442,0.0423,0.042,0.0343,0.0313,0.0503,0.0673,0.0415,0.047,0.0514,0.0552,0.058,0.058,0.0566,0.0558,0.0566,0.0574,0.0582,0.0604,0.0615,0.0604,0.058,0.0533,0.0497,0.0494,0.0497,0.0481,0.045,0.0426,0.0417,0.0428,0.0461,0.0508,0.0643,0.1025,0.0986,0.0758,0.0645,0.0541,0.0431,0.0376,0.0319,0.0261,0.0231,0.0261,0.0294,0.0288,0.0107,-0.0014,0.0184,0.0404,0.0665,0.0873,0.0764,0.0445,0.0547,0.0637,0.07,0.0739,0.0744,0.0714,0.0709,0.0706,0.0709,0.0717,0.0731,0.0728,0.0684,0.0599,0.0483,0.0423,0.0448,0.0489,0.0516,0.0522,0.0522,0.0558,0.0645,0.0758,0.0755,0.0895,0.0904,0.0755,0.0618,0.045,0.0324,0.0211,0.0085,0.0016,0.0041,0.0088,-0.0173,-0.0508,-0.0365,-0.0088,0.0132,0.0602,0.0725,0.0324,0.036,0.0536,0.0483,0.0651,0.0714,0.0687,0.0654,0.0651,0.0695,0.0791,0.0898,0.0959,0.095,0.0904,0.0829,0.0772,0.0733,0.0662,0.0541,0.0428,0.0431,0.0475,0.0519,0.0615,0.0747,0.0829,0.0893,0.0959,0.0928,0.0865,0.0728,0.047,0.0239,0.0069,-0.0099,-0.0179,-0.0091,-0.0082,-0.0486,-0.0673,-0.0368,-0.008,0.036,0.0401,0.0011,-0.0011,0.0113,-0.0003,-0.0126,0.0475,0.0492,0.0396,0.0393,0.0533,0.0706,0.0797,0.0821,0.0797,0.0775,0.0838,0.0967,0.1005,0.0942,0.0862,0.0747,0.053,0.0313,0.031,0.039,0.045,0.0547,0.0681,0.0846,0.097,0.0956,0.0681,0.0439,0.0327,0.0124,-0.0124,-0.0272,-0.0253,-0.0055,0.0008,-0.0338,-0.0637,-0.0401,-0.0099,-0.0005,-0.0319,-0.0368,-0.0316,-0.0363,-0.05,-0.0742,-0.0981,0.0297,0.0157,0.0132,0.0157,0.0107,0.0124,0.0206,0.0324,0.0439,0.0549,0.067,0.084,0.084,0.0747,0.061,0.0417,0.0266,0.0195,0.017,0.0148,0.0211,0.042,0.0673,0.0739,0.0497,0.0154,-0.0154,-0.0261,-0.0247,-0.0297,-0.0374,-0.0297,-0.0025,0.003,-0.031,-0.0678,-0.0434,-0.0437,-0.0607,-0.061,-0.0552,-0.0676,-0.0821,-0.1049,-0.1447,-0.1717,-0.198,0.0091,-0.0049,-0.014,-0.0184,-0.0137,-0.0008,0.0115,0.0228,0.0316,0.0385,0.0459,0.0555,0.0706,0.0769,0.0775,0.0676,0.0489,0.0379,0.0321,0.028,0.0335,0.047,0.053,0.0407,0.0011,-0.0376,-0.0593,-0.0618,-0.0558,-0.0503,-0.0374,-0.0159,-0.0176,-0.0516,-0.0854,-0.07,-0.0758,-0.095,-0.092,-0.0972,-0.1167,-0.136,-0.1653,-0.2019,-0.2461,-0.2824,-0.3106,-0.0033,-0.0157,-0.0151,-0.0011,0.0132,0.0165,0.0217,0.0316,0.0439,0.0574,0.0676,0.0695,0.0621,0.0563,0.0596,0.072,0.0813,0.0791,0.0777,0.0709,0.0547,0.0396,0.0338,0.0195,-0.0146,-0.05,-0.0731,-0.0783,-0.0645,-0.0456,-0.0214,-0.0261,-0.0709,-0.1019,-0.0959,-0.1129,-0.1351,-0.1368,-0.1382,-0.1566,-0.1838,-0.2162,-0.2571,-0.3008,-0.3472,-0.3843,-0.4128,-0.0107,-0.0184,-0.0036,0.0154,0.0195,0.0214,0.0302,0.0445,0.0607,0.0769,0.0942,0.1055,0.1046,0.092,0.0736,0.0651,0.0714,0.0846,0.0917,0.0835,0.0706,0.0555,0.0439,0.0291,0.0055,-0.0099,-0.0286,-0.0434,-0.0371,-0.017,-0.0299,-0.0775,-0.1137,-0.1209,-0.1417,-0.1703,-0.1717,-0.1854,-0.2063,-0.2321,-0.2656,-0.3016,-0.3392,-0.3757,-0.409,-0.4389,-0.4639,-0.0222,-0.0085,0.0008,0.0003,0.003,0.0093,0.0148,0.0228,0.0354,0.05,0.0623,0.0717,0.0777,0.0783,0.0722,0.0632,0.0582,0.0591,0.0667,0.0758,0.0733,0.0566,0.0489,0.0365,0.0225,0.0291,0.0396,0.0338,0.0132,-0.0305,-0.0838,-0.1209,-0.1357,-0.1524,-0.1892,-0.2038,-0.217,-0.2337,-0.2601,-0.2917,-0.3285,-0.3606,-0.3815,-0.3985,-0.42,-0.445,-0.4625,-0.0146,-0.0129,-0.008,-0.0025,-0.0041,-0.0146,-0.0217,-0.0148,0.0033,0.0201,0.033,0.0437,0.0514,0.0549,0.0571,0.0571,0.0549,0.0558,0.0613,0.0621,0.0571,0.0494,0.0423,0.0324,0.0335,0.0577,0.0728,0.0536,-0.0162,-0.0797,-0.117,-0.1382,-0.1538,-0.1901,-0.2189,-0.2384,-0.2574,-0.278,-0.3071,-0.3431,-0.3766,-0.3947,-0.398,-0.3983,-0.4076,-0.4219,-0.431,-0.0118,-0.008,-0.0033,-0.0063,-0.0231,-0.0319,-0.0299,-0.014,0.0044,0.0154,0.0192,0.0201,0.0198,0.0214,0.0266,0.036,0.0439,0.0508,0.0538,0.0483,0.0445,0.0426,0.0379,0.0349,0.0503,0.0725,0.0802,0.0291,-0.0607,-0.1044,-0.1231,-0.1415,-0.1755,-0.2208,-0.2543,-0.2752,-0.2953,-0.3175,-0.3433,-0.3689,-0.387,-0.3911,-0.3876,-0.3851,-0.3859,-0.3911,-0.3972]},{"header":{"parameterUnit":"m.s-1","parameterCategory":2,"la1":30.8641,"la2":29.7642,"lo1":-88.4676,"lo2":-86.9344,"dy":0.0333,"dx":0.0333,"nx":47,"ny":34,"refTime":"2023-09-07T00:00:00:Z","depth":"15","parameterNumber":3,"parameterNumberName":"V-component_of_CURRENTS"},"data":[0,0,0,0,0,0,0,0,0,0,0,0,0,0,0,0,0,0,0,0,0,0,0,0,0,0,0,0,0,0,0,0,0,0,0,0,0,0,0,0,0,0,0,0,0,0,0,0,0,0,0,0,0,0,0,0,0,0,0,0,0,0,0,0,0,0,0,0,0,0,0,0,0,0,0,0,0,0,0,0,0,0,0,0,0,0,0,0,0,0,0,0,0,0,0,0,0,0,0,0,0,0,0,0,0,0,0,0,0,0,0,0,0,0,0,0,0,0,0,0,0,0,0,0,0,0,0,0,0,0,0,0,0,0,0,0,0,0,0,0,0,0,0,0,0,0,0,0,0,0,0,0,0,0,0,0,0,0,0,0,0,0,0,0,0,0,0,0,0,0,0,0,0,0,0,0,0,0,0,0,0,0,0,0,0,0,0,0,0,0,0,0,0,0,0,0,0,0,0,0,0,0,0,0,0,0,0,0,0,0,0,0,0,0,0,0,0,0,0,0,0,0,0,0,0,0,0,0,0,0,0,0,0,0,0,0,0,0,0,0,0,0,0,0,0,0,0,0,0,0,0,0,0,0,0,0,0,0,0,0,0,0,0,0,0,0,0,0,0,0,0,0,0,0,0,0,0,0,0,0,0,0,0,0,0,0,0,0,0,0,0,0,0,0,0,0,0,0,0,0,0,0,0,0,0,0,0,0,0,0,0,0,0,0,0,0,0,0,0,0,0,0,0,0,0,0,0,0,0,0,0,0,0,0,0,0,0,0,0,0,0,0,0,0,0,0,0,0,0,0,0,0,0,0,0,0,0,0,0,0,0,0,0,0,0,0,0,0,0,0,0,0,0,0,0,0,0,0,0,0,0,0,0,0,0,0,0,0,0,0,0,0,0,0,0,0,0,0,0,0,0,0,0,0,0,0,0,0,0,0,0,0,0,0,0,0,0,0,0,0,0,0,0,0,0,0,0,0,0,0,0,0,0,0,0,0,0,0,0,0,0,0,0,0,0,0,0,0,0,0,0,0,0,0,0,0,0,0,0,0,0,0,0,0,0,0,0,0,0,0,0,0,0,0,0,0,0,0,0,0,0,0,0,0,0,0,0,0,0,0,0,0,0,0,0,0,0,0,0,0,0,0,0,0,0,0,0,0,0,0,0,0,0,0,0,0,0,0,0,0,0,0,0,0,0,0,0,0,0,0,0,0,0,0,0,0,0,0,0,0,0,0,0,0,0,0,0,0,0,0,0,0,0,0,0,0,0,0,0,0,0,0,0,0,0,0,0,0,0,0,0,0,0,0,0,0,0,0,0,0,0,0,0,0,0,0,0,0,0,0,0,0,0,0,0,0,0,0,0,0,0,0,0,0,0,0,0,0,0,0,0,0,0,0,0,0,0,0,0,0,0,0,0,0,0,0,0,0,0,0,0,0,0,0,0,0,0,0,0,0,0,0,0,0,0,0,0,0,0,0,0,0,0,0,0,0,0,0,0,0,0,0,0,0,0,0,0,0,0,0,0,0,0,0,0,0,0,0,0,0,0,0,0,0,0,0,0,0,0,0,0,0,0,0,0,0,0,0,0,0,0,0,0,0,0,0,0,0,0,0,0,0,0,0,0,0,0,0,0,0,0,0,0,0,0,0,0,0,0,0,0,0,0,0,0,0,0,0,0,0,0,0,0,0,0,0,0,0,0,0,0,0.0201,0,0,0,0,0,0,0,0,0,0,0,0,0,0,0,0,0,0,0,0,0,0,0,0,0,0,0,0,0,0,0,0,0,0,0,0,0,0,0,0,0,0,-0.0016,0.0019,0.0099,0.0179,0.0242,0,0,0,0,0,0,0,0,0,0,0,0,0,0,0,0,0,0,0,0,0,0,0,0,0,0,0,0,0,0,0,0,0,0,0,0,0,0,0,0,0,0.0135,0.0118,0.0173,0.014,0.0118,-0.0011,0,0,0,0,0,0,0,0,0,0,0,0,0,0,0,0,0,0,0,0,0,0,0,0,0,0,0,0,0,0,0,0,0,0,0,0,0,0,0.0357,0.0379,0.0341,0.0217,0.0049,-0.0132,-0.011,-0.0085,-0.0102,0,0,0,0,0,0,0,0,0,0,0,0,0,0,0,0,0,0,0,0,0,0,0,0,0,0,0,0,0,0,0,0,0,0,0,-0.0236,-0.0107,0.0225,0.0253,0.017,0.0071,-0.0033,-0.0077,-0.0099,0.003,0.0093,0.0093,0,0,0,0,0,0,0,0,0,0,0,0,0,0,0,0,0,0,0,0,0,0,0,0,0,0,0,0,0.0135,0.0129,0.0099,0.0049,0.0033,0.0036,0.0008,0.0014,0.0036,-0.0118,-0.0069,0.0066,0.0151,0.0091,0.0049,0.0025,0.0121,0.0118,0.0011,0,0,0,0,0,0,-0.0096,-0.0184,0,0,0,0,0,0,0,0,0,0,0,0,0,0,0,0,0,0,0.0148,0.0244,0.0349,0.0343,0.0277,0.0181,0.0085,-0.0052,-0.0146,-0.031,-0.0374,-0.0258,-0.0025,0.0099,0.0154,0.0091,0.0027,-0.0121,-0.0143,-0.0069,-0.0074,0,0,-0.008,-0.0104,-0.0102,-0.0099,-0.0115,-0.0206,-0.0327,-0.0428,-0.0508,0,0,0,0,0,0,0,0,0,0,0,0,0,0.011,0.0184,0.0346,0.05,0.0527,0.042,0.0209,-0.0008,-0.0099,-0.0269,-0.0385,-0.0442,-0.0316,-0.014,-0.0014,0.0091,0.0005,-0.017,-0.0343,-0.0385,-0.0151,-0.008,-0.0168,0.0003,-0.0022,-0.0038,-0.0052,-0.006,-0.0058,-0.0077,-0.0135,-0.0217,-0.0299,-0.0374,-0.0387,-0.033,-0.0275,-0.0211,-0.0242,-0.0346,-0.0417,-0.0343,-0.0176,-0.0033,0.0033,0.0052,0.0082,0.0176,0.0371,0.0426,0.0338,0.0239,0.0107,-0.0049,-0.0104,-0.0132,-0.0255,-0.0321,-0.0332,-0.0209,-0.0088,-0.0275,-0.0423,-0.0511,-0.0206,-0.0159,-0.0162,-0.0264,-0.0247,-0.0258,0.0071,0.0044,0.0022,-0.0014,-0.0052,-0.0082,-0.0124,-0.0184,-0.022,-0.0247,-0.0272,-0.0275,-0.0239,-0.0187,-0.0132,-0.0132,-0.0255,-0.0385,-0.0343,-0.0209,-0.008,-0.0005,0.0052,0.0104,0.0187,0.0255,0.022,0.0154,0.011,-0.0049,-0.0159,-0.0143,-0.0187,-0.0305,-0.0338,-0.0275,-0.0453,-0.0593,-0.0569,-0.0456,-0.0137,0.0082,-0.0047,-0.0154,-0.0168,-0.0008,0.0003,0.0206,0.0126,0.0063,0.0005,-0.0093,-0.0214,-0.0368,-0.0596,-0.0819,-0.0865,-0.0747,-0.0585,-0.0439,-0.0354,-0.0316,-0.0233,-0.0228,-0.0272,-0.0266,-0.0168,-0.0063,0.0027,0.0085,0.0181,0.0236,0.0233,0.0173,0.0115,0.0005,-0.0137,-0.0233,-0.0255,-0.0365,-0.0398,-0.042,-0.0643,-0.0873,-0.0808,-0.0286,0.0055,0.0014,-0.0115,-0.0132,0.0129,0.0044,-0.0157,-0.0266,0.0319,0.0146,0.0011,-0.0157,-0.0225,-0.0324,-0.0431,-0.0508,-0.0555,-0.0654,-0.0865,-0.1066,-0.1074,-0.0942,-0.0884,-0.0832,-0.0577,-0.039,-0.0269,-0.014,-0.0033,0.0121,0.0201,0.017,0.0143,0.006,0.0005,-0.0038,-0.0137,-0.0266,-0.0332,-0.0412,-0.0464,-0.0637,-0.0909,-0.1167,-0.0753,-0.0398,-0.0129,-0.0165,-0.0184,-0.014,-0.0137,-0.0236,-0.0269,-0.0324,-0.042,0.0297,0.0003,-0.0255,-0.0437,-0.0478,-0.042,-0.0398,-0.0387,-0.0393,-0.0407,-0.0453,-0.0538,-0.0648,-0.0651,-0.0621,-0.0527,-0.0434,-0.0374,-0.0258,-0.0143,0.0047,0.0239,0.0209,0.0025,-0.0118,-0.0198,-0.0129,-0.0099,-0.0151,-0.0299,-0.0434,-0.0481,-0.0813,-0.1178,-0.1478,-0.1035,-0.0514,-0.0338,-0.0258,-0.0242,-0.0305,-0.0401,-0.0404,-0.0459,-0.0426,-0.0401,-0.0472,0.0077,-0.0305,-0.0577,-0.0538,-0.0385,-0.0269,-0.0247,-0.0264,-0.0324,-0.0398,-0.0417,-0.047,-0.0582,-0.0645,-0.0654,-0.0593,-0.0497,-0.0385,-0.028,-0.0157,0.0085,0.0255,0.0005,-0.028,-0.0354,-0.0294,-0.0099,0.0008,-0.0146,-0.0376,-0.0478,-0.0895,-0.1387,-0.1719,-0.1398,-0.0797,-0.0492,-0.0393,-0.0431,-0.0555,-0.0547,-0.0505,-0.0445,-0.039,-0.042,-0.0456,-0.0467,-0.0253,-0.0582,-0.0615,-0.0338,-0.0107,-0.0041,-0.0052,-0.0085,-0.014,-0.0214,-0.0299,-0.0423,-0.0538,-0.0681,-0.0744,-0.0728,-0.07,-0.0577,-0.0442,-0.0302,-0.0091,0.0038,-0.0187,-0.0459,-0.0566,-0.0352,-0.0003,0.0154,-0.014,-0.0472,-0.0926,-0.15,-0.1829,-0.1708,-0.1143,-0.078,-0.0654,-0.0706,-0.0769,-0.061,-0.0461,-0.0313,-0.0269,-0.0283,-0.0343,-0.0371,-0.0354,-0.0555,-0.0684,-0.053,-0.0253,-0.0016,0.0093,0.0113,0.0058,-0.0038,-0.0154,-0.031,-0.0453,-0.0536,-0.061,-0.0695,-0.0764,-0.0813,-0.078,-0.0659,-0.0505,-0.0302,-0.0192,-0.0387,-0.0709,-0.0761,-0.045,0.0014,0.031,-0.022,-0.0846,-0.1549,-0.1934,-0.2013,-0.1568,-0.1176,-0.0997,-0.1057,-0.0961,-0.0791,-0.0552,-0.0324,-0.0173,-0.0132,-0.0135,-0.0143,-0.0118,-0.0011,-0.0758,-0.0676,-0.0396,-0.0088,0.0154,0.0294,0.0297,0.0201,0.0096,-0.008,-0.0316,-0.0607,-0.0802,-0.0882,-0.0862,-0.0794,-0.0736,-0.0717,-0.0678,-0.0582,-0.0431,-0.039,-0.067,-0.0906,-0.0895,-0.0618,-0.0104,0.0173,-0.0588,-0.1349,-0.1983,-0.2261,-0.1967,-0.1604,-0.1447,-0.1437,-0.1335,-0.1082,-0.0816,-0.053,-0.0313,-0.0176,-0.008,0.003,0.0135,0.0239,0.0363,-0.0788,-0.0516,-0.0162,0.0162,0.0376,0.047,0.0486,0.0519,0.053,0.0379,0.0088,-0.0324,-0.0692,-0.0931,-0.0994,-0.0912,-0.0788,-0.0698,-0.061,-0.0492,-0.0453,-0.0481,-0.0824,-0.0994,-0.0939,-0.0687,-0.0242,-0.0385,-0.1082,-0.1865,-0.2488,-0.2409,-0.2046,-0.1903,-0.184,-0.1684,-0.1469,-0.1209,-0.0873,-0.058,-0.0365,-0.0195,-0.003,0.0159,0.0335,0.0404,0.042,-0.0667,-0.0231,0.0115,0.0387,0.053,0.0618,0.0777,0.0931,0.0953,0.081,0.0571,0.0264,-0.0096,-0.045,-0.0667,-0.0678,-0.0574,-0.0437,-0.033,-0.0291,-0.0385,-0.0525,-0.0893,-0.0975,-0.0923,-0.0582,-0.0522,-0.0956,-0.1632,-0.2497,-0.284,-0.2535,-0.2354,-0.2236,-0.2071,-0.1881,-0.1634,-0.1321,-0.097,-0.0637,-0.0354,-0.0137,0.0036,0.0211,0.0376,0.0445,0.0464]}],[{"header":{"parameterUnit":"m.s-1","parameterCategory":2,"la1":30.8641,"la2":29.7642,"lo1":-88.4676,"lo2":-86.9344,"dy":0.0333,"dx":0.0333,"nx":47,"ny":34,"refTime":"2023-09-07T00:00:00:Z","depth":"20","parameterNumber":2,"parameterNumberName":"U-component_of_CURRENTS"},"data":[0,0,0,0,0,0,0,0,0,0,0,0,0,0,0,0,0,0,0,0,0,0,0,0,0,0,0,0,0,0,0,0,0,0,0,0,0,0,0,0,0,0,0,0,0,0,0,0,0,0,0,0,0,0,0,0,0,0,0,0,0,0,0,0,0,0,0,0,0,0,0,0,0,0,0,0,0,0,0,0,0,0,0,0,0,0,0,0,0,0,0,0,0,0,0,0,0,0,0,0,0,0,0,0,0,0,0,0,0,0,0,0,0,0,0,0,0,0,0,0,0,0,0,0,0,0,0,0,0,0,0,0,0,0,0,0,0,0,0,0,0,0,0,0,0,0,0,0,0,0,0,0,0,0,0,0,0,0,0,0,0,0,0,0,0,0,0,0,0,0,0,0,0,0,0,0,0,0,0,0,0,0,0,0,0,0,0,0,0,0,0,0,0,0,0,0,0,0,0,0,0,0,0,0,0,0,0,0,0,0,0,0,0,0,0,0,0,0,0,0,0,0,0,0,0,0,0,0,0,0,0,0,0,0,0,0,0,0,0,0,0,0,0,0,0,0,0,0,0,0,0,0,0,0,0,0,0,0,0,0,0,0,0,0,0,0,0,0,0,0,0,0,0,0,0,0,0,0,0,0,0,0,0,0,0,0,0,0,0,0,0,0,0,0,0,0,0,0,0,0,0,0,0,0,0,0,0,0,0,0,0,0,0,0,0,0,0,0,0,0,0,0,0,0,0,0,0,0,0,0,0,0,0,0,0,0,0,0,0,0,0,0,0,0,0,0,0,0,0,0,0,0,0,0,0,0,0,0,0,0,0,0,0,0,0,0,0,0,0,0,0,0,0,0,0,0,0,0,0,0,0,0,0,0,0,0,0,0,0,0,0,0,0,0,0,0,0,0,0,0,0,0,0,0,0,0,0,0,0,0,0,0,0,0,0,0,0,0,0,0,0,0,0,0,0,0,0,0,0,0,0,0,0,0,0,0,0,0,0,0,0,0,0,0,0,0,0,0,0,0,0,0,0,0,0,0,0,0,0,0,0,0,0,0,0,0,0,0,0,0,0,0,0,0,0,0,0,0,0,0,0,0,0,0,0,0,0,0,0,0,0,0,0,0,0,0,0,0,0,0,0,0,0,0,0,0,0,0,0,0,0,0,0,0,0,0,0,0,0,0,0,0,0,0,0,0,0,0,0,0,0,0,0,0,0,0,0,0,0,0,0,0,0,0,0,0,0,0,0,0,0,0,0,0,0,0,0,0,0,0,0,0,0,0,0,0,0,0,0,0,0,0,0,0,0,0,0,0,0,0,0,0,0,0,0,0,0,0,0,0,0,0,0,0,0,0,0,0,0,0,0,0,0,0,0,0,0,0,0,0,0,0,0,0,0,0,0,0,0,0,0,0,0,0,0,0,0,0,0,0,0,0,0,0,0,0,0,0,0,0,0,0,0,0,0,0,0,0,0,0,0,0,0,0,0,0,0,0,0,0,0,0,0,0,0,0,0,0,0,0,0,0,0,0,0,0,0,0,0,0,0,0,0,0,0,0,0,0,0,0,0,0,0,0,0,0,0,0,0,0,0,0,0,0,0,0,0,0,0,0,0,0,0,0,0,0,0,0,0,0,0,0,0,0,0,0,0,0,0,0,0,0,0,0,0,0,0,0,0,0,0,0,0,0,0,0,0,0,0,0,0,0,0,0,0,0,0,0,0,0,0,0,0,0,0,0,0,0,0,0,0,0,0,0,0,0,0,0,0,0,0,0,0,0,0,0,0,0,0,0,0,0,0,0,0,0,0,0.0286,0.0393,0,0,0,0,0,0,0,0,0,0,0,0,0,0,0,0,0,0,0,0,0,0,0,0,0,0,0,0,0,0,0,0,0,0,0,0,0,0,0,0,0,0,0,0,0.0354,0.0376,0.0448,0,0,0,0,0,0,0,0,0,0,0,0,0,0,0,0,0,0,0,0,0,0,0,0,0,0,0,0,0,0,0,0,0,0,0,0,0,0,0,0,0,0.05,0.0536,0.0563,0.0602,0.0618,0.0654,0,0,0,0,0,0,0,0,0,0,0,0,0,0,0,0,0,0,0,0,0,0,0,0,0,0,0,0,0,0,0,0,0,0,0,0,0,0,0.0385,0.0423,0.0519,0.0613,0.0692,0.0799,0.0961,0.1126,0.1236,0,0,0,0,0,0,0,0,0,0,0,0,0,0,0,0,0,0,0,0,0,0,0,0,0,0,0,0,0,0,0,0,0,0,0,0,0,0.0486,0.0582,0.0687,0.0821,0.0964,0.1107,0.1209,0.1299,0.1373,0.1384,0,0,0,0,0,0,0,0,0,0,0,0,0,0,0,0,0,0,0,0,0,0,0,0,0,0,0,0,0,0.0349,0.0374,0.042,0.0456,0.0478,0.053,0.0596,0.0651,0.0799,0.0989,0.1154,0.12,0.1209,0.125,0.1151,0.0948,0.081,0.0684,0,0,0,0,0,0,0,0,0,0,0,0,0,0,0,0,0,0,0,0,0,0,0,0,0,0,0,0,0.0382,0.0467,0.0522,0.0536,0.0566,0.0626,0.0684,0.0766,0.0975,0.1145,0.1274,0.1272,0.1203,0.1085,0.0753,0.0571,0.0448,0.0332,0.0423,0,0,0,0,0,0,0,0,0,0,0,0,0,0,0,0,0,0,0,0,0,0,0,0,0,0,0.0354,0.0415,0.0505,0.0588,0.0645,0.0728,0.0758,0.0797,0.0937,0.1041,0.1085,0.1189,0.1189,0.0805,0.0431,0.0253,0.0173,0.0102,0.0297,0.0706,0.0725,0,0,0,0,0.0431,0.0437,0.0464,0,0,0,0,0,0,0,0,0,0,0,0,0,0,0,0,0,0.0324,0.0321,0.0538,0.0588,0.0593,0.0659,0.0766,0.0884,0.0931,0.0931,0.0959,0.1,0.0904,0.0547,0.0286,0.0019,-0.0217,-0.0165,0.0228,0.0659,0.0492,0.0385,0.0478,0.0354,0.0313,0.0346,0.0459,0.0514,0.0511,0.0497,0.0497,0.0511,0.0533,0.0566,0.0593,0,0,0,0,0,0.0407,0.0393,0.0456,0.0503,0.0442,0.0324,0.0365,0.0753,0.1181,0.1233,0.1184,0.1071,0.097,0.0939,0.0893,0.0832,0.0761,0.0725,0.05,0.0324,-0.0151,-0.0516,-0.0409,-0.0044,0.039,0.0297,0.0082,0.0041,-0.017,-0.039,0.0533,0.0659,0.0722,0.0764,0.0797,0.0808,0.0808,0.0755,0.0684,0.0629,0.0577,0.0574,0.0591,0.0593,0.0569,0.0547,0.0552,0.0549,0.0486,0.0417,0.0409,0.0541,0.0898,0.1074,0.1022,0.1071,0.1145,0.1217,0.1129,0.1,0.0857,0.0648,0.0566,0.0489,0.0261,0.0033,-0.0357,-0.0541,-0.0305,0.0003,-0.011,-0.0376,-0.0602,-0.0736,-0.0849,-0.1115,-0.136,0.0387,0.0365,0.0412,0.0357,0.0363,0.0437,0.047,0.0492,0.0544,0.0648,0.0742,0.0783,0.0772,0.075,0.072,0.0695,0.064,0.0585,0.0582,0.0596,0.0678,0.0788,0.0821,0.075,0.0651,0.061,0.0637,0.0769,0.0865,0.0747,0.0478,0.0423,0.036,0.0115,-0.014,-0.0555,-0.0645,-0.031,-0.0489,-0.0783,-0.1055,-0.1299,-0.1417,-0.1618,-0.1805,-0.2085,-0.2318,0.0286,0.0283,0.0113,-0.0033,0.0058,0.0231,0.039,0.0481,0.0489,0.0464,0.0437,0.0417,0.05,0.0665,0.0736,0.0714,0.0684,0.0651,0.0648,0.0692,0.0722,0.0629,0.0544,0.0407,0.0305,0.0368,0.0442,0.0527,0.0505,0.0308,0.0247,0.0132,-0.0121,-0.0349,-0.0725,-0.0808,-0.0648,-0.0983,-0.1362,-0.1623,-0.1761,-0.1936,-0.2085,-0.2324,-0.2648,-0.2944,-0.3181,0.0148,0.0003,-0.0096,0.0049,0.014,0.0148,0.0211,0.0302,0.039,0.0445,0.0448,0.0431,0.0461,0.053,0.0527,0.0459,0.0382,0.0404,0.0428,0.0505,0.0615,0.0665,0.0588,0.045,0.0428,0.0442,0.0407,0.0349,0.0195,0.0187,0.0126,-0.0201,-0.0519,-0.0917,-0.1038,-0.1044,-0.1439,-0.1772,-0.2063,-0.2219,-0.2351,-0.2516,-0.2747,-0.3065,-0.3398,-0.3683,-0.3936,-0.0069,-0.0151,-0.0008,0.0124,0.0135,0.0201,0.0338,0.0497,0.0626,0.0706,0.0744,0.0764,0.0744,0.0676,0.0544,0.0401,0.0332,0.0379,0.0492,0.0662,0.0709,0.0615,0.0585,0.0667,0.0722,0.0634,0.0511,0.0382,0.0382,0.0286,-0.0118,-0.0588,-0.1112,-0.1321,-0.1316,-0.1692,-0.2129,-0.2332,-0.2532,-0.2675,-0.2821,-0.3035,-0.3307,-0.3593,-0.3887,-0.418,-0.443,-0.0162,-0.0115,0.003,0.0063,0.0176,0.0341,0.0508,0.0676,0.0808,0.0887,0.0928,0.0948,0.0942,0.0882,0.0788,0.0714,0.0692,0.072,0.0769,0.0783,0.0689,0.0538,0.0516,0.0703,0.0846,0.0728,0.0538,0.0511,0.0401,-0.0016,-0.0634,-0.128,-0.1544,-0.1467,-0.181,-0.2244,-0.251,-0.267,-0.2788,-0.2925,-0.3137,-0.3376,-0.3587,-0.3804,-0.4073,-0.4348,-0.4526,-0.019,-0.0091,0.0033,0.017,0.0258,0.0283,0.0288,0.0297,0.0297,0.0297,0.0343,0.045,0.0593,0.0744,0.0868,0.0945,0.0945,0.0871,0.0802,0.075,0.0648,0.053,0.0547,0.075,0.0909,0.0772,0.0525,0.0412,0.0104,-0.0538,-0.1244,-0.1637,-0.1596,-0.1816,-0.2302,-0.2607,-0.273,-0.281,-0.2936,-0.3101,-0.3321,-0.3505,-0.3639,-0.3782,-0.398,-0.4194,-0.4315,-0.0222,-0.006,0.0033,0.0082,0.0022,-0.011,-0.0239,-0.0291,-0.0338,-0.0393,-0.0343,-0.0214,-0.0066,0.0104,0.0297,0.0492,0.064,0.0711,0.0706,0.0602,0.047,0.0409,0.0475,0.0659,0.0786,0.0698,0.0626,0.0365,-0.0272,-0.0997,-0.1519,-0.1588,-0.1725,-0.2241,-0.2629,-0.2821,-0.2909,-0.3008,-0.3131,-0.3271,-0.3422,-0.356,-0.3672,-0.3766,-0.3873,-0.3991,-0.4098]},{"header":{"parameterUnit":"m.s-1","parameterCategory":2,"la1":30.8641,"la2":29.7642,"lo1":-88.4676,"lo2":-86.9344,"dy":0.0333,"dx":0.0333,"nx":47,"ny":34,"refTime":"2023-09-07T00:00:00:Z","depth":"20","parameterNumber":3,"parameterNumberName":"V-component_of_CURRENTS"},"data":[0,0,0,0,0,0,0,0,0,0,0,0,0,0,0,0,0,0,0,0,0,0,0,0,0,0,0,0,0,0,0,0,0,0,0,0,0,0,0,0,0,0,0,0,0,0,0,0,0,0,0,0,0,0,0,0,0,0,0,0,0,0,0,0,0,0,0,0,0,0,0,0,0,0,0,0,0,0,0,0,0,0,0,0,0,0,0,0,0,0,0,0,0,0,0,0,0,0,0,0,0,0,0,0,0,0,0,0,0,0,0,0,0,0,0,0,0,0,0,0,0,0,0,0,0,0,0,0,0,0,0,0,0,0,0,0,0,0,0,0,0,0,0,0,0,0,0,0,0,0,0,0,0,0,0,0,0,0,0,0,0,0,0,0,0,0,0,0,0,0,0,0,0,0,0,0,0,0,0,0,0,0,0,0,0,0,0,0,0,0,0,0,0,0,0,0,0,0,0,0,0,0,0,0,0,0,0,0,0,0,0,0,0,0,0,0,0,0,0,0,0,0,0,0,0,0,0,0,0,0,0,0,0,0,0,0,0,0,0,0,0,0,0,0,0,0,0,0,0,0,0,0,0,0,0,0,0,0,0,0,0,0,0,0,0,0,0,0,0,0,0,0,0,0,0,0,0,0,0,0,0,0,0,0,0,0,0,0,0,0,0,0,0,0,0,0,0,0,0,0,0,0,0,0,0,0,0,0,0,0,0,0,0,0,0,0,0,0,0,0,0,0,0,0,0,0,0,0,0,0,0,0,0,0,0,0,0,0,0,0,0,0,0,0,0,0,0,0,0,0,0,0,0,0,0,0,0,0,0,0,0,0,0,0,0,0,0,0,0,0,0,0,0,0,0,0,0,0,0,0,0,0,0,0,0,0,0,0,0,0,0,0,0,0,0,0,0,0,0,0,0,0,0,0,0,0,0,0,0,0,0,0,0,0,0,0,0,0,0,0,0,0,0,0,0,0,0,0,0,0,0,0,0,0,0,0,0,0,0,0,0,0,0,0,0,0,0,0,0,0,0,0,0,0,0,0,0,0,0,0,0,0,0,0,0,0,0,0,0,0,0,0,0,0,0,0,0,0,0,0,0,0,0,0,0,0,0,0,0,0,0,0,0,0,0,0,0,0,0,0,0,0,0,0,0,0,0,0,0,0,0,0,0,0,0,0,0,0,0,0,0,0,0,0,0,0,0,0,0,0,0,0,0,0,0,0,0,0,0,0,0,0,0,0,0,0,0,0,0,0,0,0,0,0,0,0,0,0,0,0,0,0,0,0,0,0,0,0,0,0,0,0,0,0,0,0,0,0,0,0,0,0,0,0,0,0,0,0,0,0,0,0,0,0,0,0,0,0,0,0,0,0,0,0,0,0,0,0,0,0,0,0,0,0,0,0,0,0,0,0,0,0,0,0,0,0,0,0,0,0,0,0,0,0,0,0,0,0,0,0,0,0,0,0,0,0,0,0,0,0,0,0,0,0,0,0,0,0,0,0,0,0,0,0,0,0,0,0,0,0,0,0,0,0,0,0,0,0,0,0,0,0,0,0,0,0,0,0,0,0,0,0,0,0,0,0,0,0,0,0,0,0,0,0,0,0,0,0,0,0,0,0,0,0,0,0,0,0,0,0,0,0,0,0,0,0,0,0,0,0,0,0,0,0,0,0,0,0,0,0,0,0,0,0,0,0,0,0,0,0,0,0,0,0,0,0,0,0,0,0,0,0,0,0,0,0,0,0,0,0,0,0,0,0,0,0,0,0,0,0,0,0,0,0,0,0,0,0,0,0,0,0,0,0,0,0,0,0.0203,0.0266,0,0,0,0,0,0,0,0,0,0,0,0,0,0,0,0,0,0,0,0,0,0,0,0,0,0,0,0,0,0,0,0,0,0,0,0,0,0,0,0,0,0,0,0,0.0242,0.0275,0.0321,0,0,0,0,0,0,0,0,0,0,0,0,0,0,0,0,0,0,0,0,0,0,0,0,0,0,0,0,0,0,0,0,0,0,0,0,0,0,0,0,0,0.0299,0.0264,0.0302,0.0363,0.0363,0.0332,0,0,0,0,0,0,0,0,0,0,0,0,0,0,0,0,0,0,0,0,0,0,0,0,0,0,0,0,0,0,0,0,0,0,0,0,0,0,0.0415,0.045,0.0393,0.0319,0.0269,0.0264,0.0294,0.022,0.0132,0,0,0,0,0,0,0,0,0,0,0,0,0,0,0,0,0,0,0,0,0,0,0,0,0,0,0,0,0,0,0,0,0,0,0,0,0,0.0319,0.0426,0.0445,0.0357,0.0253,0.0104,0.0008,0.0049,0.0124,0.022,0,0,0,0,0,0,0,0,0,0,0,0,0,0,0,0,0,0,0,0,0,0,0,0,0,0,0,0,0,0.033,0.0286,0.0255,0.0275,0.0286,0.0247,0.0244,0.0294,0.0321,0.0244,0.0091,0.011,0.0014,-0.0126,0.003,0.0126,0.0206,0.022,0,0,0,0,0,0,0,0,0,0,0,0,0,0,0,0,0,0,0,0,0,0,0,0,0,0,0,0,0.0516,0.0497,0.045,0.0431,0.0434,0.0393,0.0308,0.0211,0.0173,0.0016,-0.014,-0.0038,0.025,0.0,-0.0297,-0.0222,0.0038,0.0206,0.0085,0,0,0,0,0,0,0,0,0,0,0,0,0,0,0,0,0,0,0,0,0,0,0,0,0,0,0.0497,0.0571,0.0569,0.0511,0.045,0.0428,0.0376,0.0308,0.0173,-0.0003,-0.0184,-0.0052,0.0041,-0.0093,-0.0308,-0.0294,-0.0283,-0.0165,-0.0044,-0.0019,-0.0071,0,0,0,0,0.006,0.0055,0.0025,0,0,0,0,0,0,0,0,0,0,0,0,0,0,0,0,0,0.0341,0.0459,0.0514,0.0621,0.0648,0.0566,0.0503,0.0442,0.0236,0.0019,-0.0181,-0.0209,-0.0181,-0.0261,-0.0459,-0.0602,-0.0538,0.0088,0.0157,-0.0063,-0.0093,0.0137,0.022,0.0143,0.0148,0.0126,0.0052,0.0014,0.0005,0.0014,0.0,-0.0055,-0.0121,-0.0157,-0.0173,0,0,0,0,0,-0.0162,-0.0201,-0.0159,-0.0058,0.0121,0.0266,0.0316,0.0201,0.0146,0.0363,0.0453,0.045,0.0368,0.0239,0.0091,-0.0148,-0.0305,-0.0308,-0.0258,-0.0632,-0.0931,-0.0613,-0.0008,0.0209,0.0126,-0.003,0.0201,0.0181,0.0014,-0.0066,0.0225,0.0019,-0.0146,-0.0201,-0.0255,-0.0352,-0.0409,-0.0319,-0.0206,-0.0165,-0.0162,-0.0168,-0.0184,-0.0203,-0.0203,-0.0168,-0.0107,-0.0052,-0.0066,-0.0052,0.0041,0.0113,-0.0047,-0.0099,0.0121,0.0288,0.0385,0.0382,0.0316,0.0107,-0.0168,-0.033,-0.0483,-0.0527,-0.0428,-0.0948,-0.1096,-0.0533,-0.006,0.014,0.0011,-0.0082,0.0,-0.0066,-0.017,-0.0275,-0.0332,0.0135,0.0003,-0.0011,-0.0044,-0.0102,-0.0146,-0.0148,-0.0179,-0.0297,-0.0393,-0.0445,-0.042,-0.0349,-0.0266,-0.0236,-0.0272,-0.0209,-0.0176,-0.0135,-0.0126,-0.0085,-0.0052,0.0,0.0146,0.0231,0.0319,0.047,0.0354,0.0115,-0.0011,-0.0222,-0.0552,-0.0665,-0.0711,-0.1132,-0.1318,-0.0687,-0.0159,-0.0022,-0.008,-0.0151,-0.0203,-0.0258,-0.0357,-0.0437,-0.0376,-0.0239,0.0069,-0.0093,-0.0102,-0.0093,-0.0129,-0.0181,-0.014,-0.0093,-0.011,-0.0165,-0.0233,-0.0324,-0.0464,-0.0569,-0.0494,-0.0492,-0.0497,-0.0472,-0.0368,-0.0269,-0.0058,0.011,0.0074,0.0124,0.0148,0.028,0.0453,0.0409,0.0088,-0.0211,-0.0558,-0.0722,-0.0884,-0.1305,-0.1516,-0.0912,-0.0335,-0.0148,-0.0181,-0.0239,-0.0335,-0.0379,-0.0423,-0.045,-0.0385,-0.0288,-0.0255,-0.0077,-0.0184,-0.0217,-0.0203,-0.0159,-0.0146,-0.0146,-0.0187,-0.0255,-0.0291,-0.0288,-0.0299,-0.0335,-0.0461,-0.0541,-0.0596,-0.0709,-0.0629,-0.0417,-0.0228,-0.0003,0.0074,-0.0011,-0.0093,-0.0063,0.0088,0.0266,0.0456,0.0148,-0.0486,-0.0805,-0.0972,-0.1412,-0.1692,-0.1189,-0.0593,-0.0297,-0.0231,-0.0319,-0.0379,-0.0341,-0.0357,-0.0316,-0.0288,-0.0294,-0.0352,-0.0423,-0.0159,-0.0286,-0.0283,-0.0179,-0.0016,0.0093,0.0113,0.006,-0.0038,-0.0121,-0.019,-0.0264,-0.0319,-0.0382,-0.0426,-0.0475,-0.0514,-0.0371,-0.0269,-0.0239,-0.011,-0.006,-0.0247,-0.0459,-0.0439,-0.0272,-0.0011,0.0321,-0.011,-0.0728,-0.106,-0.1502,-0.1925,-0.1566,-0.0928,-0.0596,-0.0486,-0.0467,-0.0445,-0.0376,-0.0277,-0.0179,-0.0146,-0.0211,-0.0341,-0.0437,-0.0445,-0.0338,-0.0349,-0.0294,-0.0088,0.0104,0.0211,0.0206,0.0126,0.0016,-0.0093,-0.0181,-0.025,-0.0286,-0.0341,-0.0415,-0.0448,-0.0404,-0.031,-0.031,-0.0338,-0.0277,-0.0291,-0.047,-0.0711,-0.0744,-0.053,-0.0143,-0.0005,-0.0527,-0.1055,-0.1599,-0.2123,-0.1936,-0.1379,-0.1052,-0.0906,-0.0871,-0.078,-0.0643,-0.0464,-0.0258,-0.0143,-0.014,-0.0198,-0.0266,-0.0299,-0.0258,-0.0448,-0.0393,-0.0316,-0.0154,0.0003,0.0047,-0.0044,-0.0187,-0.0343,-0.0494,-0.0618,-0.0725,-0.0786,-0.0761,-0.0706,-0.0645,-0.0563,-0.0459,-0.0434,-0.0453,-0.0475,-0.0563,-0.0687,-0.0882,-0.0956,-0.0662,-0.0233,-0.0461,-0.0956,-0.1604,-0.2241,-0.2277,-0.1821,-0.1522,-0.1401,-0.1387,-0.1362,-0.1233,-0.1,-0.075,-0.0549,-0.0445,-0.0407,-0.036,-0.0305,-0.0269,-0.0217,-0.0527,-0.0486,-0.0374,-0.0228,-0.0148,-0.0198,-0.0319,-0.0448,-0.0571,-0.0722,-0.089,-0.1041,-0.1137,-0.1165,-0.1132,-0.1035,-0.0873,-0.0689,-0.0558,-0.0486,-0.0563,-0.0742,-0.089,-0.1068,-0.1107,-0.0739,-0.0593,-0.0964,-0.1486,-0.225,-0.2565,-0.2261,-0.1947,-0.1854,-0.1851,-0.1909,-0.1865,-0.17,-0.1453,-0.1214,-0.1022,-0.0923,-0.0849,-0.0714,-0.0527,-0.0365,-0.0236]}],[{"header":{"parameterUnit":"m.s-1","parameterCategory":2,"la1":30.8641,"la2":29.7642,"lo1":-88.4676,"lo2":-86.9344,"dy":0.0333,"dx":0.0333,"nx":47,"ny":34,"refTime":"2023-09-07T00:00:00:Z","depth":"25","parameterNumber":2,"parameterNumberName":"U-component_of_CURRENTS"},"data":[0,0,0,0,0,0,0,0,0,0,0,0,0,0,0,0,0,0,0,0,0,0,0,0,0,0,0,0,0,0,0,0,0,0,0,0,0,0,0,0,0,0,0,0,0,0,0,0,0,0,0,0,0,0,0,0,0,0,0,0,0,0,0,0,0,0,0,0,0,0,0,0,0,0,0,0,0,0,0,0,0,0,0,0,0,0,0,0,0,0,0,0,0,0,0,0,0,0,0,0,0,0,0,0,0,0,0,0,0,0,0,0,0,0,0,0,0,0,0,0,0,0,0,0,0,0,0,0,0,0,0,0,0,0,0,0,0,0,0,0,0,0,0,0,0,0,0,0,0,0,0,0,0,0,0,0,0,0,0,0,0,0,0,0,0,0,0,0,0,0,0,0,0,0,0,0,0,0,0,0,0,0,0,0,0,0,0,0,0,0,0,0,0,0,0,0,0,0,0,0,0,0,0,0,0,0,0,0,0,0,0,0,0,0,0,0,0,0,0,0,0,0,0,0,0,0,0,0,0,0,0,0,0,0,0,0,0,0,0,0,0,0,0,0,0,0,0,0,0,0,0,0,0,0,0,0,0,0,0,0,0,0,0,0,0,0,0,0,0,0,0,0,0,0,0,0,0,0,0,0,0,0,0,0,0,0,0,0,0,0,0,0,0,0,0,0,0,0,0,0,0,0,0,0,0,0,0,0,0,0,0,0,0,0,0,0,0,0,0,0,0,0,0,0,0,0,0,0,0,0,0,0,0,0,0,0,0,0,0,0,0,0,0,0,0,0,0,0,0,0,0,0,0,0,0,0,0,0,0,0,0,0,0,0,0,0,0,0,0,0,0,0,0,0,0,0,0,0,0,0,0,0,0,0,0,0,0,0,0,0,0,0,0,0,0,0,0,0,0,0,0,0,0,0,0,0,0,0,0,0,0,0,0,0,0,0,0,0,0,0,0,0,0,0,0,0,0,0,0,0,0,0,0,0,0,0,0,0,0,0,0,0,0,0,0,0,0,0,0,0,0,0,0,0,0,0,0,0,0,0,0,0,0,0,0,0,0,0,0,0,0,0,0,0,0,0,0,0,0,0,0,0,0,0,0,0,0,0,0,0,0,0,0,0,0,0,0,0,0,0,0,0,0,0,0,0,0,0,0,0,0,0,0,0,0,0,0,0,0,0,0,0,0,0,0,0,0,0,0,0,0,0,0,0,0,0,0,0,0,0,0,0,0,0,0,0,0,0,0,0,0,0,0,0,0,0,0,0,0,0,0,0,0,0,0,0,0,0,0,0,0,0,0,0,0,0,0,0,0,0,0,0,0,0,0,0,0,0,0,0,0,0,0,0,0,0,0,0,0,0,0,0,0,0,0,0,0,0,0,0,0,0,0,0,0,0,0,0,0,0,0,0,0,0,0,0,0,0,0,0,0,0,0,0,0,0,0,0,0,0,0,0,0,0,0,0,0,0,0,0,0,0,0,0,0,0,0,0,0,0,0,0,0,0,0,0,0,0,0,0,0,0,0,0,0,0,0,0,0,0,0,0,0,0,0,0,0,0,0,0,0,0,0,0,0,0,0,0,0,0,0,0,0,0,0,0,0,0,0,0,0,0,0,0,0,0,0,0,0,0,0,0,0,0,0,0,0,0,0,0,0,0,0,0,0,0,0,0,0,0,0,0,0,0,0,0,0,0,0,0,0,0,0,0,0,0,0,0,0,0,0,0,0,0,0,0,0,0,0,0,0,0,0,0,0,0,0,0,0,0,0,0,0,0,0,0,0,0,0,0,0,0,0,0,0,0,0,0,0,0,0,0,0,0,0,0,0,0,0,0,0,0,0,0,0,0,0,0,0,0,0,0,0,0,0,0,0,0,0,0,0,0,0,0,0,0,0,0,0,0,0,0,0,0,0,0,0,0,0,0,0,0,0,0,0,0,0,0,0,0,0,0,0,0,0,0,0,0,0,0,0,0,0,0,0,0,0,0,0,0,0,0,0,0,0,0,0,0,0,0,0,0,0,0,0,0,0,0,0,0,0,0,0,0,0,0,0,0,0,0,0,0,0,0,0,0,0,0,0,0,0,0,0,0,0,0,0,0,0,0,0,0,0,0,0,0,0,0.0467,0.0382,0.0338,0,0,0,0,0,0,0,0,0,0,0,0,0,0,0,0,0,0,0,0,0,0,0,0,0,0,0,0,0,0,0,0,0,0,0,0,0,0,0,0.0448,0.0478,0.0533,0.0525,0.0428,0.0321,0.033,0.0511,0,0,0,0,0,0,0,0,0,0,0,0,0,0,0,0,0,0,0,0,0,0,0,0,0,0,0,0,0,0,0,0,0,0,0,0,0,0,0.0442,0.0382,0.0398,0.0445,0.0404,0.039,0.0645,0.1022,0.1143,0,0,0,0,0,0,0,0,0,0,0,0,0,0,0,0,0,0,0,0,0,0,0,0,0,0,0,0,0,0,0,0,0,0,0,0,0,0.0448,0.0387,0.0478,0.0588,0.0673,0.0654,0.0742,0.0832,0.042,0.0385,0,0,0,0,0,0,0,0,0,0,0,0,0,0,0,0,0,0,0,0,0,0,0,0,0,0,0,0,0,0,0,0,0,0.0541,0.0571,0.0536,0.0385,0.0437,0.0775,0.0786,0.0711,0.0706,0.056,0.0291,0.0244,0.0698,0.0851,0,0,0,0,0,0,0,0,0,0,0,0,0,0,0,0,0,0,0,0,0,0,0,0,0,0,0,0,0,0.0475,0.0494,0.0494,0.0525,0.0544,0.0467,0.0321,0.0365,0.0651,0.0835,0.0733,0.0242,-0.0165,-0.0082,0.053,0.0692,0.0431,0.0453,0,0,0,0,0,0,0,0,0,0,0,0,0,0,0,0,0,0,0,0,0,0,0,0,0,0,0.0228,0.0338,0.045,0.05,0.0511,0.0516,0.0514,0.0437,0.0264,0.0222,0.0505,0.075,0.0214,-0.0563,-0.0437,0.0176,0.0588,0.0272,0.0124,-0.0069,-0.0261,0.0069,-0.0036,0.0036,0.0107,0.0187,0.025,0.0324,0,0,0,0,0,0,0,0,0,0,0,0,0,0,0,0,0.0239,0.0225,0.0239,0.0467,0.0791,0.0766,0.0607,0.058,0.0585,0.0505,0.0231,0.0201,0.0442,0.0687,-0.0019,-0.0618,-0.0173,0.0137,-0.003,-0.0332,-0.0555,-0.0755,-0.1044,-0.1272,-0.0192,-0.0124,-0.0044,0.0135,0.031,0.0396,0.0439,0.047,0.0483,0.0508,0.053,0.0558,0,0,0,0,0,0.0508,0.0467,0.0417,0.0299,0.0159,0.008,0.0157,0.0481,0.0871,0.1206,0.1382,0.1209,0.0898,0.0775,0.0681,0.0354,0.0203,0.0494,0.0585,-0.0376,-0.0514,-0.0244,-0.0456,-0.0695,-0.0953,-0.1165,-0.1519,-0.1802,-0.2049,-0.2258,-0.0228,-0.0058,0.0302,0.0563,0.0637,0.0599,0.0558,0.0538,0.0541,0.0558,0.0591,0.0648,0.0665,0.0676,0.0692,0.067,0.0629,0.0563,0.0478,0.0387,0.0236,0.0143,0.0368,0.0656,0.07,0.0706,0.0851,0.1101,0.1206,0.1019,0.0753,0.0319,0.0217,0.0618,0.0409,-0.0788,-0.0648,-0.07,-0.0959,-0.1252,-0.1535,-0.1832,-0.2131,-0.239,-0.2623,-0.2832,-0.3016,-0.0151,0.028,0.0591,0.0596,0.0464,0.0404,0.0434,0.0483,0.0519,0.056,0.064,0.0717,0.0775,0.0783,0.0791,0.0744,0.0654,0.064,0.0632,0.0538,0.039,0.0478,0.0538,0.0481,0.0492,0.0516,0.0571,0.0722,0.0884,0.081,0.036,0.0321,0.0585,-0.0253,-0.1035,-0.095,-0.1052,-0.1395,-0.1791,-0.2109,-0.239,-0.2653,-0.2837,-0.3013,-0.3194,-0.3378,-0.3571,0.0129,0.0591,0.0549,0.0297,0.0173,0.0236,0.036,0.0492,0.0613,0.0687,0.0695,0.0681,0.0678,0.0714,0.0742,0.0764,0.0777,0.078,0.07,0.0585,0.0591,0.0591,0.0519,0.0536,0.0596,0.0574,0.0508,0.0569,0.0602,0.0327,0.0327,0.0236,-0.0805,-0.1307,-0.1255,-0.1307,-0.1772,-0.2134,-0.2425,-0.2697,-0.2887,-0.3049,-0.3225,-0.3417,-0.3631,-0.3862,-0.406,0.0483,0.0516,0.0253,0.0181,0.0286,0.047,0.064,0.0761,0.0857,0.0923,0.0953,0.0926,0.0879,0.0887,0.0909,0.0937,0.0978,0.103,0.0997,0.0884,0.0788,0.0678,0.0634,0.07,0.0758,0.0634,0.0398,0.0335,0.0255,0.0132,-0.0222,-0.1066,-0.1604,-0.1483,-0.1469,-0.1934,-0.2346,-0.2648,-0.2818,-0.2944,-0.3057,-0.3219,-0.3406,-0.3628,-0.387,-0.4095,-0.4257,0.0544,0.0338,0.0291,0.0396,0.0558,0.0698,0.0813,0.0821,0.0742,0.0676,0.0698,0.0777,0.0904,0.1077,0.125,0.134,0.1406,0.1461,0.1417,0.1272,0.1129,0.1033,0.103,0.1074,0.0975,0.0692,0.0393,0.0206,0.0033,-0.0385,-0.1151,-0.1772,-0.1714,-0.156,-0.1967,-0.2497,-0.2799,-0.2942,-0.2991,-0.3024,-0.312,-0.3255,-0.3417,-0.3587,-0.3779,-0.4005,-0.4194,0.0371,0.0294,0.0385,0.0508,0.0563,0.0563,0.056,0.0475,0.0239,0.0052,0.0008,0.0088,0.0255,0.0464,0.0709,0.0981,0.1198,0.1244,0.1162,0.1077,0.1033,0.1055,0.1187,0.1349,0.1266,0.0849,0.0519,0.0239,-0.0239,-0.0937,-0.1706,-0.1846,-0.1618,-0.1925,-0.2486,-0.2868,-0.3035,-0.3112,-0.3145,-0.3203,-0.3307,-0.3422,-0.3527,-0.3617,-0.3757,-0.3969,-0.4147]},{"header":{"parameterUnit":"m.s-1","parameterCategory":2,"la1":30.8641,"la2":29.7642,"lo1":-88.4676,"lo2":-86.9344,"dy":0.0333,"dx":0.0333,"nx":47,"ny":34,"refTime":"2023-09-07T00:00:00:Z","depth":"25","parameterNumber":3,"parameterNumberName":"V-component_of_CURRENTS"},"data":[0,0,0,0,0,0,0,0,0,0,0,0,0,0,0,0,0,0,0,0,0,0,0,0,0,0,0,0,0,0,0,0,0,0,0,0,0,0,0,0,0,0,0,0,0,0,0,0,0,0,0,0,0,0,0,0,0,0,0,0,0,0,0,0,0,0,0,0,0,0,0,0,0,0,0,0,0,0,0,0,0,0,0,0,0,0,0,0,0,0,0,0,0,0,0,0,0,0,0,0,0,0,0,0,0,0,0,0,0,0,0,0,0,0,0,0,0,0,0,0,0,0,0,0,0,0,0,0,0,0,0,0,0,0,0,0,0,0,0,0,0,0,0,0,0,0,0,0,0,0,0,0,0,0,0,0,0,0,0,0,0,0,0,0,0,0,0,0,0,0,0,0,0,0,0,0,0,0,0,0,0,0,0,0,0,0,0,0,0,0,0,0,0,0,0,0,0,0,0,0,0,0,0,0,0,0,0,0,0,0,0,0,0,0,0,0,0,0,0,0,0,0,0,0,0,0,0,0,0,0,0,0,0,0,0,0,0,0,0,0,0,0,0,0,0,0,0,0,0,0,0,0,0,0,0,0,0,0,0,0,0,0,0,0,0,0,0,0,0,0,0,0,0,0,0,0,0,0,0,0,0,0,0,0,0,0,0,0,0,0,0,0,0,0,0,0,0,0,0,0,0,0,0,0,0,0,0,0,0,0,0,0,0,0,0,0,0,0,0,0,0,0,0,0,0,0,0,0,0,0,0,0,0,0,0,0,0,0,0,0,0,0,0,0,0,0,0,0,0,0,0,0,0,0,0,0,0,0,0,0,0,0,0,0,0,0,0,0,0,0,0,0,0,0,0,0,0,0,0,0,0,0,0,0,0,0,0,0,0,0,0,0,0,0,0,0,0,0,0,0,0,0,0,0,0,0,0,0,0,0,0,0,0,0,0,0,0,0,0,0,0,0,0,0,0,0,0,0,0,0,0,0,0,0,0,0,0,0,0,0,0,0,0,0,0,0,0,0,0,0,0,0,0,0,0,0,0,0,0,0,0,0,0,0,0,0,0,0,0,0,0,0,0,0,0,0,0,0,0,0,0,0,0,0,0,0,0,0,0,0,0,0,0,0,0,0,0,0,0,0,0,0,0,0,0,0,0,0,0,0,0,0,0,0,0,0,0,0,0,0,0,0,0,0,0,0,0,0,0,0,0,0,0,0,0,0,0,0,0,0,0,0,0,0,0,0,0,0,0,0,0,0,0,0,0,0,0,0,0,0,0,0,0,0,0,0,0,0,0,0,0,0,0,0,0,0,0,0,0,0,0,0,0,0,0,0,0,0,0,0,0,0,0,0,0,0,0,0,0,0,0,0,0,0,0,0,0,0,0,0,0,0,0,0,0,0,0,0,0,0,0,0,0,0,0,0,0,0,0,0,0,0,0,0,0,0,0,0,0,0,0,0,0,0,0,0,0,0,0,0,0,0,0,0,0,0,0,0,0,0,0,0,0,0,0,0,0,0,0,0,0,0,0,0,0,0,0,0,0,0,0,0,0,0,0,0,0,0,0,0,0,0,0,0,0,0,0,0,0,0,0,0,0,0,0,0,0,0,0,0,0,0,0,0,0,0,0,0,0,0,0,0,0,0,0,0,0,0,0,0,0,0,0,0,0,0,0,0,0,0,0,0,0,0,0,0,0,0,0,0,0,0,0,0,0,0,0,0,0,0,0,0,0,0,0,0,0,0,0,0,0,0,0,0,0,0,0,0,0,0,0,0,0,0,0,0,0,0,0,0,0,0,0,0,0,0,0,0,0,0,0,0,0,0,0,0,0,0,0,0,0,0,0,0,0,0,0,0,0,0,0,0,0,0,0,0,0,0,0,0,0,0,0,0,0,0,0,0,0,0,0,0,0,0,0,0,0,0,0,0,0,0,0,0,0,0,0,0,0,0,0,0,0,0,0,0,0,0,0,0,0,0,0,0,0,0,0,0,0,0,0,0,0,0,0,0,0,0,0,0,0,0,0,0,0,0,0,0,0,0,0,0,0,0,0,0,0,0,0,0,0,0,0,0,0,0,0,0,0,0,0,0,0,0,0,0,0,0,0,0,0,0,0,0,0,0,0,0.0401,0.0478,0.0489,0,0,0,0,0,0,0,0,0,0,0,0,0,0,0,0,0,0,0,0,0,0,0,0,0,0,0,0,0,0,0,0,0,0,0,0,0,0,0,0.0417,0.0385,0.0338,0.0341,0.0448,0.0566,0.0577,0.047,0,0,0,0,0,0,0,0,0,0,0,0,0,0,0,0,0,0,0,0,0,0,0,0,0,0,0,0,0,0,0,0,0,0,0,0,0,0,0.0437,0.0511,0.0536,0.0492,0.0525,0.0525,0.0335,0.0146,0.0198,0,0,0,0,0,0,0,0,0,0,0,0,0,0,0,0,0,0,0,0,0,0,0,0,0,0,0,0,0,0,0,0,0,0,0,0,0,0.0459,0.0613,0.0711,0.0703,0.0415,0.0211,0.0036,0.0102,0.0365,0.0401,0,0,0,0,0,0,0,0,0,0,0,0,0,0,0,0,0,0,0,0,0,0,0,0,0,0,0,0,0,0,0,0,0,0.0297,0.0236,0.0272,0.0497,0.0711,0.0689,0.0516,0.0239,-0.0091,-0.036,-0.0082,0.0283,0.0244,0.006,0,0,0,0,0,0,0,0,0,0,0,0,0,0,0,0,0,0,0,0,0,0,0,0,0,0,0,0,0,0.0508,0.0453,0.0376,0.0316,0.0236,0.0275,0.0519,0.0634,0.0516,0.0225,-0.0253,-0.0604,-0.0162,0.0269,0.0074,-0.0033,0.0157,0.0253,0,0,0,0,0,0,0,0,0,0,0,0,0,0,0,0,0,0,0,0,0,0,0,0,0,0,0.0582,0.0571,0.056,0.0522,0.0442,0.033,0.0206,0.0242,0.0497,0.0538,0.0253,-0.0313,-0.0736,-0.0255,0.0154,0.0308,0.0096,0.0203,0.0346,0.0258,0.0184,0.0201,0.0225,0.0266,0.0313,0.031,0.0269,0.0195,0,0,0,0,0,0,0,0,0,0,0,0,0,0,0,0,0.0398,0.0486,0.0591,0.0623,0.056,0.0489,0.0426,0.0321,0.0168,0.0118,0.0409,0.0475,0.0022,-0.0725,-0.0854,-0.022,0.0236,0.0255,0.0124,0.0297,0.0368,0.0313,0.0187,0.0071,0.0233,0.0255,0.0363,0.0415,0.036,0.0269,0.0162,0.0093,0.0047,-0.0005,-0.0033,-0.0058,0,0,0,0,0,-0.0129,-0.0063,0.0019,0.025,0.0396,0.0346,0.0376,0.0497,0.0555,0.0566,0.0423,0.0264,0.0165,-0.0022,-0.0225,0.0126,0.0354,-0.0151,-0.097,-0.0964,-0.0151,0.011,0.0176,0.025,0.0286,0.025,0.0151,0.0033,0.0016,0.0066,0.022,0.0415,0.0571,0.0445,0.0214,0.0052,-0.0135,-0.0264,-0.0335,-0.033,-0.028,-0.0187,-0.0071,-0.0088,-0.0176,-0.0225,-0.0187,-0.0126,-0.0041,0.0085,0.0222,0.0201,0.0321,0.0472,0.0313,0.0192,0.0236,0.0217,-0.0005,-0.0247,-0.0503,-0.0132,0.022,-0.0286,-0.1137,-0.0862,-0.0357,-0.0038,0.0231,0.0354,0.0302,0.0225,0.0121,-0.008,-0.0129,-0.0077,-0.0047,0.0459,0.0623,0.0338,0.0022,-0.0088,-0.0124,-0.0206,-0.0332,-0.0483,-0.0577,-0.0593,-0.0544,-0.0459,-0.0297,-0.0255,-0.0266,-0.0239,-0.0179,-0.0148,-0.0165,-0.0099,0.0173,0.0288,0.017,0.0014,-0.0008,0.0058,0.0146,-0.017,-0.0497,-0.0233,0.0135,-0.0407,-0.1233,-0.1025,-0.0527,-0.0118,0.0209,0.0269,0.0266,0.0217,0.0047,-0.0129,-0.0192,-0.0211,-0.0264,-0.033,0.0629,0.0352,0.0,-0.0019,0.0047,0.0137,0.0148,0.0049,-0.0151,-0.0313,-0.0346,-0.0324,-0.0321,-0.0299,-0.0272,-0.0261,-0.0247,-0.0277,-0.0404,-0.0486,-0.0266,0.0011,0.0088,-0.0063,-0.0228,-0.0253,-0.0129,0.0016,-0.0231,-0.0173,-0.0016,-0.0733,-0.1379,-0.1327,-0.0827,-0.0398,-0.0058,0.0126,0.0184,0.0157,0.0058,-0.0063,-0.0143,-0.0255,-0.0398,-0.0514,-0.0577,0.0393,0.0011,-0.0049,0.0047,0.0148,0.0264,0.0286,0.0206,0.003,-0.0129,-0.019,-0.0179,-0.0187,-0.0209,-0.0244,-0.0222,-0.0146,-0.0291,-0.0434,-0.0371,-0.0239,-0.0157,-0.014,-0.0244,-0.0412,-0.0423,-0.0151,-0.0093,-0.0211,-0.0247,-0.0975,-0.161,-0.1673,-0.1261,-0.0882,-0.056,-0.0354,-0.0242,-0.0201,-0.0203,-0.0157,-0.0121,-0.0184,-0.0327,-0.0489,-0.061,-0.0648,-0.0003,-0.0148,-0.0201,-0.0222,-0.0148,-0.0115,-0.0159,-0.0286,-0.0431,-0.0544,-0.0604,-0.061,-0.061,-0.0621,-0.0662,-0.0621,-0.0516,-0.0643,-0.0629,-0.0492,-0.0434,-0.0475,-0.0516,-0.0566,-0.0692,-0.0613,-0.0176,-0.0014,-0.0431,-0.0989,-0.1722,-0.1975,-0.1664,-0.1387,-0.1151,-0.0967,-0.0917,-0.0931,-0.0904,-0.078,-0.0621,-0.0566,-0.0582,-0.0632,-0.0689,-0.0728,-0.07,-0.0302,-0.042,-0.0604,-0.0659,-0.0637,-0.0665,-0.0731,-0.0832,-0.0939,-0.1027,-0.1118,-0.1187,-0.1228,-0.1263,-0.1343,-0.1406,-0.1346,-0.1252,-0.1011,-0.0799,-0.07,-0.0761,-0.0895,-0.1022,-0.109,-0.0799,-0.0233,-0.0423,-0.097,-0.1645,-0.217,-0.1994,-0.1813,-0.1689,-0.1524,-0.1511,-0.1621,-0.1673,-0.1571,-0.1483,-0.1393,-0.1376,-0.1354,-0.1258,-0.111,-0.0959,-0.0821]}]]